GFSCGP_850_thetae_000.txt.gz
Theta_e
329 332 331 330 331 331 331 333 337 338 341 344 345 350 346 344 345 344 344 348 348 349 349 352 353 354 354 355 355 355 354 353 352 352 352 351 351 350 350 349 349 349 347 346
328 329 330 330 331 330 330 331 333 339 342 344 350 351 349 346 342 344 344 346 347 348 349 352 352 353 354 355 355 354 353 353 351 354 351 347 345 347 348 345 343 344 345 343
327 328 330 330 330 331 332 332 332 337 345 345 350 352 355 349 348 345 347 346 349 349 350 350 351 352 353 354 355 352 349 350 352 347 346 345 341 340 341 342 341 342 342 337
330 329 329 330 331 332 333 333 333 335 347 343 347 342 356 353 352 349 346 349 349 350 351 350 349 350 351 353 355 352 353 345 340 336 339 339 333 337 338 338 338 334 339 332
330 329 330 330 331 332 334 337 338 340 346 345 351 346 341 351 353 351 349 347 347 349 350 349 346 348 350 354 356 353 333 333 333 328 326 332 337 335 336 336 335 331 334 330
331 330 331 332 331 331 338 341 341 341 339 341 337 342 335 341 349 348 348 348 349 348 349 350 348 349 353 352 351 339 332 332 330 326 326 325 326 326 332 334 335 334 335 336
331 330 331 331 332 333 335 335 335 335 335 335 337 338 335 336 345 345 346 349 349 348 348 349 350 352 351 351 345 338 332 332 330 328 326 326 325 327 333 334 332 332 333 333
332 332 331 332 332 332 332 332 331 333 332 331 339 334 336 342 341 340 344 347 349 348 346 348 351 350 350 348 341 333 330 331 328 326 327 327 326 332 333 334 331 332 332 332
331 331 331 331 332 333 332 332 332 332 331 331 332 336 338 341 342 341 345 347 349 346 346 348 349 349 348 342 335 327 327 326 323 329 328 332 335 335 332 328 329 332 330 331
331 332 331 331 331 331 334 333 332 332 334 334 332 331 333 336 337 342 343 346 350 345 345 347 347 347 344 341 335 326 322 324 329 330 330 333 333 334 333 331 329 329 328 327
330 331 333 332 332 332 333 333 334 334 334 334 334 333 335 334 335 337 343 346 349 345 343 345 347 347 341 340 337 323 323 327 330 331 332 330 332 333 331 329 332 333 331 327
330 331 332 332 333 333 333 333 334 335 339 335 334 332 335 334 335 336 338 345 346 347 340 339 345 346 340 339 335 333 334 335 335 335 333 332 332 330 329 329 331 331 331 329
331 330 331 333 334 333 334 334 334 335 335 336 334 334 337 336 338 339 338 343 346 348 343 339 342 343 340 339 336 334 334 332 332 333 332 333 332 332 331 330 329 329 329 329
331 331 332 331 332 332 334 334 335 334 336 336 336 335 334 337 337 336 339 342 344 346 344 341 340 340 340 339 336 334 333 331 332 332 331 332 333 332 331 328 326 329 331 331
332 335 333 332 331 332 332 334 334 335 335 336 334 335 336 336 335 336 335 336 342 343 343 343 341 340 341 339 337 328 333 332 331 332 332 332 333 333 329 329 331 332 332 330
335 337 336 333 332 332 332 332 334 334 334 336 335 334 331 330 330 330 331 334 338 341 342 343 342 341 341 339 335 329 332 331 332 333 332 332 333 334 334 332 333 331 330 329
337 338 339 335 334 334 335 335 335 334 335 334 333 332 331 331 331 331 334 335 336 338 341 341 341 341 340 337 331 331 331 330 333 330 332 333 334 334 333 331 331 330 331 330
339 340 337 336 338 338 335 335 334 334 334 333 332 331 330 330 332 335 334 335 335 336 339 340 340 340 339 333 330 331 330 333 332 331 333 333 334 334 333 331 330 330 330 329
336 339 336 338 338 335 335 334 334 334 334 334 333 330 329 331 335 335 335 335 337 337 339 340 340 339 335 332 330 331 332 332 332 332 332 332 333 333 333 331 331 331 329 327
334 337 337 336 335 335 334 334 333 333 335 331 330 330 330 334 334 337 336 335 337 338 339 340 338 335 333 328 331 332 332 333 332 332 332 331 332 333 332 331 330 329 328 326
336 337 335 334 335 333 335 332 332 334 334 331 329 329 331 336 334 338 337 335 336 337 337 338 336 333 331 332 332 332 333 333 333 332 331 330 332 333 331 330 330 329 327 326
336 336 334 334 336 336 332 331 333 337 332 331 331 331 332 334 338 336 337 337 336 336 335 335 334 333 333 334 332 333 335 329 333 332 332 330 326 331 329 330 329 328 323 320
334 335 336 335 336 334 331 332 331 331 332 332 334 334 334 336 336 336 337 337 336 335 335 334 334 336 337 338 336 337 337 337 336 335 326 327 323 326 333 328 325 327 325 324
330 329 331 333 334 331 328 329 330 331 332 332 332 332 334 337 335 335 336 336 336 335 335 335 334 334 335 335 333 334 337 338 333 327 324 325 326 332 332 328 328 327 325 325
329 329 330 331 331 328 329 328 327 328 329 330 330 332 334 335 333 332 332 332 331 332 330 324 325 332 333 332 334 334 331 329 326 324 324 331 330 330 329 327 322 325 322 321
328 329 330 329 325 326 327 323 325 327 329 329 332 333 332 332 330 328 329 330 330 331 324 327 324 329 331 331 331 327 325 324 323 326 328 329 327 327 325 326 324 321 321 321

GFSCGP_850_thetae_003.txt.gz
Theta_e
331 332 332 333 334 335 337 336 339 338 340 340 341 344 347 346 344 344 346 347 347 347 346 348 349 351 352 353 355 355 356 355 356 353 353 353 351 350 349 347 348 350 348 347
333 333 332 332 332 333 332 333 337 337 339 339 341 346 344 345 345 343 343 345 344 345 345 348 350 351 351 352 353 354 355 358 357 354 352 348 351 348 346 348 348 348 347 345
331 332 333 332 332 332 332 332 333 336 337 337 343 344 347 344 343 343 342 343 343 344 344 345 348 349 349 352 355 355 355 356 358 352 350 349 345 345 342 340 343 343 344 342
330 330 330 331 331 332 332 332 333 333 337 340 338 341 349 349 344 342 343 343 343 343 342 342 343 345 346 349 353 356 357 357 354 346 343 341 334 336 340 338 337 337 337 340
329 330 331 331 331 332 334 333 333 333 335 337 340 341 348 342 350 346 342 343 344 344 344 343 341 343 344 349 351 355 357 347 335 342 328 335 334 334 333 335 335 337 336 339
331 332 332 332 332 332 335 336 335 336 336 338 341 343 340 350 352 350 345 341 342 344 344 345 343 344 346 349 352 354 348 330 332 339 339 337 335 335 333 334 334 335 334 336
332 332 332 332 332 333 334 334 336 337 338 339 337 336 340 336 340 339 344 344 343 342 344 345 345 347 349 349 351 348 344 325 326 337 335 332 334 336 337 338 335 334 334 334
333 332 332 332 333 333 333 334 336 337 337 336 336 336 334 333 336 340 341 342 344 345 345 345 346 348 352 349 349 343 335 321 334 337 337 332 335 334 334 335 336 333 334 333
333 333 332 332 333 333 334 333 334 333 334 335 335 335 334 338 337 339 339 341 346 346 347 346 347 351 350 349 346 343 323 329 339 337 342 340 339 338 336 330 333 334 333 334
334 334 333 332 332 333 334 333 333 333 334 337 335 334 334 338 336 336 338 340 343 347 348 346 346 351 349 349 344 341 334 334 339 338 339 335 334 336 337 336 336 335 335 335
332 333 333 333 332 333 333 334 335 335 337 337 336 336 336 335 334 335 336 337 342 346 349 346 346 349 349 347 343 339 339 340 339 339 339 336 334 335 335 334 334 334 335 335
331 332 333 333 333 332 333 333 334 336 338 336 336 336 335 334 334 335 335 337 340 347 350 346 347 348 348 344 342 339 337 338 339 338 338 336 335 335 335 334 333 334 333 334
331 331 332 333 334 332 332 333 334 335 335 341 340 338 337 335 336 336 336 335 340 345 349 346 347 348 349 344 342 338 335 335 336 336 337 336 336 336 336 335 334 333 332 333
331 331 331 331 333 334 333 332 333 334 337 337 339 337 339 337 338 337 336 337 338 343 347 346 344 347 350 344 342 337 336 335 334 334 333 334 335 336 336 335 334 334 334 334
331 333 333 332 331 333 333 333 332 334 335 336 336 336 337 336 335 335 333 333 336 341 345 347 343 343 349 344 342 339 336 335 334 334 334 334 335 336 337 336 335 334 334 332
333 334 334 333 333 331 332 333 333 333 334 334 334 335 336 334 333 332 332 332 332 335 343 346 346 344 347 344 343 340 336 336 336 336 335 335 335 335 336 335 334 334 332 331
337 335 336 336 334 333 333 332 333 333 334 334 335 335 336 335 333 332 333 333 333 333 338 343 346 346 345 344 343 339 335 336 335 336 335 336 336 337 336 334 333 333 332 331
339 340 337 337 335 336 334 333 334 333 334 335 336 335 334 332 331 332 333 334 336 335 335 340 344 346 345 344 342 335 335 335 335 336 337 336 336 336 336 334 333 332 332 332
334 339 338 338 337 337 336 336 334 335 336 335 335 335 334 331 332 332 333 336 338 339 338 339 343 344 344 343 338 332 334 334 335 337 337 337 336 336 336 334 334 332 333 331
333 336 337 337 337 337 336 335 335 335 336 335 335 335 333 332 334 340 337 337 339 340 342 342 343 343 344 340 333 333 335 335 335 336 336 336 335 334 335 334 334 333 332 331
336 335 334 333 335 335 334 335 334 339 340 334 332 332 331 334 333 338 337 338 339 340 343 343 343 343 340 335 332 331 332 334 334 336 335 335 335 334 334 335 332 325 333 331
338 336 333 333 335 336 334 334 335 340 335 334 333 333 332 331 332 333 337 338 338 339 341 342 341 339 337 334 334 334 335 335 337 337 336 334 333 335 331 326 328 335 332 331
337 339 340 339 339 338 335 336 334 333 333 333 332 332 331 331 330 332 335 339 339 339 339 339 339 337 335 335 338 341 341 342 341 339 336 335 337 333 332 330 335 333 329 329
334 333 333 336 336 334 331 331 332 332 331 331 331 332 332 332 333 334 338 340 340 339 339 338 338 337 339 341 343 343 342 341 342 341 340 340 336 333 334 333 331 329 328 327
332 332 332 333 334 332 332 329 328 330 331 332 332 333 334 334 334 337 339 341 341 340 340 339 339 338 338 340 340 340 341 342 340 338 336 334 332 331 331 331 329 327 326 324
329 330 331 334 329 330 330 326 327 328 330 331 332 335 336 337 337 338 338 337 337 338 336 336 329 334 338 337 337 337 337 337 336 335 333 331 329 328 326 327 326 325 321 320

GFSCGP_850_thetae_006.txt.gz
Theta_e
334 333 332 333 335 337 339 339 342 341 344 346 344 345 346 343 344 347 347 346 346 345 349 350 352 354 352 351 352 353 353 355 353 352 347 349 349 348 344 345 346 347 345 344
333 332 333 334 335 335 336 336 337 340 340 342 346 346 346 344 343 345 347 347 346 346 346 346 347 347 348 353 352 350 351 350 351 349 347 345 344 349 346 347 346 345 345 345
332 332 333 333 333 333 335 333 334 339 339 339 339 347 345 344 343 343 344 346 346 345 346 347 348 348 349 350 352 350 352 351 351 352 349 348 347 346 343 346 346 347 344 343
331 333 333 333 332 332 333 333 333 334 337 338 339 342 348 346 344 344 343 343 345 344 345 347 348 349 349 351 352 353 353 354 353 351 345 343 340 333 338 338 338 337 337 331
330 331 332 333 333 333 332 333 332 333 333 334 336 339 348 346 345 343 342 342 343 344 344 345 345 346 347 350 352 356 356 353 350 327 325 333 333 336 333 334 335 332 336 336
331 330 331 331 332 332 332 335 334 333 333 336 335 340 345 347 351 344 342 341 342 343 344 343 344 344 344 349 351 355 356 338 321 319 326 328 333 331 326 333 335 337 336 334
330 330 332 332 332 333 333 335 338 337 337 337 336 338 345 345 343 346 347 341 342 343 344 344 343 344 344 349 351 355 349 327 318 323 334 334 334 334 334 337 337 336 333 334
330 330 332 332 332 333 333 335 336 342 339 338 339 341 344 340 343 345 347 346 342 341 345 345 346 344 347 349 351 353 346 321 320 329 333 330 325 335 337 336 337 334 332 334
331 333 333 332 333 334 334 335 334 336 335 335 337 338 336 336 336 334 337 336 344 342 342 345 346 347 348 350 351 350 345 324 322 335 335 333 337 328 325 333 331 326 336 335
333 335 333 332 333 333 334 334 334 334 339 339 336 336 337 343 338 336 335 335 339 344 344 344 345 349 351 351 350 348 344 330 328 338 336 339 336 335 333 330 324 326 327 329
333 335 334 333 332 332 333 334 334 334 335 337 338 338 341 344 340 336 335 335 336 337 344 347 346 349 352 351 350 348 344 339 338 338 340 339 333 334 336 335 333 334 335 335
333 333 335 334 334 333 333 334 336 337 340 339 341 337 337 337 335 334 335 335 337 340 341 349 348 351 353 350 350 347 343 342 341 340 339 338 334 331 335 335 335 335 334 333
333 334 334 335 334 333 333 334 333 334 335 343 339 340 340 336 336 335 335 336 338 339 345 350 349 348 352 350 350 345 341 341 341 340 339 336 335 334 333 334 335 334 334 332
334 332 335 332 335 335 335 333 332 333 338 337 338 342 339 338 339 340 337 337 337 341 341 349 349 348 350 350 349 344 341 338 338 338 338 337 335 335 333 336 337 335 334 334
333 339 333 331 331 332 333 334 333 333 336 337 339 341 341 339 339 336 335 334 334 336 341 347 348 348 350 350 348 344 341 337 336 335 335 334 335 335 335 337 336 333 333 334
332 336 332 332 332 331 332 332 334 334 333 333 334 339 339 338 335 334 334 333 333 333 334 338 349 346 352 351 347 344 340 336 335 335 334 334 335 336 336 336 336 335 334 334
337 333 338 335 333 333 334 333 332 334 335 334 338 339 340 339 336 334 334 334 334 334 334 335 341 349 351 352 347 343 340 337 335 334 330 330 333 333 335 335 335 334 334 331
340 344 339 337 339 339 334 335 333 333 334 334 336 337 339 336 334 332 333 333 334 334 335 335 339 344 348 350 346 344 342 338 336 336 329 329 331 335 336 336 334 334 333 330
333 343 340 341 337 335 336 336 338 338 339 336 336 337 336 335 333 337 335 333 335 336 338 338 336 342 349 348 346 344 342 337 336 335 331 332 331 336 336 336 335 334 334 329
336 340 343 341 337 338 339 337 335 336 339 338 336 337 337 334 334 342 338 337 338 338 340 339 340 342 347 346 346 344 339 335 336 333 332 332 334 337 336 336 335 334 334 331
336 338 336 336 336 334 335 336 334 339 339 334 334 334 334 339 336 336 338 337 338 339 342 344 343 344 347 345 344 342 335 334 333 335 336 337 337 336 335 334 335 335 332 328
341 339 336 339 338 338 336 337 338 343 336 336 335 335 334 334 333 332 333 337 337 338 341 344 344 346 345 344 341 336 333 333 336 336 336 337 337 336 335 334 334 331 326 330
336 339 343 343 343 337 337 337 335 336 335 334 334 334 333 333 332 332 330 331 338 338 339 342 344 344 343 341 336 336 339 341 341 341 339 338 337 335 335 335 332 329 330 330
337 335 338 337 338 334 334 332 332 332 332 331 331 331 331 331 331 332 331 334 339 338 340 341 342 343 339 338 339 341 343 342 337 333 340 340 339 337 338 334 331 331 331 331
337 334 335 338 334 335 331 330 331 331 331 331 331 330 331 332 333 333 334 336 341 342 340 342 343 342 341 340 339 336 339 336 341 343 343 340 338 336 331 333 331 331 328 326
330 334 336 335 329 331 328 327 328 328 328 330 331 330 330 333 335 339 342 342 342 340 340 340 338 336 333 332 330 327 323 332 338 338 337 335 335 332 330 329 328 326 326 325

GFSCGP_850_thetae_009.txt.gz
Theta_e
327 330 331 330 328 330 337 337 342 342 340 341 341 347 347 346 346 346 349 350 350 351 352 352 350 348 348 348 349 348 348 348 353 352 351 347 347 346 346 342 344 349 346 341
326 331 332 333 331 332 333 341 341 341 342 341 341 344 344 344 344 346 347 346 348 349 352 351 351 348 348 350 347 348 349 350 352 350 343 344 342 338 340 344 346 347 345 343
326 332 334 333 330 332 331 332 337 342 344 342 344 346 347 344 343 345 347 346 346 347 352 353 353 352 351 352 351 345 346 340 338 341 341 347 345 342 344 345 345 345 344 342
327 331 332 331 330 331 329 332 332 333 343 343 343 348 346 343 341 344 347 346 346 348 346 348 350 351 352 353 351 346 343 346 341 343 345 348 343 338 337 339 338 338 336 330
329 330 330 330 331 331 329 331 331 330 331 334 338 333 344 341 341 342 343 347 346 346 345 345 347 346 349 349 350 348 345 346 343 341 336 341 338 334 338 334 335 333 326 335
328 330 329 330 331 331 332 330 331 328 327 328 330 332 344 344 343 341 342 344 346 346 346 346 346 347 350 349 349 349 352 348 346 343 319 320 322 323 333 333 331 326 336 334
328 328 328 329 328 329 330 328 332 331 330 329 328 330 339 343 342 340 341 342 343 345 347 347 346 348 350 350 350 349 353 350 331 320 323 321 323 318 318 321 326 332 334 334
327 327 327 328 326 326 327 328 333 337 335 334 333 335 338 343 343 343 342 341 341 343 344 346 346 347 348 350 349 348 349 348 322 320 325 323 321 320 334 333 335 335 333 330
326 328 329 329 330 328 329 330 329 331 334 332 335 337 339 340 340 343 343 341 340 341 343 344 345 345 346 349 349 346 348 341 320 322 326 326 326 318 329 331 333 335 323 332
326 328 328 330 329 329 328 330 330 327 333 336 334 340 338 336 336 335 343 340 341 340 343 344 344 344 344 348 348 348 349 338 320 322 329 330 329 328 322 320 320 319 321 326
326 326 329 329 328 328 331 330 330 329 329 331 336 338 340 338 335 333 331 340 342 342 345 344 346 344 343 348 348 349 350 347 326 324 330 335 335 330 323 323 322 321 326 330
327 327 331 329 330 330 329 328 330 333 333 334 335 338 336 336 334 335 337 337 336 340 342 340 342 347 347 349 349 349 350 348 339 326 330 337 337 329 329 331 328 329 331 330
328 329 329 334 330 329 329 329 329 333 329 331 338 337 337 333 332 335 335 337 336 335 339 344 344 340 352 350 350 350 350 349 344 328 332 338 338 327 326 325 327 329 329 328
331 328 331 330 333 330 330 330 330 327 328 329 333 339 337 335 339 338 337 336 338 338 342 347 348 349 352 351 351 350 349 347 345 334 334 337 336 331 328 325 325 328 326 325
330 330 331 330 331 330 332 332 330 329 328 332 335 339 335 334 335 336 335 334 334 338 343 349 350 353 351 352 351 351 349 346 341 338 338 338 337 334 330 326 324 325 326 327
330 334 333 333 332 330 330 331 333 333 330 330 330 337 335 336 336 336 335 334 334 334 333 340 350 350 353 352 351 350 349 343 339 338 338 337 335 333 327 325 324 328 329 331
331 334 332 331 332 331 331 333 332 332 332 331 331 335 336 336 336 337 335 334 334 333 333 334 333 346 351 351 351 350 344 343 338 338 337 335 335 330 325 325 328 330 332 334
339 341 332 330 333 333 332 333 334 335 336 334 335 336 335 336 333 333 333 333 334 334 334 334 334 336 349 351 351 349 347 344 337 336 335 335 331 325 322 328 333 334 333 333
336 337 339 337 331 332 335 333 336 338 337 335 335 336 335 334 336 337 334 333 334 335 336 336 334 339 346 349 351 348 344 339 337 336 336 332 326 323 326 331 335 334 335 333
337 337 338 338 339 344 334 336 336 337 339 335 334 335 338 333 341 339 337 337 337 336 333 330 329 338 344 349 352 349 345 343 338 338 335 327 330 328 331 334 336 336 335 334
338 337 337 337 339 337 335 337 335 337 336 335 334 333 335 335 339 338 336 336 336 337 335 330 328 342 344 350 350 347 344 342 342 339 327 330 332 332 333 334 336 336 335 334
339 339 335 336 337 339 336 338 342 338 337 336 335 334 334 333 333 333 332 333 337 337 338 338 339 342 346 349 347 345 344 343 340 334 334 336 335 336 337 336 336 336 335 333
342 339 344 345 343 336 334 332 333 331 332 332 332 332 332 332 332 332 331 331 330 337 337 341 345 349 349 348 345 342 342 341 343 339 339 339 339 339 338 337 335 336 333 331
336 334 337 339 336 335 332 330 330 331 332 331 331 331 331 332 332 332 331 332 332 338 340 345 348 347 346 344 342 341 339 336 330 331 328 326 326 333 338 337 335 334 332 326
334 335 335 336 334 333 328 329 331 330 329 330 331 330 331 331 333 335 337 338 340 342 343 343 343 335 338 337 340 339 335 331 328 326 325 324 325 331 332 331 331 329 328 322
332 333 337 332 331 331 329 327 326 325 325 325 326 327 330 331 336 340 343 343 341 339 340 335 333 339 334 338 332 335 331 322 327 325 326 334 332 333 332 331 329 327 326 326

GFSCGP_850_thetae_015.txt.gz
Theta_e
320 319 320 320 324 325 329 336 344 344 341 346 346 346 345 345 345 344 345 345 345 346 346 345 346 347 347 346 345 346 346 345 347 347 347 350 348 346 344 344 347 347 347 345
318 318 320 321 325 326 327 336 340 338 341 345 345 348 344 343 344 344 345 345 345 346 346 345 346 346 346 346 345 345 346 346 346 347 347 347 345 342 344 346 344 344 344 345
316 319 322 326 329 330 327 329 336 337 340 343 346 348 347 345 344 344 344 345 345 346 346 346 345 346 346 346 345 345 345 346 346 342 346 344 342 339 335 342 339 339 341 342
318 320 324 328 329 329 330 327 333 338 340 344 345 352 344 345 346 345 346 345 346 346 346 346 346 346 347 346 345 345 346 347 343 346 346 344 338 341 338 338 337 341 340 338
319 321 322 326 329 329 329 326 328 337 338 341 343 343 343 343 344 346 345 346 347 347 347 347 347 348 348 346 346 346 344 343 345 343 339 337 337 338 342 339 337 339 338 335
319 322 322 322 324 328 328 326 322 323 331 340 344 341 338 344 346 344 343 342 347 348 348 347 348 349 348 346 345 347 346 341 335 331 330 326 325 328 335 333 336 336 333 331
320 320 322 326 326 325 324 321 323 328 336 339 331 341 340 339 343 343 342 340 345 348 349 349 349 350 349 346 341 345 347 329 326 325 325 323 321 325 330 332 334 333 332 329
317 320 320 322 324 324 322 321 322 324 326 330 324 340 341 337 338 343 342 340 342 345 348 350 349 349 349 347 345 342 341 332 327 327 325 323 323 321 320 319 320 322 321 321
318 319 322 322 323 323 324 322 321 321 323 326 325 328 328 334 332 339 341 338 340 343 346 348 348 348 349 348 344 341 342 340 329 326 326 326 326 321 317 317 317 317 320 324
318 320 319 323 323 322 323 321 324 320 326 330 326 330 329 331 336 336 338 336 340 343 345 347 348 348 348 347 343 341 344 346 336 329 327 326 325 322 318 319 320 320 327 332
315 318 320 323 321 323 324 321 321 320 321 325 327 327 326 330 333 336 336 338 340 343 344 345 346 347 346 347 345 341 344 346 346 340 333 328 324 324 320 317 318 319 320 319
316 317 320 320 321 322 320 322 321 324 323 322 324 326 328 330 333 336 336 338 340 341 343 344 345 346 347 347 346 345 343 344 346 347 343 331 323 324 325 319 319 319 319 320
316 315 318 319 320 322 323 322 321 319 320 326 328 329 329 328 330 337 337 338 340 342 342 344 344 345 346 346 345 345 346 345 346 348 348 339 325 325 328 321 321 321 320 320
321 313 321 322 321 321 325 324 323 323 323 323 325 328 334 329 329 330 337 338 339 339 340 342 344 345 345 345 345 346 347 348 348 348 350 346 328 331 328 323 321 320 320 321
320 318 316 321 322 323 324 325 324 325 324 327 327 328 331 328 328 330 337 339 339 340 339 340 341 342 343 344 345 346 346 347 347 349 350 350 336 333 327 327 321 320 321 320
318 319 320 321 321 322 323 324 325 325 323 326 324 330 327 330 330 331 334 336 337 338 340 340 340 341 341 341 343 344 345 346 347 350 351 342 328 328 332 336 326 322 321 322
318 321 317 323 322 323 325 325 325 326 327 327 329 327 328 330 329 330 333 336 337 337 337 340 340 340 341 343 343 343 343 345 347 351 351 347 331 334 335 334 336 326 321 321
324 320 318 323 323 326 324 329 327 332 334 333 332 327 330 331 332 332 333 335 336 336 337 337 337 338 336 336 339 342 343 344 348 350 349 347 343 339 337 334 338 333 322 324
325 319 326 324 324 326 332 333 335 332 333 332 332 331 331 332 332 332 332 333 335 333 332 332 332 330 329 328 330 335 339 342 348 350 349 348 343 342 336 336 338 336 330 324
326 323 326 327 325 329 333 332 333 331 332 331 332 331 331 332 334 329 332 331 332 332 332 332 332 331 330 330 329 334 341 346 348 348 348 348 344 341 337 337 337 336 333 330
334 333 331 331 333 332 331 331 332 336 332 330 331 332 332 329 329 334 332 333 334 334 333 333 333 332 332 331 330 332 345 347 348 349 348 346 343 340 340 339 338 337 335 333
335 338 337 333 332 336 330 331 334 331 328 330 331 331 331 331 331 331 332 333 335 335 336 335 334 335 335 333 331 332 342 347 349 347 346 345 342 340 340 338 335 333 329 331
334 335 337 333 331 329 332 330 329 329 329 329 329 329 332 333 333 334 334 332 331 332 330 330 329 330 339 337 335 343 347 348 346 345 343 342 338 337 336 331 329 327 326 327
333 331 333 334 331 330 328 329 327 325 323 326 328 328 329 330 331 333 335 336 333 334 334 334 333 334 341 342 344 347 346 345 343 342 340 337 337 334 328 327 329 331 327 329
331 332 333 333 332 329 326 324 323 324 326 326 328 328 330 332 332 330 331 336 336 335 339 340 340 344 345 345 345 343 343 341 340 337 331 330 333 327 326 327 327 329 328 330
329 329 330 333 329 327 326 322 323 322 322 323 327 323 321 321 322 324 328 331 338 336 341 341 344 345 340 341 341 340 339 336 328 327 327 327 326 326 326 327 328 330 331 330

GFSCGP_850_thetae_018.txt.gz
Theta_e
318 318 318 321 321 331 334 342 344 342 343 344 345 345 346 344 345 346 346 348 351 350 349 350 350 349 348 348 347 348 348 346 345 346 346 347 348 349 348 346 346 345 343 345
317 317 318 321 323 328 336 339 343 340 340 344 345 346 343 344 344 344 344 344 346 349 349 347 349 350 348 347 345 346 346 346 345 345 346 347 349 350 346 346 345 347 347 345
316 319 319 323 325 326 329 338 335 343 342 343 345 347 344 344 344 344 344 344 344 345 345 345 346 347 347 347 346 345 344 346 346 345 346 349 350 345 339 339 342 342 337 337
316 318 321 323 326 326 326 326 335 339 343 346 342 345 344 343 344 342 344 343 344 344 344 345 345 345 346 346 346 346 344 344 345 345 346 344 346 340 336 333 336 338 336 341
318 318 321 324 326 326 328 326 330 337 341 342 346 342 340 343 345 344 342 342 343 344 345 345 345 345 345 345 346 346 345 344 345 346 345 345 345 345 339 338 337 332 340 336
319 320 319 320 325 327 325 322 322 324 332 340 342 344 340 344 347 345 344 344 344 344 344 345 346 345 346 345 346 346 345 345 345 345 345 341 339 336 331 334 337 333 334 336
318 318 321 322 324 324 321 322 323 331 335 338 333 343 342 336 341 343 343 344 345 345 345 345 345 346 346 346 347 346 342 343 339 338 337 336 331 331 326 329 329 330 335 334
315 318 318 320 322 322 322 322 323 326 329 335 331 344 343 339 337 340 342 342 344 344 346 347 347 347 347 347 348 345 341 342 336 337 334 330 329 331 325 327 327 328 332 331
316 317 319 320 322 322 321 322 320 319 321 323 325 326 328 328 330 334 337 342 343 343 345 347 347 348 348 348 348 346 340 335 337 333 328 327 326 325 323 322 319 318 321 321
317 319 318 321 322 321 321 319 323 317 324 327 325 326 328 330 331 330 332 339 341 341 343 346 347 347 348 348 348 348 341 331 332 331 327 326 329 325 323 320 317 317 317 320
314 316 319 319 319 320 320 320 317 318 318 322 323 324 322 326 326 330 331 336 339 340 342 343 345 345 346 348 348 349 347 339 332 334 332 329 330 329 326 321 318 318 319 321
314 316 319 318 319 319 319 319 319 323 320 319 321 323 325 325 326 331 333 336 338 338 340 342 343 344 346 348 348 348 348 346 340 337 339 337 333 332 331 323 319 318 319 320
316 313 319 317 317 319 320 319 316 315 316 321 325 324 324 326 327 330 334 337 338 338 339 340 341 343 344 345 346 347 348 347 345 342 344 346 341 343 332 324 323 319 319 319
325 313 318 321 320 319 321 321 319 319 319 320 323 325 325 330 329 329 335 337 337 338 338 340 341 342 342 344 345 346 347 348 347 345 345 347 348 346 332 327 327 326 325 324
316 317 315 321 318 320 321 322 321 321 320 323 324 325 326 326 328 329 335 337 336 337 338 340 341 341 342 343 344 345 346 346 347 347 347 350 350 346 333 327 333 327 327 328
316 318 315 321 320 320 322 321 322 323 323 322 323 323 323 326 328 329 333 336 338 338 338 339 340 341 342 342 342 343 344 345 346 348 349 350 350 345 337 340 334 331 326 333
318 316 315 321 318 318 319 321 321 323 323 324 325 326 325 328 328 329 331 335 338 339 339 339 340 340 340 340 341 342 342 343 345 348 350 350 349 348 346 342 335 331 327 329
328 317 314 319 319 322 321 326 322 324 329 328 329 326 327 329 331 332 333 335 337 339 339 340 340 340 339 340 340 339 341 342 344 346 349 350 349 348 344 341 337 335 330 330
322 316 319 321 318 322 333 334 335 331 332 330 330 330 331 330 331 330 330 331 332 334 337 337 337 338 339 336 330 334 338 339 342 345 348 349 349 348 341 339 340 337 334 333
328 322 322 321 321 327 330 330 331 331 332 329 330 329 330 330 331 328 329 332 333 335 335 334 333 331 330 330 330 330 333 338 340 344 347 348 348 347 345 343 339 338 333 334
333 332 331 330 331 331 330 330 331 333 332 328 329 330 329 331 328 331 332 332 332 333 333 333 332 331 331 331 331 331 334 339 343 346 347 347 347 346 344 343 340 336 335 336
336 337 337 332 333 335 329 330 332 329 328 330 332 330 330 330 331 331 332 332 334 333 333 334 335 335 335 335 333 332 333 339 345 347 347 346 345 344 343 341 340 337 337 335
335 334 336 332 330 327 329 329 328 328 327 327 330 331 332 334 336 336 333 330 330 330 329 330 331 332 336 336 332 337 334 341 345 346 346 345 343 342 340 338 338 337 333 327
332 330 331 332 330 329 326 324 324 323 322 323 324 326 329 330 330 332 331 332 330 330 330 329 330 331 336 341 342 345 346 340 343 344 343 342 340 339 335 334 332 330 329 330
331 332 333 331 331 326 324 322 322 323 325 325 324 324 323 325 325 327 331 333 332 333 336 334 331 335 338 343 343 339 337 337 340 341 340 338 337 335 331 328 327 327 326 327
321 329 332 333 329 328 325 322 322 323 322 322 322 322 322 322 322 324 327 333 335 338 340 333 334 338 339 338 337 336 337 338 339 338 335 329 332 334 329 327 326 327 326 329

GFSCGP_850_thetae_021.txt.gz
Theta_e
321 322 323 327 334 337 341 343 344 346 345 346 347 348 347 349 350 350 351 351 351 351 352 352 348 349 349 348 347 346 346 345 346 345 345 346 346 347 347 348 346 345 344 344
322 322 323 325 330 336 342 343 344 344 345 345 346 346 347 347 350 350 350 351 351 352 352 353 351 350 350 348 348 347 346 347 346 346 345 345 346 347 349 349 347 345 344 344
322 322 322 324 327 329 340 343 345 344 345 346 346 347 348 347 347 347 348 348 348 350 350 350 350 350 349 350 348 348 345 347 347 345 345 346 346 347 349 348 343 344 345 344
321 321 322 324 327 329 333 339 343 344 346 349 346 349 348 349 349 348 346 346 346 346 348 347 347 347 347 348 348 347 346 345 345 345 345 346 346 348 347 341 337 338 340 332
325 320 322 323 326 328 332 334 339 343 346 346 348 349 346 348 351 349 347 346 345 345 345 345 346 345 344 345 346 346 346 345 343 344 345 345 346 346 348 344 335 336 338 334
325 320 323 324 326 328 329 332 334 340 342 347 344 348 343 348 350 348 346 345 345 345 345 345 345 344 344 344 345 346 346 346 344 343 344 345 345 346 346 344 335 338 334 334
325 324 323 323 325 329 330 333 336 339 344 340 339 348 346 342 345 346 346 345 345 345 345 345 346 346 345 345 345 345 345 346 345 343 344 344 345 344 344 339 330 333 330 331
327 326 323 324 325 328 329 331 334 338 338 337 336 345 344 343 341 341 343 345 345 345 345 345 345 344 346 346 346 346 345 346 344 341 342 343 343 342 341 333 327 331 328 332
327 326 321 323 324 329 329 330 332 332 328 335 337 339 336 338 339 339 341 341 344 345 345 345 346 345 346 346 347 346 346 346 342 338 340 340 340 342 338 327 326 326 326 329
324 325 323 322 324 325 327 328 328 329 337 334 333 334 333 338 339 341 341 340 342 344 346 346 346 345 345 346 347 347 347 347 341 333 336 341 337 339 338 337 326 323 318 323
326 324 323 322 323 325 325 326 327 330 331 336 335 333 335 338 339 339 339 338 339 342 344 345 346 346 345 345 346 347 347 347 347 335 331 337 338 342 337 328 329 321 319 319
324 327 327 324 324 323 325 326 328 332 333 330 332 333 332 334 336 337 336 335 337 340 342 344 347 348 345 345 346 347 347 347 347 347 334 333 341 343 334 330 327 321 321 323
321 324 327 327 326 323 323 325 326 327 329 337 331 331 334 332 334 333 333 337 336 339 341 344 346 346 344 344 345 346 346 347 347 348 346 339 337 345 339 327 327 324 322 322
322 326 327 328 328 326 325 324 324 325 329 328 330 330 332 333 337 338 337 335 336 338 341 343 344 343 342 343 343 344 345 348 349 348 349 346 341 344 345 339 327 324 330 333
330 333 330 330 328 327 325 324 324 326 327 329 328 331 333 335 336 339 336 338 338 339 341 339 338 339 340 341 341 341 344 346 348 349 349 349 347 346 348 344 331 327 335 333
325 330 328 331 330 327 326 326 325 325 325 327 328 332 333 334 333 333 336 337 340 339 337 337 337 338 339 339 340 342 344 345 347 348 349 349 349 349 349 348 341 336 333 338
332 328 327 328 328 326 326 327 326 326 327 327 330 331 335 333 334 334 333 336 335 336 337 337 338 338 339 340 341 341 343 344 344 345 346 346 347 348 349 349 345 337 338 336
334 331 327 331 326 326 326 327 327 327 327 328 328 332 334 334 334 335 334 335 334 337 338 338 338 338 339 339 340 341 342 342 343 343 344 346 347 348 348 348 348 343 340 337
334 332 335 333 331 328 331 334 327 325 329 330 331 333 335 333 331 334 330 330 332 334 336 337 338 338 339 339 339 340 338 337 339 340 342 344 346 348 348 347 346 338 336 339
331 332 337 333 331 331 332 333 333 334 331 335 335 337 337 334 336 338 330 330 332 333 336 337 338 338 339 339 336 331 332 334 334 336 340 344 346 348 348 347 344 337 334 335
339 341 338 337 333 332 334 333 333 336 336 334 333 335 334 337 336 334 331 333 333 336 337 337 336 333 331 330 330 330 331 332 331 333 343 346 346 348 347 345 343 338 338 336
339 341 342 340 338 335 331 333 338 335 333 333 333 334 334 335 337 338 339 340 337 334 333 332 331 330 331 332 333 332 333 334 337 343 344 343 346 346 345 344 343 340 338 338
338 338 340 337 336 331 328 332 330 330 332 334 338 339 339 339 340 339 335 333 332 332 331 331 330 330 331 336 335 334 335 337 337 345 344 342 344 344 343 343 341 341 339 337
335 333 337 337 334 329 327 326 325 325 326 327 328 330 333 335 336 337 335 334 332 331 330 330 327 328 332 337 339 339 338 343 344 342 341 344 343 343 341 340 339 338 338 336
328 334 334 334 331 328 325 326 326 325 324 323 324 326 331 334 336 335 337 335 335 336 334 332 332 334 338 341 338 340 340 339 335 340 342 341 340 339 338 337 336 334 332 328
322 329 335 336 331 330 327 325 323 322 323 323 322 322 324 323 327 328 332 336 339 338 336 334 334 336 334 339 339 339 339 336 338 339 338 337 337 336 334 330 328 327 327 327

GFSCGP_850_thetae_024.txt.gz
Theta_e
323 326 327 329 332 337 339 340 340 342 347 348 348 348 348 349 349 348 349 349 348 348 348 350 351 351 352 353 353 353 353 351 352 353 353 352 352 351 353 353 352 351 350 345
324 325 328 330 331 334 337 339 340 343 347 347 347 348 347 347 350 348 348 349 349 348 349 350 351 351 352 354 354 354 353 350 348 354 354 353 353 352 351 353 353 350 351 350
325 325 327 328 330 334 337 340 340 344 347 347 346 348 348 345 346 350 348 347 348 349 348 349 350 351 352 353 355 355 349 348 347 350 354 354 354 353 353 351 350 350 349 349
325 326 326 326 328 332 338 338 340 343 347 349 347 347 345 346 348 349 350 347 347 349 350 349 349 350 352 352 355 355 349 347 347 347 353 355 352 350 347 348 347 346 348 349
325 324 324 325 326 331 335 336 338 341 345 345 348 350 346 346 348 349 349 348 345 345 345 346 347 347 349 351 352 355 351 347 347 349 350 354 352 350 350 349 350 340 346 344
326 325 324 325 326 328 332 334 337 339 342 346 345 347 346 346 349 347 347 348 345 343 343 343 343 344 346 348 349 352 353 346 346 346 344 346 352 352 349 351 351 345 343 343
326 326 324 324 325 327 330 334 341 343 343 345 344 344 344 342 341 344 343 346 347 345 343 343 343 342 344 346 348 351 353 346 346 346 344 341 344 350 354 354 351 343 341 341
328 326 326 325 326 327 329 334 339 342 341 342 341 342 342 342 341 339 339 341 345 346 345 344 345 345 346 347 349 351 350 345 345 346 345 341 342 353 354 354 350 345 340 340
328 328 326 326 325 327 329 334 335 338 338 340 339 340 339 338 340 339 339 340 342 346 346 346 346 347 347 349 350 346 345 344 345 345 345 343 341 345 353 354 350 345 337 339
329 329 327 327 326 326 330 331 335 337 341 341 338 339 340 339 339 338 338 338 340 342 345 346 347 347 348 349 351 351 345 344 345 345 345 342 342 342 347 344 342 342 326 326
329 329 328 327 327 326 327 331 334 335 336 339 339 338 337 336 337 336 336 335 336 338 343 346 347 347 349 350 351 353 350 345 345 346 346 340 339 343 342 340 339 333 327 322
329 330 330 327 326 326 328 329 333 337 339 337 337 338 336 337 336 335 335 334 334 336 340 343 346 348 348 351 351 353 354 354 345 345 346 345 338 339 336 338 336 331 326 321
330 331 332 329 325 326 326 328 330 333 335 341 338 338 336 335 336 335 336 336 336 343 343 343 346 348 349 351 352 352 353 354 354 355 354 351 348 342 332 339 340 330 327 321
326 331 332 332 329 326 325 326 328 330 336 334 336 337 336 335 335 335 335 334 335 339 345 345 346 348 350 351 352 352 353 353 354 355 356 356 355 347 335 335 343 332 327 324
325 330 331 330 330 329 328 326 325 326 328 331 332 334 335 336 335 334 333 332 334 343 346 347 347 349 352 353 353 355 355 355 354 355 356 357 356 352 347 343 341 342 332 327
329 333 334 333 331 330 329 329 328 327 326 327 329 331 333 333 332 333 332 332 334 340 346 347 348 349 352 354 355 356 355 355 355 356 357 357 354 350 349 347 343 345 341 331
328 330 334 335 333 333 333 331 330 330 328 327 328 329 330 331 333 333 334 334 335 335 343 346 348 348 352 354 356 356 356 355 355 354 357 355 351 348 348 348 347 346 343 332
332 335 333 335 334 335 333 332 332 331 330 329 328 328 329 330 331 331 334 335 337 337 338 345 347 348 352 352 354 353 354 353 349 354 349 351 347 345 346 347 347 347 346 340
329 336 335 337 337 334 332 331 332 332 332 331 329 329 329 330 332 335 336 337 338 339 340 343 346 348 351 350 351 348 353 352 355 350 348 342 341 344 345 347 346 344 342 339
330 333 339 339 337 337 340 338 336 337 336 331 330 330 331 330 334 337 336 338 336 337 341 345 345 346 349 349 350 349 353 351 343 338 340 339 341 345 346 346 346 346 343 341
337 338 338 337 338 337 338 335 336 337 336 339 331 330 330 333 334 340 339 339 340 342 344 345 346 347 349 350 352 352 349 346 350 352 343 340 341 342 346 347 346 346 344 340
337 337 336 337 339 340 334 336 338 341 340 338 338 338 337 338 340 341 343 343 344 346 346 349 350 350 349 351 351 352 353 343 336 333 335 338 343 346 346 347 345 345 344 341
336 335 335 339 339 335 332 335 334 336 338 342 340 339 340 340 342 343 343 345 345 346 346 347 348 348 348 344 338 335 333 334 334 333 336 342 345 346 344 345 344 342 342 341
339 337 338 338 334 334 331 329 330 331 333 335 340 341 341 340 340 340 341 341 342 342 342 343 343 341 338 334 333 335 335 335 336 341 345 345 345 343 343 343 342 341 340 340
333 336 338 336 333 329 329 330 328 327 329 331 334 338 340 342 343 344 344 344 344 343 345 345 345 333 334 336 337 337 336 338 340 344 343 342 343 342 343 342 341 340 339 338
323 329 338 336 331 331 330 327 327 328 328 328 328 330 331 332 334 338 343 344 344 339 336 334 336 338 340 341 340 338 341 342 343 342 342 341 340 339 339 337 336 334 330 330

GFSCGP_850_thetae_027.txt.gz
Theta_e
325 326 328 332 334 337 341 342 342 343 341 346 346 346 347 348 348 346 345 344 344 344 346 347 348 347 349 350 352 353 353 351 353 353 354 352 352 351 352 350 351 352 349 349
327 326 328 332 333 336 338 342 342 340 343 344 346 347 346 349 349 347 346 345 344 343 344 347 349 348 350 351 353 354 355 354 354 353 352 351 349 350 353 353 348 355 352 353
326 326 328 331 333 335 337 340 341 340 346 345 346 347 346 346 347 348 347 346 345 344 344 347 349 350 350 351 354 355 355 355 354 353 352 353 354 351 351 347 347 347 350 347
327 328 328 330 332 334 336 338 339 339 347 348 344 349 347 346 346 348 348 348 345 345 344 345 348 350 350 351 354 355 356 355 355 352 355 352 352 349 347 346 347 347 348 347
327 327 328 329 331 334 335 337 339 340 343 347 344 345 345 344 346 345 348 349 347 346 345 344 345 348 350 350 352 355 356 356 355 355 352 355 352 348 349 348 351 348 349 347
328 327 328 328 330 332 334 336 339 339 341 346 346 348 346 346 346 345 346 347 348 346 346 346 345 346 349 350 351 353 356 357 353 353 351 352 354 350 350 349 352 348 345 347
328 328 327 328 328 330 332 336 339 340 342 343 345 347 350 344 344 344 343 344 347 347 345 346 346 345 347 348 350 351 354 355 353 350 356 349 349 355 351 355 351 349 344 343
330 329 329 327 328 329 331 334 338 342 341 340 341 346 344 344 342 342 340 341 343 347 346 345 345 344 345 346 348 350 351 353 350 351 350 351 346 355 354 351 351 349 344 342
331 331 329 328 328 328 330 334 334 337 338 340 341 341 341 342 342 342 341 340 339 344 346 346 345 345 343 344 347 348 349 354 349 355 350 347 347 345 351 351 350 352 346 342
330 332 331 329 328 327 328 332 334 337 343 344 340 341 343 343 341 341 341 338 337 339 343 346 346 345 345 344 344 348 349 354 347 347 348 348 347 345 344 352 354 351 348 341
329 330 331 330 329 328 327 330 332 334 337 341 341 342 340 342 341 340 339 337 337 337 339 344 346 347 347 346 346 348 351 353 352 348 348 349 349 349 345 350 352 348 351 343
329 330 332 331 330 329 329 328 330 340 339 337 340 339 339 338 339 338 338 337 336 336 337 339 344 346 348 349 348 348 350 354 357 356 348 347 347 346 345 340 350 348 350 340
329 330 332 333 331 330 329 329 329 331 335 343 342 339 338 338 338 336 336 336 336 336 339 339 340 344 347 350 350 349 350 350 354 357 357 354 348 347 344 339 340 344 341 337
328 330 331 333 333 331 330 328 328 329 334 337 338 338 338 338 338 337 336 335 335 336 337 343 343 339 347 349 351 351 351 351 353 355 357 359 356 350 349 348 341 336 335 335
328 332 331 330 332 332 329 328 327 328 330 333 335 337 338 338 338 338 336 335 335 334 335 344 347 346 350 350 353 353 354 353 353 355 357 358 359 357 357 356 351 348 341 339
328 331 333 334 332 332 332 328 327 327 328 330 331 333 336 336 336 337 335 335 335 334 334 341 348 349 349 351 354 356 355 355 354 356 357 358 360 359 358 357 356 353 349 345
328 329 331 333 332 332 332 332 331 330 329 328 330 331 333 333 335 336 338 336 335 334 333 334 347 350 351 353 355 357 357 356 356 358 357 359 361 359 359 357 354 355 352 346
328 331 332 333 334 336 333 332 331 331 331 331 331 330 330 331 331 332 333 333 334 334 334 334 340 349 351 354 356 357 359 358 358 357 359 360 360 360 357 352 354 353 351 347
327 330 331 333 334 335 333 333 333 333 333 332 332 332 332 329 328 331 330 331 333 333 333 335 333 345 350 353 356 358 359 359 359 359 360 360 362 359 356 351 350 351 350 348
329 332 334 334 334 335 334 339 338 337 336 334 334 335 332 332 331 334 330 329 331 333 333 334 337 341 350 353 355 359 360 360 360 360 361 361 360 356 354 350 352 351 349 347
329 332 333 337 337 335 341 338 337 338 338 343 341 340 339 338 332 330 333 333 336 336 339 340 344 346 352 354 356 357 359 360 361 361 360 359 355 353 354 356 351 351 349 347
330 333 332 334 336 341 338 338 338 342 344 344 342 340 339 340 332 329 341 342 343 342 343 344 347 349 354 354 355 357 358 359 357 356 357 356 354 354 354 353 348 347 348 345
331 331 331 333 336 341 338 341 339 338 340 343 342 341 340 339 340 342 345 345 346 347 348 348 350 353 354 357 357 358 357 356 356 356 355 355 354 350 350 347 348 346 347 343
331 331 337 342 340 338 335 335 335 337 339 341 342 342 342 342 343 345 347 348 349 351 354 355 354 356 357 357 358 359 357 357 355 355 349 347 345 347 346 345 347 343 343 343
328 328 341 342 338 336 334 332 333 335 338 341 343 344 345 345 344 344 345 346 346 347 350 352 354 354 356 356 355 355 350 351 352 348 349 348 346 346 344 344 343 342 342 341
325 328 340 342 336 337 334 332 332 332 333 335 336 337 338 342 345 346 346 347 348 349 350 352 353 353 353 352 351 352 351 350 348 344 344 343 343 342 341 340 341 340 338 337

GFSCGP_850_thetae_030.txt.gz
Theta_e
327 327 328 328 330 333 334 339 340 344 342 342 349 348 347 341 345 342 341 342 343 344 344 346 347 348 348 349 350 350 352 351 354 353 353 349 351 349 347 344 352 351 348 348
328 327 327 329 331 333 335 338 342 344 345 346 344 351 349 346 345 344 343 342 342 342 344 345 347 348 348 349 350 351 352 352 351 353 350 350 349 350 351 351 349 349 350 348
327 327 327 328 330 333 334 337 340 343 345 343 343 344 346 348 347 345 345 344 343 342 342 346 347 348 348 349 351 351 352 353 352 351 351 353 355 351 355 355 352 351 349 346
328 328 327 327 330 333 334 335 338 342 344 346 343 346 349 347 351 347 345 344 345 343 343 343 347 349 349 349 351 352 352 352 352 349 355 351 350 353 349 346 346 347 350 348
328 327 327 327 328 332 334 335 337 338 342 346 348 348 348 349 349 350 346 345 345 346 344 343 346 348 349 350 353 353 354 353 351 346 356 355 353 347 350 347 348 348 347 343
329 328 328 328 328 330 333 335 336 337 339 345 347 344 348 349 349 346 346 343 347 345 346 344 344 347 350 350 353 354 355 354 352 351 348 356 357 351 350 349 348 350 346 343
329 329 329 328 328 329 331 334 338 340 342 341 343 349 349 346 346 345 344 344 347 348 346 346 345 346 350 351 351 355 357 355 354 353 350 348 353 356 349 352 351 353 347 346
330 330 329 329 328 329 330 332 338 342 343 342 341 344 349 347 344 342 342 343 345 347 347 348 347 346 349 350 351 352 356 356 355 351 352 349 347 351 350 348 355 351 349 345
332 330 330 329 329 328 329 331 332 335 337 340 341 341 343 345 344 345 344 342 341 344 347 347 348 348 348 350 351 351 354 356 355 353 349 350 345 346 346 346 352 354 348 346
330 331 331 330 330 329 329 330 331 333 340 343 341 343 345 349 346 344 343 343 341 341 346 347 346 348 348 348 350 351 351 353 355 353 348 346 346 344 345 345 350 349 353 347
329 332 331 332 331 329 328 328 329 332 336 340 342 343 343 345 348 347 344 342 341 339 344 347 346 346 347 346 349 350 351 352 354 354 348 345 346 346 344 348 349 351 350 351
329 329 333 331 332 331 329 330 329 331 340 336 338 341 339 346 346 346 343 341 340 338 338 340 346 347 347 346 347 349 351 352 353 353 351 343 345 348 347 343 348 348 350 350
332 330 333 332 331 332 331 329 328 328 329 338 338 338 339 341 341 341 341 339 339 339 338 340 345 347 348 347 346 347 347 351 354 358 350 349 346 349 348 341 339 346 346 345
332 330 333 332 333 332 334 331 330 329 330 332 336 338 339 342 343 343 339 339 338 337 338 340 340 345 348 349 348 348 349 350 352 358 354 347 354 348 345 345 347 344 342 342
329 332 331 331 329 331 332 332 330 331 332 333 333 339 338 339 343 341 339 338 338 337 338 338 341 343 343 351 350 350 350 351 352 356 357 356 353 352 350 353 354 353 350 346
330 333 330 331 330 330 332 332 332 332 331 331 332 333 335 338 338 342 337 337 339 337 335 340 341 344 340 350 352 351 352 352 351 353 354 354 359 358 358 358 358 358 357 355
331 330 335 334 332 331 332 334 333 331 332 331 332 334 336 336 338 342 340 336 341 339 335 337 345 345 346 351 352 354 353 354 352 351 352 354 357 359 359 359 359 359 358 357
334 334 332 334 335 336 332 332 332 333 331 330 331 332 333 335 334 332 332 335 337 338 337 336 335 345 347 350 354 356 356 355 355 353 356 356 359 360 361 361 360 360 359 358
329 333 331 335 333 332 332 333 333 333 336 333 333 334 333 330 330 332 330 331 332 333 335 337 336 335 344 350 352 355 359 357 357 358 358 361 361 364 363 361 360 359 357 356
327 334 334 334 333 334 335 332 333 333 337 337 335 336 334 336 335 334 331 330 330 330 330 335 334 334 334 346 352 355 357 361 359 361 359 363 364 365 362 359 360 356 356 355
328 331 331 332 333 332 332 333 336 340 343 344 341 340 338 340 341 341 338 335 329 329 330 330 330 337 336 347 354 357 358 362 362 363 364 364 365 363 361 360 354 353 353 351
330 331 330 333 336 335 335 338 338 346 345 345 344 342 341 340 339 338 339 335 341 342 342 340 340 339 349 351 354 360 363 364 363 364 365 365 363 361 359 353 347 348 349 350
329 328 331 334 335 342 336 343 342 341 341 343 342 341 340 340 339 336 346 346 345 346 348 348 345 349 358 357 357 362 363 363 363 363 363 362 360 355 353 354 353 351 348 347
332 330 334 333 333 340 338 336 339 340 341 342 342 341 341 341 340 343 347 349 349 351 354 352 354 358 360 360 361 362 363 362 361 360 359 356 353 353 353 348 347 348 346 345
330 329 333 337 344 339 338 337 338 339 342 343 346 347 349 350 351 351 352 351 352 354 357 357 358 359 362 362 362 361 360 358 357 356 355 355 352 351 348 348 346 345 344 342
326 327 332 342 330 332 338 336 338 338 339 340 342 344 346 348 348 349 350 350 352 354 355 356 358 359 360 360 357 355 355 354 353 352 352 350 349 348 347 346 345 344 341 341

GFSCGP_850_thetae_033.txt.gz
Theta_e
325 324 324 323 323 325 328 329 330 338 342 344 346 343 340 339 339 340 344 344 345 344 344 345 345 347 348 348 349 350 350 351 352 352 351 346 346 347 348 345 348 352 350 350
324 324 325 326 326 326 327 329 330 343 342 341 345 345 341 341 340 340 342 343 343 344 344 345 345 346 347 347 348 348 349 350 351 353 352 350 345 348 345 345 348 347 349 347
324 324 326 326 326 327 327 328 331 344 343 342 342 346 343 339 341 342 341 343 343 344 344 344 345 346 346 347 348 348 349 350 350 353 353 351 348 348 349 351 351 349 348 349
325 325 327 326 325 326 326 329 332 342 342 346 343 353 347 343 344 343 343 341 342 343 343 344 346 346 348 348 348 349 350 351 351 351 351 350 349 356 353 354 351 349 347 349
325 326 326 325 325 325 327 330 332 332 341 343 343 346 348 347 349 345 343 341 341 342 343 344 345 346 347 348 348 348 350 350 350 350 351 347 349 352 351 350 345 348 352 350
326 328 326 325 326 325 326 328 329 331 333 343 342 346 343 341 349 346 343 344 342 342 342 342 345 345 347 348 348 348 349 350 350 350 347 348 349 349 348 346 348 347 348 347
325 326 326 327 324 324 324 323 328 331 333 334 341 343 344 340 342 347 345 344 344 343 342 342 345 347 348 348 348 348 349 350 351 351 344 346 353 352 347 351 350 349 348 349
327 326 326 327 325 323 323 323 326 331 334 334 334 345 343 342 342 344 345 345 344 345 344 343 343 346 348 348 349 350 351 351 351 352 348 343 352 353 351 352 353 352 351 350
327 327 328 327 327 325 324 324 324 325 329 332 334 334 339 342 341 341 341 342 342 342 346 345 344 344 347 348 349 350 352 352 352 352 353 346 342 351 350 349 350 352 353 350
325 328 327 328 327 326 324 325 324 325 327 332 333 334 339 343 342 342 341 342 342 342 345 347 345 344 345 347 348 350 350 351 352 352 353 352 344 344 345 346 348 348 353 351
324 325 327 328 327 325 323 324 322 324 327 328 332 333 334 340 342 343 342 342 343 343 343 346 347 346 345 346 349 349 350 351 353 353 352 352 351 341 345 345 345 344 353 352
325 325 326 327 328 327 326 323 321 324 327 328 327 329 332 339 342 342 342 341 342 342 343 343 347 348 347 346 349 349 350 351 351 352 352 351 351 347 342 344 345 342 342 351
326 326 325 326 326 327 327 326 324 323 321 324 328 330 330 332 340 342 341 340 342 342 341 342 345 348 349 348 348 350 349 349 349 350 351 350 349 350 342 341 344 344 342 339
333 326 325 326 327 328 330 327 326 324 323 322 324 324 328 336 339 338 339 340 340 340 339 340 347 347 349 349 348 349 349 348 347 348 349 348 347 347 342 340 342 346 345 345
322 326 327 326 328 329 328 329 328 326 325 324 323 324 326 328 338 338 339 339 338 338 340 339 346 347 347 348 347 347 349 349 346 346 346 345 343 343 343 342 342 344 348 347
318 328 330 329 328 327 328 328 328 328 327 326 326 327 329 328 339 340 339 338 339 341 340 339 343 348 348 347 347 346 347 350 347 345 345 345 339 341 342 343 343 345 350 352
319 322 329 328 329 330 329 327 327 329 329 328 327 326 328 328 332 335 339 338 337 337 338 338 337 340 346 347 346 347 346 348 348 345 346 348 345 341 343 343 347 353 355 356
321 321 326 328 330 332 330 328 328 329 331 329 328 327 328 328 332 336 335 337 337 337 337 337 338 338 338 341 344 347 348 347 347 348 348 349 349 350 350 353 354 359 360 360
322 322 327 329 329 329 331 330 332 329 329 331 332 329 329 330 330 329 329 330 332 336 334 338 339 339 339 344 342 349 350 349 349 349 350 350 350 352 354 357 360 361 362 361
322 322 327 327 328 329 330 331 330 330 332 340 336 332 329 329 327 327 338 336 333 330 332 333 334 333 341 342 345 347 353 352 351 351 351 351 352 353 355 358 361 362 362 362
323 325 328 329 327 328 331 329 329 332 334 344 342 342 341 340 342 339 336 335 334 333 331 330 330 328 334 338 346 351 353 354 354 353 354 352 354 355 357 361 363 362 361 359
329 329 329 328 332 333 339 333 342 345 344 344 343 341 341 340 339 337 341 342 342 342 341 340 334 330 331 331 339 345 350 351 357 356 361 359 361 362 363 364 364 360 359 356
328 330 333 333 332 339 339 340 340 341 344 342 342 340 339 340 338 345 346 346 345 344 343 345 344 341 339 338 338 339 347 353 360 361 362 364 367 368 367 365 361 356 353 354
328 326 332 333 332 332 333 333 337 339 342 347 350 349 348 350 349 349 348 348 351 352 349 346 350 346 349 354 351 352 359 360 363 363 366 367 366 365 363 360 354 348 351 351
328 327 327 331 330 333 336 332 334 337 346 348 349 350 350 348 350 350 350 351 355 356 357 356 356 359 360 359 362 363 363 364 364 366 365 364 362 359 354 353 349 347 348 347
325 326 328 331 328 331 330 326 332 344 343 346 347 347 348 350 350 351 352 355 355 356 356 359 362 362 363 363 364 364 364 362 359 357 356 358 355 353 350 348 345 346 345 343

GFSCGP_850_thetae_036.txt.gz
Theta_e
322 321 324 321 319 321 322 323 324 328 336 341 340 340 343 345 347 347 347 347 347 346 345 345 346 347 349 347 346 346 349 349 349 349 348 343 344 343 345 348 349 351 349 348
319 320 321 322 322 322 322 323 324 339 342 342 342 341 339 338 345 346 346 346 346 346 346 346 345 346 347 347 348 348 347 349 350 349 350 350 347 340 343 347 346 348 348 348
319 321 323 324 324 324 322 322 324 328 341 341 343 344 341 338 338 340 345 345 344 345 345 345 345 345 346 347 348 348 348 348 349 350 351 351 350 343 344 346 346 345 346 346
319 321 323 323 324 324 322 324 325 328 336 341 339 344 343 341 338 337 340 343 343 344 344 344 345 346 346 346 347 347 348 348 349 349 350 352 351 344 346 347 347 348 349 348
323 323 323 323 323 324 323 324 325 328 338 339 341 341 340 343 343 338 339 340 342 343 343 343 344 345 345 345 346 346 347 348 348 348 349 350 351 346 346 348 350 350 350 350
323 325 324 324 324 324 324 322 323 325 330 339 338 343 343 344 343 341 340 340 341 342 342 343 343 344 345 345 345 346 347 348 348 349 350 349 348 348 347 350 350 348 345 348
324 324 323 324 322 322 322 319 321 323 324 328 335 343 342 341 343 342 342 342 341 341 342 342 343 344 345 345 346 346 347 348 348 349 349 349 347 345 347 352 350 347 345 347
324 325 323 323 324 323 319 320 320 321 325 326 328 342 341 338 340 343 344 344 343 340 341 342 343 343 344 345 346 347 347 348 348 348 349 349 346 342 345 348 349 347 349 348
322 324 325 324 324 324 321 319 319 319 324 326 328 333 334 337 337 341 344 345 343 341 340 341 341 342 343 345 345 346 347 347 347 347 349 350 347 340 345 346 346 349 350 349
321 323 323 326 323 323 323 318 320 315 320 322 324 330 332 336 339 339 343 344 343 341 341 340 341 341 343 343 344 345 346 347 347 347 348 350 350 341 340 345 348 351 352 352
322 320 323 324 325 324 322 320 318 318 319 323 323 325 326 329 336 339 342 345 343 341 342 342 341 341 343 344 346 345 346 347 348 348 349 350 351 348 341 341 348 350 350 350
318 319 322 322 322 324 325 323 319 322 319 320 324 326 328 327 334 338 339 342 342 341 342 344 343 345 342 343 345 346 346 347 347 348 349 350 351 351 347 341 340 344 348 349
320 320 321 319 320 322 323 323 322 314 316 322 324 324 324 324 337 339 339 340 341 342 341 343 344 343 342 342 344 345 346 345 346 349 350 350 351 351 351 347 340 339 341 346
317 320 320 324 323 323 323 325 322 321 321 321 322 322 323 325 333 336 340 341 342 343 342 341 343 345 346 345 345 345 345 345 347 348 350 350 351 350 349 348 345 338 339 342
314 317 318 319 323 324 325 326 325 322 322 323 321 319 320 320 325 333 339 340 341 341 341 341 341 341 343 345 345 346 345 346 347 348 349 349 350 349 348 347 346 341 340 341
313 317 318 325 324 324 325 325 326 325 324 323 320 321 319 321 323 327 335 340 339 338 339 340 339 340 343 344 346 346 346 346 347 348 348 349 349 350 349 346 344 345 340 341
314 315 317 322 324 324 325 326 326 325 324 323 322 321 321 323 328 329 335 338 336 337 339 339 339 339 343 345 347 347 347 347 348 348 348 349 348 348 348 348 345 342 343 343
316 317 317 320 323 325 324 325 326 324 325 326 323 322 323 323 326 329 329 329 336 336 337 338 341 343 344 345 347 347 347 348 348 350 351 349 349 347 348 348 347 344 343 345
316 319 319 322 324 325 328 327 325 325 326 326 327 324 323 326 327 330 333 331 333 337 336 336 337 340 346 345 346 347 347 347 349 350 350 349 348 347 347 348 347 346 346 347
318 320 321 322 325 327 326 328 326 326 327 333 327 326 326 323 326 322 330 329 330 331 333 334 336 337 338 336 338 346 346 346 346 347 347 349 348 348 347 348 350 351 352 350
326 324 323 322 327 323 325 326 326 327 326 340 337 330 327 331 325 336 336 334 331 328 329 330 335 336 336 340 344 346 344 346 344 345 345 349 350 348 347 348 353 354 357 358
327 329 330 326 327 328 330 333 326 327 342 340 339 338 337 338 338 339 338 338 338 334 332 332 331 333 334 335 334 340 345 342 343 348 348 347 349 349 351 352 355 358 358 359
326 327 330 330 334 328 330 328 328 339 340 342 340 339 338 338 345 344 344 343 342 341 338 336 334 331 331 330 330 331 333 338 343 349 349 349 351 352 354 356 359 360 358 359
326 325 330 329 330 328 330 326 330 341 349 350 343 340 340 347 348 350 351 349 345 342 340 341 342 339 335 332 332 332 336 342 349 353 354 354 354 355 356 360 360 359 357 357
326 326 326 328 327 328 329 325 328 345 348 349 350 351 351 350 353 353 354 353 351 348 343 343 344 343 339 338 339 342 345 346 357 358 361 360 361 361 362 364 363 360 355 353
324 324 327 329 324 328 326 325 326 331 335 342 348 349 350 352 354 354 355 355 353 348 349 352 355 360 360 360 357 353 357 358 357 361 362 359 358 359 359 359 357 352 347 338

GFSCGP_850_thetae_039.txt.gz
Theta_e
323 321 322 320 319 320 322 323 324 325 325 339 337 342 348 347 346 348 349 349 348 347 348 347 346 345 346 345 347 346 345 347 348 347 346 350 351 348 346 348 347 347 347 347
319 323 321 321 320 321 320 321 321 325 336 336 338 341 347 346 345 345 346 347 347 346 346 347 346 346 348 346 348 347 346 347 348 350 349 347 345 347 347 346 345 347 349 348
320 320 320 322 321 321 320 320 321 323 335 340 340 341 345 346 346 346 346 345 345 345 345 345 346 346 347 348 347 346 346 346 347 348 349 348 348 346 343 343 345 345 346 346
317 319 320 321 322 322 321 321 323 323 329 334 338 343 341 343 343 343 346 346 346 345 344 344 344 344 344 346 346 346 346 346 346 347 349 349 348 349 347 340 343 344 345 346
318 318 319 321 322 321 323 323 322 324 324 329 334 338 338 339 341 339 339 345 345 345 345 344 344 344 344 345 345 346 346 347 347 347 348 349 348 349 348 341 344 345 345 348
320 321 319 320 321 322 322 323 321 322 322 329 328 338 340 342 340 338 336 340 344 344 344 344 344 344 345 345 345 345 346 347 347 347 348 349 348 348 348 343 346 346 348 348
320 319 321 321 320 320 320 317 319 319 321 324 322 334 335 335 339 339 338 337 340 343 343 343 343 343 344 345 345 345 346 346 347 347 347 348 348 348 347 343 343 347 349 349
322 323 321 320 321 321 319 320 316 319 321 322 323 330 329 334 336 340 340 339 338 340 342 343 343 343 343 344 344 345 345 346 346 347 347 348 348 348 348 344 340 347 348 346
321 322 322 323 321 322 319 320 319 316 320 320 323 328 332 334 335 336 339 339 339 339 340 341 342 342 343 343 343 343 345 345 345 346 346 347 347 348 349 341 339 346 343 347
320 323 321 322 322 320 322 316 319 311 319 321 319 324 329 334 335 334 338 340 340 340 340 340 341 342 342 342 343 343 344 344 344 345 346 347 347 348 349 344 339 342 346 347
317 319 322 322 321 322 318 320 316 316 314 321 318 321 323 329 332 333 335 340 342 341 342 341 340 341 341 341 342 342 343 344 344 345 346 347 347 347 349 347 338 342 343 345
316 313 321 322 321 323 322 321 319 318 317 316 321 320 324 325 325 330 334 338 340 343 342 341 341 341 341 342 343 342 342 343 344 345 346 346 346 347 348 349 340 339 340 346
320 317 316 317 318 318 321 320 320 319 315 321 320 320 319 323 328 331 334 336 338 342 343 342 341 340 340 341 342 342 342 342 343 344 345 347 347 347 347 349 348 339 340 345
314 314 316 319 319 319 319 321 321 319 319 321 322 322 322 324 323 327 336 338 339 343 343 342 342 340 340 340 341 342 342 343 343 345 345 346 347 347 347 349 350 347 339 339
312 315 316 317 318 320 319 322 322 319 322 322 323 319 319 319 323 326 330 336 338 340 341 341 343 343 342 342 341 342 343 344 344 345 345 344 346 347 347 349 349 350 347 340
309 316 315 318 320 322 322 321 323 323 323 320 318 318 317 319 321 322 326 329 336 339 340 340 342 343 343 343 343 344 343 343 345 345 345 345 346 347 347 349 349 350 350 349
309 313 316 319 318 319 321 322 322 323 323 323 320 319 318 318 318 319 323 324 328 332 338 340 340 341 341 342 343 344 344 345 345 345 346 346 346 347 347 349 349 349 350 349
309 313 315 318 319 324 323 322 323 322 322 320 320 319 320 320 323 325 326 328 327 329 335 338 341 340 340 341 341 341 344 345 344 345 346 347 348 347 349 349 349 350 350 350
309 311 317 319 320 321 324 324 323 322 322 322 321 321 320 323 323 323 327 329 329 328 329 336 341 339 339 339 338 340 343 344 344 345 346 347 347 347 350 350 348 349 351 351
310 310 318 317 321 324 325 332 331 326 324 322 322 322 322 321 321 324 326 327 327 328 329 333 337 339 339 338 339 341 342 344 345 345 345 346 347 349 349 347 348 349 350 350
312 313 317 321 322 321 331 331 331 326 327 326 329 324 322 322 325 330 329 329 330 331 331 336 335 337 337 338 339 339 343 341 341 346 347 347 349 350 350 351 353 352 351 354
321 321 322 321 324 325 329 331 332 327 327 329 335 329 325 328 329 329 329 332 330 329 330 332 333 333 336 338 340 337 338 336 336 342 346 347 347 350 352 354 355 356 356 356
321 323 324 323 325 326 328 329 327 327 328 329 341 335 331 331 333 335 337 337 334 332 330 328 330 334 336 341 340 339 338 338 340 341 343 343 341 343 343 348 350 353 354 357
318 319 322 324 329 329 329 328 329 329 332 347 343 338 339 340 341 342 343 343 341 341 342 342 342 340 337 334 332 337 342 340 339 336 338 343 344 347 351 354 355 357 358 361
312 320 321 321 327 329 328 327 326 326 330 347 348 348 347 346 348 350 350 347 345 338 332 332 334 338 341 343 343 345 346 342 342 347 349 348 348 350 352 357 359 361 359 360
318 323 324 325 325 328 326 325 326 326 329 343 350 352 353 354 355 356 356 357 355 353 354 350 349 348 350 351 352 352 351 354 356 354 355 354 353 353 357 359 354 359 357 352

GFSCGP_850_thetae_042.txt.gz
Theta_e
323 321 320 320 318 321 323 322 324 323 324 335 334 337 346 347 348 348 347 346 347 347 343 345 345 345 345 345 346 343 341 342 338 336 339 347 346 345 347 348 347 347 345 345
317 322 321 320 319 320 320 321 321 320 322 332 333 336 347 346 347 348 348 347 346 346 346 345 346 346 346 345 343 343 342 344 338 342 345 345 347 346 345 347 346 347 346 345
322 320 321 321 320 321 319 320 320 322 328 337 337 338 348 346 345 347 348 348 347 347 346 346 346 346 346 345 346 344 345 344 344 343 347 347 347 347 347 349 348 346 345 346
318 320 323 320 321 320 318 319 321 321 323 323 337 343 340 347 347 344 345 347 347 347 347 346 346 347 346 346 345 346 345 346 344 345 347 348 348 347 346 345 345 346 344 344
319 318 319 323 323 320 322 320 320 322 322 323 327 337 335 343 348 346 344 344 345 346 346 346 346 345 345 344 345 346 347 346 346 345 346 347 348 347 347 347 346 342 341 344
318 318 319 318 319 320 321 320 316 317 318 323 322 327 328 340 346 346 344 345 345 344 344 345 344 343 345 345 345 345 347 346 346 346 346 347 347 347 348 348 348 340 342 344
318 319 319 318 318 319 320 318 318 319 320 323 319 329 327 334 338 342 343 343 344 345 345 344 344 344 344 344 343 343 344 345 346 346 346 346 346 347 347 347 345 341 344 345
318 319 318 318 318 318 318 317 316 319 318 323 320 324 325 329 336 338 339 341 341 342 345 345 345 344 342 341 342 342 343 344 345 345 346 346 347 347 347 348 346 340 343 345
317 319 320 319 319 319 317 318 316 315 317 316 319 321 326 328 328 334 337 338 337 338 340 344 344 345 344 342 341 341 342 341 344 344 345 346 347 347 347 347 348 344 339 344
320 321 319 319 320 319 317 317 319 312 320 320 317 321 324 329 329 330 332 336 338 338 337 340 342 343 343 343 343 342 341 341 342 343 344 345 345 346 346 347 347 346 341 342
314 317 321 318 320 322 317 316 315 317 313 318 317 319 319 326 327 327 329 334 336 338 339 339 339 341 341 342 343 342 342 342 342 342 344 344 345 346 346 347 346 348 342 338
319 311 318 319 320 321 322 321 313 320 316 313 314 319 319 321 325 327 329 331 333 336 339 340 340 340 341 341 342 342 342 342 342 342 342 343 344 345 345 346 346 347 347 338
317 315 314 318 319 319 319 319 316 314 312 321 317 319 319 318 321 323 327 331 334 334 337 340 340 339 340 340 341 341 341 341 341 342 343 343 343 344 344 345 346 346 348 341
314 313 314 319 319 316 316 320 318 318 319 321 321 319 321 321 319 321 325 328 328 330 336 339 341 340 340 340 340 341 341 341 342 342 342 342 343 343 343 344 346 346 346 348
310 315 316 315 317 318 319 319 320 320 320 320 321 320 319 319 321 322 323 328 331 330 335 338 341 341 341 340 341 341 341 341 342 342 343 342 342 343 343 344 345 346 346 347
306 313 314 317 318 319 319 319 320 320 320 320 320 319 318 320 321 322 324 326 329 330 330 331 339 341 342 341 342 341 341 342 341 341 342 342 343 343 343 344 345 346 346 347
307 310 315 317 317 318 319 320 320 319 319 320 321 320 319 318 318 319 323 325 325 327 327 327 331 339 342 342 342 342 342 342 341 342 342 343 343 343 343 344 345 345 346 347
307 310 313 316 317 321 318 319 321 321 320 319 319 320 321 321 323 325 326 326 326 326 326 326 327 330 338 342 342 343 342 342 342 342 343 343 343 344 344 345 345 345 346 346
307 308 312 318 317 318 319 329 332 330 322 321 319 320 320 322 322 321 324 324 326 327 327 327 328 329 333 341 344 343 342 342 342 342 344 343 343 344 346 347 347 346 347 346
308 308 310 314 319 321 322 329 330 330 329 326 327 323 321 319 320 322 326 325 326 326 326 328 329 328 336 336 341 341 340 340 341 342 342 342 343 344 346 346 347 348 348 347
308 310 311 313 319 319 323 329 329 328 328 328 329 328 327 319 323 328 328 327 327 327 328 327 328 329 333 339 340 340 338 338 339 338 340 341 343 344 345 348 349 350 352 352
311 312 311 311 318 320 326 329 332 327 328 329 331 332 331 333 325 327 328 328 329 328 328 328 329 331 335 336 339 339 339 339 340 341 342 343 344 345 347 348 349 351 350 350
315 315 317 313 315 318 328 327 328 328 329 329 329 335 340 342 334 325 326 328 330 331 330 331 334 334 334 336 339 341 342 343 343 345 346 346 348 350 351 350 352 354 356 357
311 313 318 318 320 326 328 327 326 328 333 333 334 341 344 332 329 333 342 345 346 348 343 336 331 331 335 335 338 340 343 344 343 341 342 343 345 349 352 355 356 356 357 358
310 309 312 316 315 323 328 326 326 331 336 333 337 343 348 344 348 350 354 354 354 352 351 347 347 348 350 351 348 346 342 339 339 340 340 345 348 346 347 349 353 357 358 357
308 310 311 313 315 318 325 325 328 334 334 331 336 348 352 352 354 355 355 355 354 353 352 350 351 350 350 348 346 345 346 347 347 349 351 352 352 350 350 351 354 356 354 353

GFSCGP_850_thetae_045.txt.gz
Theta_e
323 324 325 326 326 326 326 328 333 332 330 336 337 337 339 347 349 349 348 348 347 345 345 347 348 347 346 339 342 345 342 334 334 333 331 339 338 345 346 345 347 346 346 345
323 324 324 323 323 324 324 326 331 329 326 328 331 335 339 346 349 349 349 348 347 346 346 347 347 348 345 339 344 345 343 336 335 334 331 334 338 341 343 345 346 347 347 346
323 322 323 323 324 324 323 324 327 330 326 334 335 336 344 346 348 348 349 348 347 347 346 346 347 345 346 344 344 344 340 337 339 337 335 333 335 345 346 344 344 346 347 347
321 322 323 323 324 324 324 323 323 327 329 332 338 339 344 346 350 349 349 349 348 347 347 346 346 347 345 344 344 344 342 341 340 343 337 338 342 345 346 346 345 345 347 347
322 323 324 324 323 324 323 323 324 325 329 329 330 334 336 345 350 350 348 349 348 348 347 347 346 343 344 344 344 345 345 343 343 342 341 339 344 347 347 346 343 343 345 348
323 320 323 325 324 324 325 324 324 324 327 330 331 332 335 342 348 349 347 347 348 348 348 348 347 346 342 344 345 345 345 345 345 345 344 343 344 346 347 347 346 346 346 343
323 321 323 323 325 324 324 325 326 327 327 329 330 329 331 333 339 343 347 346 346 347 348 348 348 347 345 343 342 344 345 345 346 345 345 345 345 345 346 346 347 347 347 342
323 323 322 322 324 324 325 324 323 326 326 326 327 330 331 331 330 337 338 342 345 346 346 347 347 346 345 344 343 343 342 342 343 345 346 346 346 345 346 346 346 347 347 342
323 323 322 321 323 324 324 326 324 323 322 324 327 328 328 330 332 332 339 340 343 345 346 346 346 346 345 344 344 342 341 339 340 342 343 345 346 346 346 346 346 347 348 343
323 324 323 322 322 323 323 324 322 324 324 324 325 327 329 333 332 334 337 340 340 342 344 345 346 346 345 345 344 344 342 340 338 338 341 342 344 345 345 346 346 346 347 347
321 323 324 323 323 323 321 324 323 324 323 323 323 324 328 333 335 334 335 336 337 338 339 341 343 344 345 345 345 344 344 342 340 339 340 341 342 343 345 345 346 346 346 347
320 320 327 325 324 324 323 324 324 325 326 323 324 324 326 329 332 334 333 333 335 337 338 339 339 341 344 344 344 343 343 343 343 341 340 340 340 341 342 344 345 345 346 346
318 322 326 326 325 323 324 324 324 324 325 328 324 323 327 327 328 327 331 332 333 332 336 336 339 339 339 341 342 342 342 341 342 343 342 341 341 341 342 343 344 344 345 346
316 319 324 327 326 322 324 324 325 324 327 326 327 325 326 327 328 329 328 328 330 331 330 333 336 338 338 339 341 341 341 341 341 342 342 342 342 341 341 341 343 344 344 345
315 318 317 318 318 320 321 322 322 324 326 329 327 328 327 327 329 330 329 329 328 332 333 329 332 333 338 339 339 340 340 341 341 341 342 342 342 341 341 342 342 343 344 344
312 315 317 316 317 319 321 321 322 322 323 323 324 326 327 327 326 328 327 327 329 329 327 329 329 333 337 340 340 340 340 340 341 341 341 342 342 342 342 342 342 342 343 344
312 313 316 317 317 319 321 322 322 323 323 323 325 326 326 326 327 329 328 328 328 326 327 327 330 329 330 333 340 341 341 340 340 341 341 341 342 342 342 342 342 342 343 343
311 314 318 315 317 320 322 322 326 324 323 323 324 324 325 326 326 326 325 326 328 326 326 326 326 326 326 329 336 341 341 341 340 341 341 341 341 342 343 344 343 343 343 343
309 312 313 314 317 318 319 321 331 332 328 330 326 325 325 324 325 328 326 325 325 326 327 328 327 327 326 326 329 338 341 341 340 341 341 342 342 342 343 343 343 343 345 344
310 310 313 314 314 317 321 322 323 331 329 332 333 332 331 330 328 328 326 325 325 326 327 327 327 326 326 327 329 335 338 341 341 342 342 342 342 342 342 342 343 344 345 345
312 311 312 312 315 316 318 325 331 337 330 333 335 335 336 337 330 326 326 326 325 325 326 326 327 326 328 328 331 332 336 338 343 342 341 341 342 342 343 346 347 348 350 352
315 315 314 312 313 313 316 327 329 332 331 332 334 336 336 336 337 337 327 327 325 325 326 327 326 327 327 327 328 333 336 337 339 340 340 340 341 343 345 345 347 350 350 351
315 313 316 313 313 314 315 319 326 329 330 331 333 336 337 337 339 341 341 336 332 326 329 327 326 326 327 330 334 335 336 337 338 338 338 340 342 343 345 347 349 352 351 352
311 312 315 315 315 317 316 317 321 327 328 330 333 336 338 341 341 345 342 339 346 338 333 330 329 332 334 335 336 338 340 340 341 342 343 342 343 344 347 350 353 355 355 355
310 311 313 313 312 312 315 317 321 327 328 331 334 339 342 342 346 339 345 349 350 348 341 337 337 344 344 345 342 340 339 340 341 343 344 345 345 346 347 350 354 356 355 356
309 311 312 312 312 314 315 316 321 324 328 333 335 340 341 345 347 349 352 354 359 358 353 351 349 348 347 347 347 347 347 347 346 345 345 346 347 347 347 348 351 354 356 354

GFSCGP_850_thetae_048.txt.gz
Theta_e
328 331 330 329 330 331 334 335 337 339 340 339 341 342 341 341 348 349 350 350 348 345 344 345 345 345 346 346 347 348 347 345 343 341 344 343 342 343 344 348 350 347 344 346
326 329 327 327 326 328 330 332 335 337 336 335 339 340 339 339 346 347 350 350 349 348 345 345 345 345 345 347 348 349 344 342 336 341 341 342 343 343 345 349 351 345 346 346
326 326 325 326 328 329 330 332 332 335 336 334 335 337 338 340 343 346 348 349 350 349 346 345 345 346 345 346 348 349 345 346 340 343 345 344 343 345 347 349 351 351 346 347
326 325 325 326 326 327 329 329 330 330 333 337 336 342 341 340 344 346 347 349 349 349 348 345 344 346 345 346 348 349 351 348 349 338 345 343 341 343 345 349 350 350 352 350
326 326 325 326 325 326 327 328 328 329 330 332 335 337 338 340 342 346 347 348 348 349 348 347 344 344 345 347 349 350 352 347 349 342 342 347 342 342 347 350 351 351 351 344
324 323 325 325 325 325 325 326 327 328 329 332 333 336 337 338 342 342 345 346 348 348 348 348 345 344 346 347 349 350 352 341 342 342 338 344 345 344 349 352 352 353 352 352
324 324 325 325 326 326 325 327 327 328 329 332 333 335 336 336 337 340 342 343 347 348 348 348 349 345 345 347 348 350 350 343 342 342 342 341 341 339 345 352 353 351 350 350
327 326 325 326 326 327 326 327 326 330 330 330 331 333 335 335 334 334 338 340 346 348 349 348 349 349 348 347 348 350 350 344 344 344 344 344 344 344 349 350 351 352 351 349
328 328 326 326 326 327 327 329 326 327 328 329 330 331 332 333 334 334 335 336 339 343 348 349 349 350 350 350 349 349 345 339 340 343 344 345 344 345 351 349 348 352 352 351
328 330 327 325 326 326 327 327 326 327 328 329 328 329 331 332 333 334 335 335 337 338 344 347 349 349 350 351 351 352 347 339 335 338 341 342 344 344 345 346 346 347 350 349
327 328 330 326 326 327 326 327 327 326 326 328 329 329 330 331 333 333 334 333 336 338 342 347 348 348 350 350 351 353 354 349 343 341 338 339 341 342 342 344 345 345 346 346
326 328 331 328 327 326 327 327 328 328 329 328 328 329 328 329 330 332 332 332 335 337 339 343 345 347 348 349 350 350 352 354 353 346 341 338 337 338 340 341 343 344 345 346
325 326 331 331 329 327 327 327 327 327 328 331 329 327 330 331 331 331 332 333 334 335 337 339 340 341 344 347 349 349 350 351 353 354 351 342 339 338 339 338 339 341 343 345
318 327 330 332 331 329 328 327 326 327 331 329 330 330 329 328 329 330 331 331 332 334 336 337 339 339 340 343 347 349 349 350 352 353 354 349 342 339 338 338 338 340 341 343
318 326 326 328 325 325 329 328 328 329 329 330 330 331 330 330 330 330 330 330 332 334 335 336 340 341 343 344 346 349 349 348 350 351 351 344 342 342 341 340 340 341 341 342
316 322 322 325 323 323 325 326 327 328 329 329 330 331 331 330 329 330 329 329 329 329 329 332 337 340 344 347 349 350 349 348 348 349 346 341 342 342 342 342 342 342 342 342
314 317 320 325 324 324 326 326 327 327 328 329 330 330 330 330 330 329 329 329 329 329 330 332 336 339 342 346 346 342 345 349 349 346 344 343 344 343 342 342 343 342 342 344
314 316 317 322 324 326 326 327 327 327 327 328 328 328 329 329 328 328 328 328 329 329 330 332 333 334 340 341 342 348 349 348 343 341 342 343 343 343 344 343 342 342 343 343
311 315 317 320 322 324 325 324 325 327 329 328 328 328 328 327 326 327 326 328 329 330 330 331 331 331 332 335 339 345 347 350 350 343 341 341 342 342 342 342 342 343 349 351
311 312 316 317 320 323 323 324 323 326 329 329 332 333 333 330 330 330 327 328 330 329 329 330 330 331 332 333 337 343 347 345 340 342 342 341 341 341 341 342 345 350 350 355
312 313 313 315 317 319 321 324 329 330 338 335 336 338 340 340 337 335 335 336 336 335 334 332 333 333 331 335 339 339 344 337 332 341 344 343 343 342 342 345 349 352 353 355
315 314 313 313 315 316 316 318 327 330 330 332 332 333 335 337 338 340 340 339 338 336 337 333 334 334 335 337 328 328 330 328 334 339 347 343 343 345 350 344 352 355 356 355
313 313 317 314 314 314 315 317 318 319 321 324 328 329 330 332 335 337 342 345 343 342 340 335 338 334 337 333 328 327 327 329 335 341 345 346 345 346 349 354 352 356 357 357
311 311 314 315 315 316 315 315 317 319 320 321 325 328 328 330 332 337 345 347 346 345 340 342 340 336 345 338 329 330 332 334 337 342 343 342 342 349 350 357 358 358 358 358
312 313 313 315 315 314 314 315 315 315 322 323 325 328 330 331 334 339 346 349 347 344 354 350 350 354 354 340 338 338 337 339 338 339 342 349 354 346 357 359 360 360 359 359
310 312 313 314 313 314 314 313 316 317 317 317 319 324 328 333 336 342 349 351 353 353 353 355 356 358 362 357 345 356 343 342 348 351 356 357 358 359 360 356 357 359 360 360

GFSCGP_850_thetae_051.txt.gz
Theta_e
330 334 335 334 338 339 337 336 339 342 343 344 345 346 347 347 348 349 351 350 348 346 345 345 345 345 345 346 347 349 349 349 350 350 349 347 345 345 344 343 347 351 353 354
333 335 333 333 334 339 338 337 338 340 343 344 344 344 345 344 346 346 349 350 350 348 346 344 345 344 345 346 346 348 349 349 348 349 348 346 344 344 344 345 349 353 354 354
332 333 331 332 331 336 339 336 337 339 340 342 340 342 343 342 340 345 346 349 350 350 347 344 345 345 344 345 347 349 349 348 346 348 348 347 345 344 345 345 349 352 354 355
330 329 329 330 329 330 331 332 334 335 339 343 340 342 342 342 341 344 346 348 350 350 349 346 344 345 345 345 347 348 349 347 347 343 349 347 346 344 344 346 348 351 353 354
330 328 327 328 329 329 329 331 333 334 335 338 340 341 340 342 343 343 345 346 348 349 350 348 345 344 344 345 346 348 350 347 347 349 344 349 347 344 345 346 348 350 352 352
331 329 329 328 328 328 329 329 331 333 334 335 337 341 340 341 344 343 344 344 346 348 349 349 346 343 344 344 345 347 350 349 345 352 339 346 348 345 343 346 349 352 353 353
328 330 329 328 328 328 328 328 329 332 334 335 335 338 339 338 339 341 343 343 345 347 348 349 348 345 343 344 344 346 349 351 348 346 349 338 342 346 344 346 351 352 350 350
329 329 329 328 328 329 328 328 329 332 332 333 334 336 336 336 336 337 339 341 343 346 347 348 349 347 345 344 345 346 350 351 350 346 342 338 338 350 348 347 353 353 351 350
329 330 329 328 328 329 329 329 328 329 331 332 332 334 334 335 336 337 337 340 341 344 346 348 349 349 347 346 347 348 350 350 347 335 336 339 340 340 349 348 348 353 354 351
329 332 330 329 329 328 330 330 328 329 334 333 332 334 335 335 336 337 337 337 340 344 346 347 348 349 349 348 348 349 350 353 341 336 337 340 341 342 343 348 349 354 353 353
329 331 333 332 329 329 329 331 329 329 329 331 333 333 333 334 336 335 336 335 337 340 345 347 346 349 351 350 349 350 352 353 351 341 338 338 340 342 343 344 345 345 349 351
329 330 333 333 330 330 330 330 331 333 333 329 331 332 332 333 333 334 334 335 335 338 340 342 345 348 350 351 351 352 353 355 355 351 344 341 342 341 341 341 343 344 344 345
328 330 334 335 332 330 330 330 330 331 330 333 330 333 334 332 333 332 334 334 335 336 339 340 341 347 349 350 351 352 353 354 357 358 357 350 344 341 340 339 339 341 343 344
320 329 333 336 335 331 330 330 330 330 333 331 332 332 332 332 332 333 334 334 335 336 338 339 341 345 347 349 350 352 352 353 355 357 359 358 355 344 340 338 337 338 340 341
323 329 331 332 333 332 332 330 330 330 331 332 332 333 333 332 332 333 332 334 334 335 336 338 340 341 342 345 347 352 350 352 352 354 357 358 357 350 344 341 338 337 337 338
322 326 329 332 332 331 330 332 330 330 330 331 331 332 334 333 331 331 331 332 331 333 334 334 336 340 341 342 344 347 353 350 352 353 355 357 358 356 352 346 341 339 336 336
319 323 328 331 331 330 331 331 331 331 331 330 331 332 333 333 333 332 332 332 332 332 332 332 333 336 340 341 346 348 350 355 353 352 356 356 358 357 356 352 349 344 339 338
317 320 323 327 329 334 331 331 330 330 331 331 331 332 333 332 332 331 331 332 332 332 332 332 332 334 337 339 342 348 350 355 354 355 353 357 357 357 356 353 352 350 349 345
315 317 322 325 329 330 330 329 330 330 331 330 331 331 331 330 330 330 330 330 330 330 331 332 332 332 333 334 338 342 351 352 355 353 354 353 358 355 355 351 352 351 350 350
314 315 318 323 326 330 329 329 326 330 333 331 331 331 331 331 332 333 333 335 338 336 336 336 333 333 333 334 334 336 344 350 351 344 347 353 356 356 348 346 350 349 349 349
314 315 316 318 323 325 326 327 328 329 341 338 336 337 338 338 341 341 340 340 340 340 339 339 339 337 336 337 336 335 337 347 332 355 356 355 351 353 349 350 351 348 349 358
319 316 317 317 319 322 322 322 326 331 329 327 331 333 335 335 334 335 336 338 340 344 343 341 339 339 338 338 337 336 338 336 344 346 351 355 354 353 359 354 355 353 353 354
315 318 318 318 318 319 318 319 319 320 321 324 325 326 327 331 331 332 334 335 341 346 348 346 343 340 339 342 338 340 333 340 342 345 346 353 357 356 356 359 357 361 360 361
314 314 315 316 317 318 317 317 317 318 318 320 320 326 328 330 331 332 334 337 342 349 350 349 346 343 341 343 345 343 341 350 341 342 343 352 357 354 356 362 363 363 362 362
312 313 314 314 314 313 314 315 316 316 317 318 319 322 322 323 324 330 332 337 344 352 351 349 351 351 347 350 356 355 353 343 351 354 357 358 359 359 361 360 361 361 360 360
311 313 313 314 313 315 315 314 315 315 315 316 319 319 319 320 322 326 332 336 348 352 355 354 355 355 359 360 362 361 359 358 357 359 358 358 357 362 361 361 359 360 361 360

GFSCGP_850_thetae_054.txt.gz
Theta_e
332 334 337 336 337 338 340 338 340 341 341 347 344 351 347 344 343 346 349 347 346 346 346 347 347 347 347 347 347 347 348 347 348 349 349 351 346 346 345 344 344 349 349 353
334 334 333 333 335 337 339 339 337 338 342 344 344 352 347 343 347 348 349 349 347 346 346 347 347 347 346 347 347 347 347 347 350 348 350 347 348 346 345 344 344 347 350 350
334 334 332 332 333 334 339 340 339 337 344 344 345 346 351 349 351 351 350 350 349 348 347 346 347 347 346 347 347 347 348 349 348 350 349 349 347 346 346 344 345 348 350 354
334 333 332 333 333 333 334 338 339 338 344 347 344 350 350 345 345 347 348 350 350 349 348 346 346 346 346 347 346 347 347 348 349 348 349 348 345 346 345 346 345 348 350 348
336 334 334 333 333 333 333 334 339 338 337 339 345 346 341 344 344 343 346 348 348 350 349 348 345 346 346 346 348 347 346 347 348 345 349 348 347 344 345 345 345 347 352 352
335 334 333 331 331 332 331 331 333 335 335 339 338 343 345 342 345 344 343 346 348 348 350 349 347 345 345 346 348 350 348 348 346 344 339 349 348 346 344 346 346 348 349 352
334 336 332 330 329 330 330 329 332 332 336 337 336 337 342 341 343 342 344 344 346 349 350 350 348 346 345 346 347 349 350 349 348 344 337 336 347 347 346 343 345 347 352 353
332 334 334 331 330 329 329 329 331 335 335 335 335 338 338 340 340 341 343 343 344 346 350 350 350 347 345 345 346 347 349 348 347 343 337 332 337 341 340 343 344 347 353 351
333 332 332 332 330 330 329 329 329 329 331 333 333 335 335 338 338 339 337 342 344 345 348 350 351 348 345 345 346 346 348 346 346 341 337 336 335 336 334 335 342 351 350 352
329 332 331 331 331 329 330 330 329 330 332 334 332 337 338 338 340 339 338 338 342 344 347 349 350 350 347 345 345 346 346 347 345 344 338 335 333 333 334 336 338 342 355 354
327 330 330 332 332 330 329 331 329 328 330 331 333 334 337 341 339 339 338 338 338 343 345 348 349 351 349 346 346 347 347 347 348 348 345 337 333 332 333 335 335 340 343 352
328 328 331 330 332 331 330 330 331 334 334 332 332 333 334 337 339 338 338 338 337 339 344 347 349 350 351 349 348 348 349 350 349 346 348 346 340 336 335 337 339 340 345 347
323 329 331 331 333 333 332 331 330 332 331 335 333 332 335 334 335 337 337 336 337 338 344 347 348 349 350 351 350 350 351 352 354 356 354 353 347 340 342 340 339 342 343 344
320 326 331 334 334 334 333 331 331 330 335 332 333 333 334 334 334 334 336 335 336 339 339 347 348 346 349 351 352 351 352 353 354 356 359 358 354 352 351 344 339 337 340 341
323 329 331 332 332 334 332 330 331 333 333 334 333 336 336 337 335 335 337 337 338 339 339 342 344 347 348 352 352 352 353 353 354 356 358 359 359 357 357 353 347 345 342 338
320 327 329 332 332 333 335 332 331 332 331 331 333 334 335 336 335 335 336 335 336 336 337 339 340 341 348 351 351 353 353 354 354 355 356 358 358 359 359 358 355 354 352 345
319 322 327 331 332 333 335 334 333 332 332 332 334 336 338 337 337 337 335 334 333 333 335 334 334 336 339 343 351 353 352 352 354 355 355 357 358 358 357 357 357 357 355 350
316 320 323 329 331 337 334 333 333 333 333 332 333 333 334 336 334 334 333 333 333 334 333 333 334 334 335 339 343 345 350 355 354 353 355 356 358 359 359 357 358 357 356 352
316 317 322 327 330 332 333 333 333 332 333 332 333 334 333 333 333 334 332 332 333 333 333 333 333 333 334 339 339 345 346 346 350 356 354 355 356 358 359 358 358 358 357 355
315 317 319 324 327 331 332 331 331 332 333 340 333 332 332 332 333 343 342 342 342 343 342 341 341 339 338 337 337 343 346 347 348 345 346 356 356 358 358 359 358 358 356 353
315 316 318 321 324 328 328 327 329 333 344 334 335 336 340 340 340 339 338 339 339 342 344 345 343 341 338 336 336 336 345 349 338 339 345 347 352 356 361 361 361 360 359 358
319 316 317 319 322 326 324 324 333 334 328 327 330 329 330 333 334 334 334 335 337 340 344 348 347 345 341 338 337 338 334 334 346 345 344 345 347 354 359 363 362 361 362 362
317 319 319 320 320 322 318 320 320 322 323 323 324 323 327 331 332 333 333 335 336 340 343 351 351 350 345 342 339 344 339 334 344 351 349 345 350 353 355 363 363 363 364 363
314 314 315 317 318 318 317 317 318 318 319 320 320 321 322 327 326 326 326 328 333 337 339 350 357 351 350 347 341 343 342 341 340 346 354 350 353 356 358 359 364 364 365 364
312 313 313 314 315 315 315 315 315 316 317 318 318 319 320 323 323 323 323 324 327 334 337 350 354 355 357 354 348 346 351 349 345 361 357 355 357 361 363 362 367 366 365 366
312 313 314 316 314 316 316 315 315 316 316 317 317 318 318 321 321 321 321 322 324 333 334 346 349 353 358 360 360 360 357 358 355 353 359 361 358 363 364 365 362 365 366 365

GFSCGP_850_thetae_057.txt.gz
Theta_e
330 330 330 330 331 333 338 340 340 340 343 345 346 347 347 347 347 348 347 345 347 350 350 350 350 350 347 346 346 344 346 345 346 347 337 336 340 346 345 344 344 344 348 348
330 332 331 331 332 333 335 336 338 337 338 343 348 349 347 344 344 343 345 346 346 348 348 349 349 349 350 347 345 345 344 345 347 347 345 336 339 345 342 343 344 344 349 348
330 332 332 332 333 334 334 335 336 338 336 342 348 350 348 344 344 345 347 347 347 347 347 348 347 347 347 346 346 345 345 345 346 347 347 344 343 345 345 344 341 344 347 346
330 331 333 332 332 332 333 334 336 338 339 344 340 351 348 348 348 344 346 348 347 346 346 348 347 346 347 346 346 346 346 345 346 347 347 345 338 342 344 345 343 343 345 347
328 332 331 332 331 330 330 331 333 335 338 339 342 343 351 347 347 346 346 349 343 347 346 347 347 347 347 347 347 346 346 346 346 347 346 343 340 339 342 347 346 344 345 348
328 331 332 331 331 331 331 331 331 331 334 338 334 342 341 347 346 346 348 349 348 348 346 346 347 347 347 347 347 346 346 346 345 346 346 343 340 339 342 341 346 346 345 348
329 331 331 332 332 330 331 329 329 330 334 338 330 336 338 339 339 346 349 349 348 348 347 346 347 347 347 347 347 346 346 346 345 344 344 343 338 341 338 339 343 345 346 347
327 330 332 333 332 331 330 329 327 328 329 332 328 331 333 333 337 340 348 349 350 349 348 347 346 347 346 347 347 347 346 345 345 345 342 339 341 342 342 338 342 345 347 349
324 328 332 333 333 330 327 328 325 324 327 328 329 330 330 331 331 334 339 347 349 349 349 348 346 346 346 346 346 347 346 345 345 344 342 338 337 340 338 335 340 343 345 348
323 323 326 331 333 332 327 326 326 325 326 328 329 330 332 330 331 331 332 340 344 348 350 349 347 346 346 345 344 346 346 346 345 344 343 336 331 332 333 334 334 340 341 345
320 322 324 325 332 333 328 326 325 323 323 325 329 330 328 331 331 331 332 336 343 345 350 350 348 347 346 345 344 345 346 346 346 345 343 342 333 328 329 334 333 333 338 347
319 320 325 324 325 329 329 327 325 326 324 324 324 327 331 330 332 332 333 335 341 344 350 350 350 347 347 346 345 344 345 345 345 343 344 344 343 337 332 333 335 334 333 337
316 320 324 327 325 325 329 327 326 324 325 325 325 326 331 330 333 333 334 336 335 343 349 350 351 348 348 347 346 344 344 344 343 344 344 344 343 342 340 335 333 334 333 333
319 320 323 325 327 326 329 329 326 325 326 326 328 327 332 333 332 333 335 336 337 336 346 349 351 350 349 348 347 346 345 344 345 344 344 343 342 342 342 338 329 330 333 335
314 318 321 323 327 329 330 330 328 326 326 328 327 330 331 333 334 336 339 337 338 337 345 349 350 351 350 349 348 347 347 346 346 346 346 346 344 343 342 339 336 333 334 336
312 316 320 327 329 330 332 332 329 329 328 327 327 327 332 333 336 336 337 336 339 342 345 347 348 350 351 350 349 349 348 348 348 348 349 349 351 352 350 349 345 341 337 337
311 314 318 327 329 331 332 332 333 328 329 328 328 328 334 333 336 335 335 334 337 337 336 336 338 342 350 351 351 351 350 350 350 350 351 352 352 353 354 355 355 352 348 345
311 312 317 324 329 334 331 332 333 331 330 330 329 333 333 333 337 335 333 333 333 333 333 333 334 337 336 350 351 350 351 351 351 352 353 354 354 354 355 356 356 356 353 351
311 312 317 324 330 330 333 329 328 333 340 335 339 338 335 340 341 342 342 342 343 342 341 341 340 340 339 340 347 354 353 352 352 353 354 354 354 355 356 356 357 356 356 356
312 313 316 321 327 334 325 324 325 329 338 332 331 337 337 340 343 340 338 339 341 344 344 343 342 340 339 338 339 342 353 351 353 353 353 354 356 356 356 356 357 357 357 356
313 315 316 319 323 328 321 322 329 339 334 327 326 329 334 336 336 335 336 338 340 342 345 344 341 345 347 342 337 337 350 351 347 346 342 344 350 353 355 357 358 358 358 358
318 318 319 318 322 325 319 320 323 325 324 323 324 323 330 329 328 327 327 331 336 337 342 347 346 348 348 349 343 336 336 340 348 352 350 348 347 348 353 357 359 360 360 360
315 315 315 316 314 315 315 318 318 317 317 320 320 320 322 325 325 324 324 324 326 333 333 348 354 355 353 351 350 348 336 336 339 335 335 346 350 347 349 351 358 362 362 362
311 312 312 313 314 314 313 316 315 316 316 317 317 317 319 320 323 322 321 321 322 324 330 330 339 348 354 355 355 348 346 341 340 339 335 352 355 352 351 351 356 359 363 363
311 310 310 310 311 310 312 312 312 313 314 315 316 318 317 318 320 321 320 320 320 321 326 328 327 325 342 349 355 360 353 347 345 343 339 340 351 356 354 357 357 360 363 363
308 309 310 310 308 307 308 309 310 310 311 313 315 316 318 318 319 320 319 319 319 319 322 330 331 326 332 348 351 357 363 360 358 356 349 356 360 359 359 359 358 359 365 365

GFSCGP_850_thetae_060.txt.gz
Theta_e
321 320 320 319 319 322 330 333 336 336 344 350 350 346 345 343 345 350 350 350 349 348 346 348 345 345 344 347 347 346 344 344 344 344 343 342 345 346 345 346 344 343 344 347
326 326 323 324 325 326 329 332 335 336 336 342 349 349 347 343 342 348 350 351 350 349 348 347 346 345 344 346 347 347 345 343 344 344 341 336 343 343 343 345 345 344 344 348
326 329 328 330 329 329 329 330 332 334 335 344 347 350 346 342 344 346 347 348 349 350 349 349 348 347 344 346 346 347 346 345 345 343 343 339 335 337 343 344 344 343 345 349
322 326 329 330 331 329 330 330 332 334 335 341 345 353 348 346 346 344 344 345 346 346 349 349 349 349 347 346 344 346 347 345 344 344 342 345 336 332 332 335 341 344 343 349
322 326 329 330 331 330 330 330 331 332 332 334 341 348 347 346 346 344 342 344 345 346 347 349 349 349 349 349 345 345 346 344 344 344 343 344 344 332 332 335 342 342 342 346
322 323 327 329 330 330 330 328 327 327 326 331 332 339 340 347 345 342 340 343 345 347 346 347 348 349 350 350 349 348 345 344 344 344 343 343 343 339 335 338 343 345 343 343
320 323 324 326 329 329 329 326 328 328 329 330 327 332 336 345 343 342 342 341 343 347 346 346 347 346 347 348 348 348 345 345 345 345 344 342 342 341 335 336 341 344 344 344
320 322 323 326 328 329 327 328 328 331 328 330 327 332 333 336 343 342 343 342 342 347 345 345 346 347 346 347 346 346 346 346 346 345 345 342 339 341 339 335 337 341 344 345
320 323 326 326 327 329 329 328 326 323 322 324 326 328 327 326 332 334 342 343 343 346 346 345 345 347 347 346 346 346 346 346 346 345 345 342 339 338 339 335 337 337 341 343
317 319 321 323 325 329 330 325 327 319 330 327 323 326 330 327 327 326 340 343 345 347 347 346 345 346 346 346 346 346 346 346 345 345 344 344 341 339 335 335 335 337 339 344
315 316 321 320 322 325 331 330 324 324 319 326 324 326 324 326 326 327 333 345 346 348 348 347 346 346 346 346 346 346 346 346 345 345 344 344 343 340 338 335 333 334 337 340
315 317 319 320 321 322 327 327 324 325 322 319 321 326 325 325 326 326 327 342 347 348 348 348 347 345 346 346 346 346 345 346 345 343 344 344 343 342 339 335 332 331 332 337
315 320 322 322 321 322 322 324 320 317 319 320 324 326 323 323 326 327 329 330 345 348 348 348 347 346 346 346 346 346 345 345 345 344 343 344 344 344 341 336 333 330 330 332
314 316 319 321 319 319 321 322 323 321 322 321 323 325 323 324 325 329 328 330 340 347 348 348 348 346 345 346 346 346 345 345 345 344 343 342 343 342 341 337 334 331 329 331
313 314 313 312 314 318 322 323 327 323 323 324 323 323 323 322 325 330 330 332 338 345 347 349 348 346 346 346 346 346 346 345 344 344 344 342 339 340 339 337 335 334 333 332
310 313 310 311 316 321 325 327 329 328 324 323 323 324 324 324 332 332 335 337 337 346 348 349 348 347 347 347 348 347 346 346 345 345 344 344 344 342 340 339 337 334 334 334
309 310 311 314 321 325 330 326 330 328 324 323 325 323 329 331 332 334 334 336 338 344 348 349 349 348 348 348 348 348 347 346 346 346 346 345 345 345 345 345 343 341 339 337
310 310 310 313 321 332 326 322 323 332 330 328 331 335 333 339 340 341 343 342 341 340 343 345 349 349 348 347 347 348 347 347 347 347 347 347 347 347 348 349 351 352 350 349
309 311 312 315 325 327 326 322 323 323 329 324 329 338 339 338 339 339 342 346 348 349 345 341 340 346 349 349 349 348 347 347 347 347 347 348 348 349 349 350 351 352 353 354
309 311 312 313 322 334 319 319 322 327 329 324 323 328 331 335 338 332 338 339 345 350 348 346 342 340 339 340 349 352 351 350 349 349 348 349 350 350 351 352 353 353 354 354
311 312 315 315 320 326 316 318 320 328 326 321 322 324 324 326 326 326 330 334 335 343 351 350 344 342 344 339 338 346 356 353 352 352 351 351 351 352 353 354 354 355 355 356
315 318 317 316 320 326 313 316 320 316 315 315 317 318 322 323 322 322 323 325 330 335 340 346 351 349 346 342 338 337 339 344 345 353 356 354 354 355 356 356 356 357 357 358
314 312 314 312 315 311 309 314 315 315 313 313 314 315 316 319 322 321 321 321 322 328 332 331 334 348 349 345 339 340 343 339 340 339 338 351 353 352 352 353 354 356 358 359
309 309 309 309 311 308 308 308 312 312 310 311 311 312 316 317 320 320 320 320 320 321 324 328 327 330 342 350 352 350 350 347 344 338 336 337 334 338 347 353 353 352 354 357
308 308 309 308 308 308 309 309 308 309 309 310 311 311 314 316 320 319 319 318 319 319 319 320 324 323 323 340 350 354 358 360 354 349 346 343 340 338 347 355 354 352 352 354
306 308 310 310 308 308 308 309 311 310 312 312 312 312 313 314 316 317 318 317 317 317 317 318 319 321 319 321 334 343 347 349 354 361 359 357 353 348 344 351 358 355 353 352

GFSCGP_850_thetae_063.txt.gz
Theta_e
317 315 316 316 316 320 325 330 331 332 335 347 348 346 348 350 349 348 347 348 348 347 347 348 348 347 345 344 345 341 342 342 341 343 343 343 345 345 344 344 344 344 344 345
318 317 317 317 317 318 319 322 326 330 343 345 347 347 345 350 350 349 348 348 348 348 347 347 348 347 346 345 344 342 342 343 343 343 342 341 343 345 345 345 344 344 344 344
323 323 321 321 320 320 320 322 325 331 342 345 347 352 346 345 346 350 350 349 348 347 347 347 347 347 346 347 345 343 342 343 343 343 343 343 342 343 344 345 344 344 343 344
321 323 325 324 325 324 324 325 328 330 333 341 345 348 346 345 345 342 345 350 349 348 347 347 348 348 345 346 346 346 344 345 344 343 344 344 341 339 342 344 343 344 344 343
322 321 323 327 327 328 327 327 328 329 331 332 343 346 346 344 347 343 343 348 350 349 349 348 346 346 346 346 345 344 345 344 345 344 343 344 341 335 334 339 340 344 344 343
319 322 322 324 327 328 329 328 328 327 329 333 331 343 335 346 345 344 342 345 346 349 349 349 348 347 346 345 345 345 344 345 345 345 344 344 343 339 336 332 334 340 341 342
320 319 320 323 325 326 328 324 328 328 328 332 325 330 333 340 342 342 342 343 344 345 347 348 349 348 348 347 346 345 343 345 344 346 344 344 343 341 339 337 333 336 342 341
319 321 319 321 323 325 327 327 327 329 327 330 324 328 330 333 341 342 342 342 343 344 345 346 347 349 348 349 348 347 347 343 343 346 346 344 344 343 338 340 338 335 341 343
319 321 318 319 320 323 325 328 325 324 321 321 325 325 326 328 331 339 342 341 341 342 344 345 346 347 348 348 349 348 349 349 346 345 345 344 344 344 340 336 337 334 337 341
316 317 318 318 319 322 324 323 327 320 331 329 324 325 330 327 326 338 340 341 341 340 342 345 345 346 346 347 348 348 349 348 348 347 345 344 345 344 341 335 335 335 335 338
314 315 318 317 320 320 323 326 323 324 322 330 327 328 320 325 326 326 334 340 341 341 341 345 345 345 346 346 347 347 348 347 347 346 345 345 345 344 343 338 334 334 333 334
314 314 318 318 318 318 319 319 326 327 325 318 322 329 323 322 323 323 325 330 334 340 341 344 345 344 345 346 346 346 347 347 346 345 345 345 345 345 344 342 336 334 332 333
313 318 317 319 318 316 316 317 317 319 317 321 324 328 321 320 322 324 325 328 339 341 342 344 345 344 345 345 346 346 346 346 346 346 345 345 345 345 344 343 341 338 334 333
314 313 314 319 317 314 315 314 314 318 319 329 324 325 322 321 320 320 323 326 328 338 343 345 346 346 345 345 345 346 346 346 346 346 345 345 345 344 343 343 342 339 335 335
311 313 314 313 312 313 313 313 315 317 321 320 326 321 321 319 320 321 327 329 331 330 343 346 346 346 345 345 345 346 346 346 346 346 345 345 343 342 342 342 341 339 337 334
307 311 311 313 313 313 314 315 318 321 323 323 321 321 320 329 338 338 334 332 328 335 344 346 347 347 346 345 346 346 346 346 346 346 345 345 344 343 340 340 339 338 337 335
306 311 312 312 312 312 322 322 326 327 325 325 323 326 327 339 341 340 340 340 334 339 345 346 347 347 346 346 345 346 347 347 346 346 346 345 344 344 342 339 339 338 337 336
306 311 313 311 312 323 323 319 322 324 323 323 327 334 338 339 337 335 337 339 343 340 344 345 347 347 346 346 345 346 346 346 346 346 346 346 345 344 344 344 343 341 340 340
308 311 313 313 316 320 323 319 318 323 321 317 321 324 329 338 338 334 333 339 342 348 344 346 347 347 346 346 345 345 345 346 346 346 346 346 346 345 345 345 345 345 346 346
309 310 313 315 317 337 320 316 314 319 324 316 316 316 322 330 332 325 327 336 344 352 348 346 347 348 347 346 346 346 346 346 346 347 347 346 346 346 346 347 347 348 348 350
311 312 313 314 319 323 316 312 316 328 320 315 314 313 315 321 322 321 325 333 332 342 352 351 346 346 346 347 348 347 347 347 347 347 346 347 346 347 347 347 348 349 350 351
313 314 316 315 321 327 310 312 320 316 314 313 312 311 312 315 320 320 320 322 327 331 341 350 353 353 351 350 350 350 349 349 349 349 349 349 350 349 349 349 350 351 352 353
313 310 313 310 312 311 309 309 309 312 310 310 310 311 311 312 317 319 318 319 319 321 328 329 344 351 353 351 348 348 347 347 345 347 351 356 357 356 355 355 354 354 355 356
309 308 309 309 309 308 308 310 310 310 310 310 311 312 312 311 315 317 318 317 317 317 318 324 326 338 346 352 354 353 350 345 341 339 341 342 343 349 354 356 356 357 356 355
308 307 308 308 308 308 310 309 310 311 312 314 314 314 314 313 312 316 318 318 317 317 317 317 321 321 326 335 346 352 354 353 347 343 342 342 342 343 344 349 355 356 357 355
305 308 310 310 308 309 308 309 313 312 315 316 315 314 314 315 315 312 317 318 318 317 317 317 317 319 321 321 323 334 344 348 351 353 351 349 349 350 349 348 343 346 354 356

GFSCGP_850_thetae_066.txt.gz
Theta_e
315 313 316 315 315 319 320 328 331 330 329 345 346 346 351 348 347 347 347 346 345 345 346 347 346 344 344 341 336 336 329 328 328 339 342 343 343 344 343 344 343 343 343 343
315 315 314 314 314 317 318 320 321 325 330 340 341 346 349 348 347 347 347 347 346 346 346 346 346 345 345 344 340 341 332 331 334 337 338 341 340 344 345 343 343 343 343 343
315 316 316 315 315 315 315 318 320 328 333 343 346 348 347 349 348 347 347 347 347 346 346 346 347 346 345 346 342 343 341 337 338 339 342 341 341 343 345 345 344 343 343 343
320 320 318 317 317 316 314 317 320 325 329 341 344 348 345 345 351 349 348 347 347 347 347 346 346 347 346 346 346 343 344 340 341 341 342 342 342 342 343 344 344 344 342 342
320 320 322 320 318 318 318 320 321 324 328 330 337 339 336 343 347 349 349 348 347 347 347 346 346 345 347 347 346 343 344 343 341 342 342 342 343 343 342 341 343 344 344 342
317 318 320 321 323 322 325 325 324 325 327 333 330 342 340 343 345 344 344 348 349 348 347 347 346 346 346 347 346 345 344 344 342 341 343 343 343 343 343 341 338 340 341 341
318 319 318 320 321 323 325 324 327 328 329 332 326 330 336 333 341 341 343 342 345 349 348 348 347 346 346 345 346 345 344 344 344 345 343 344 344 343 344 341 337 332 336 335
319 319 319 317 320 322 324 324 326 330 327 330 323 329 331 329 330 339 341 342 342 345 349 348 348 348 346 345 346 346 343 344 344 344 343 343 345 343 344 343 340 334 330 331
317 319 316 318 317 319 323 327 323 324 320 322 324 323 324 326 328 335 339 341 342 344 346 348 349 348 348 346 344 345 344 344 344 343 342 343 343 345 344 343 343 338 333 331
315 309 315 316 317 319 319 321 326 320 332 331 324 323 330 326 328 327 338 340 341 343 344 345 347 348 349 349 347 346 346 346 346 345 343 343 343 345 345 344 343 340 335 332
312 312 311 315 318 319 319 320 321 323 324 331 328 329 320 325 326 326 331 337 340 341 342 343 344 345 346 348 348 347 347 347 347 347 347 346 344 344 345 344 344 343 337 334
313 310 315 315 316 316 317 319 317 322 324 318 325 329 324 322 322 323 325 335 337 340 340 341 343 344 345 346 347 347 346 347 347 347 348 348 347 345 345 344 344 344 341 336
310 312 313 313 315 313 315 314 311 311 311 322 326 327 323 325 321 322 324 326 333 339 340 339 341 343 344 345 346 346 347 346 347 347 347 348 346 346 345 344 344 344 343 337
312 307 310 313 315 313 314 314 313 313 316 318 324 325 323 322 321 321 322 324 325 328 333 338 340 343 343 343 344 345 345 346 346 346 347 347 346 345 344 344 344 344 343 341
308 308 310 310 312 313 313 314 314 314 314 317 320 322 322 321 321 322 330 334 333 329 329 338 340 343 343 344 344 344 344 345 345 346 346 346 346 345 345 344 344 344 344 342
305 305 310 309 311 312 313 313 315 316 316 315 318 320 323 335 338 337 337 339 340 337 331 331 336 342 343 343 344 344 344 345 345 345 345 345 345 345 345 342 341 342 342 342
307 307 310 310 310 311 316 316 318 320 318 322 324 324 327 338 332 327 327 332 338 342 339 330 333 339 342 343 344 344 344 345 345 345 346 345 345 345 344 342 342 341 340 340
306 307 308 311 310 319 318 319 320 319 317 316 317 317 335 334 330 327 326 328 334 338 342 339 335 341 342 343 344 345 345 345 345 346 346 346 346 345 345 344 343 342 340 339
304 307 310 312 313 316 319 318 316 318 319 315 314 314 316 326 331 329 325 328 334 339 347 342 344 344 345 345 344 344 345 345 345 346 346 346 345 344 345 345 344 343 342 340
305 306 309 316 314 324 322 314 312 315 321 314 313 312 312 322 324 322 320 330 339 342 346 343 345 345 345 345 345 345 345 345 346 346 346 346 346 346 346 345 345 344 344 344
308 310 310 312 315 316 311 310 311 326 319 313 311 310 311 313 316 319 318 322 329 337 346 347 345 346 345 345 345 345 345 346 346 346 346 346 346 346 346 345 346 346 346 346
311 312 312 314 313 319 308 309 315 311 310 312 311 311 311 312 315 317 317 317 320 328 344 352 351 348 345 344 345 345 346 346 346 346 346 346 346 346 346 346 346 347 347 347
310 309 312 310 311 309 308 308 309 311 311 311 311 312 312 312 313 316 318 317 317 318 325 334 348 355 352 347 344 344 344 345 345 345 347 346 346 347 348 348 348 349 350 350
307 307 309 309 309 308 308 309 310 310 311 312 312 313 314 313 313 314 317 318 317 317 317 323 331 336 346 353 354 352 348 348 349 350 350 351 352 353 352 353 352 353 353 353
307 307 308 308 308 308 308 309 309 311 312 313 314 314 314 314 315 314 315 317 317 317 317 317 319 322 325 331 343 350 354 353 349 348 348 348 349 352 355 356 356 356 355 354
306 306 308 309 307 308 308 310 311 312 312 314 315 316 314 314 314 314 314 317 318 317 317 317 317 317 317 321 325 330 337 347 352 353 353 353 353 351 348 345 344 346 348 349

GFSCGP_850_thetae_069.txt.gz
Theta_e
317 320 320 319 320 321 324 326 326 333 336 338 342 349 353 350 347 347 347 346 346 345 345 346 346 345 340 337 333 329 327 326 326 330 335 341 344 343 343 344 344 344 343 344
317 318 318 318 318 319 322 325 329 330 330 337 339 342 348 351 350 348 346 346 346 346 346 346 347 346 345 338 337 330 328 328 326 337 337 341 342 342 343 343 344 343 342 343
320 321 318 317 318 319 320 322 326 328 330 334 342 343 349 351 350 350 348 347 346 346 346 347 347 347 346 340 338 331 329 328 328 333 340 341 341 342 343 343 343 343 342 343
321 320 318 318 318 319 320 320 322 324 327 338 343 347 351 351 353 351 350 349 348 347 346 346 347 347 346 343 340 336 332 332 328 330 330 336 339 340 340 343 344 344 343 342
324 323 320 320 318 318 319 319 319 321 325 329 332 348 345 349 354 353 350 349 349 348 347 347 347 347 346 345 343 340 336 340 332 331 335 339 342 341 340 341 342 344 344 344
325 320 323 322 321 319 319 323 321 321 322 328 331 335 343 344 348 349 350 349 349 348 348 348 347 347 347 346 343 345 341 341 342 337 338 340 341 342 342 342 342 342 342 343
320 321 320 322 324 323 322 323 328 326 325 327 331 333 336 338 342 342 346 349 349 349 348 348 348 347 347 347 346 344 345 343 343 342 340 341 342 342 342 342 343 342 340 339
322 322 321 321 322 324 325 327 325 329 326 325 330 335 336 334 334 339 342 344 347 350 349 349 349 348 347 346 345 344 345 346 343 343 342 341 341 342 343 343 343 343 341 336
321 321 317 319 320 323 325 329 327 327 326 328 328 332 332 331 334 334 335 340 343 345 349 350 349 349 348 346 345 344 344 345 345 343 343 342 342 341 342 343 343 343 343 340
315 312 314 318 318 321 324 325 329 329 328 331 329 331 333 335 334 333 336 337 339 342 344 348 349 349 348 348 345 343 343 343 344 343 343 343 342 342 342 343 344 343 343 342
311 311 310 314 320 323 323 324 325 328 329 330 332 330 330 332 335 335 335 336 339 342 343 345 349 349 348 348 348 345 342 342 343 341 341 342 342 342 342 342 344 345 344 343
313 313 312 311 316 317 317 322 324 328 332 331 330 331 330 331 331 330 331 332 336 340 342 344 348 350 350 349 348 347 345 342 342 343 344 344 344 343 343 343 343 344 344 344
313 314 310 308 316 317 319 318 318 319 321 329 332 331 331 331 331 330 329 329 331 339 342 344 345 347 349 349 348 347 348 347 344 344 345 346 347 347 346 345 344 344 344 344
312 313 313 312 315 313 317 317 316 318 325 326 328 330 330 331 331 331 329 326 326 329 338 341 343 345 346 347 348 347 347 348 347 346 346 346 346 346 347 346 345 344 344 344
313 311 310 309 309 309 310 312 314 317 320 324 326 328 329 330 329 338 337 339 339 339 335 336 341 342 342 345 346 347 347 347 347 346 346 346 346 346 347 347 345 343 344 344
311 310 311 309 308 312 312 311 313 315 317 319 321 324 325 328 337 335 334 334 338 340 342 340 339 341 342 342 344 344 345 346 345 345 345 345 346 346 345 346 346 345 343 343
311 309 310 307 311 313 314 315 314 315 321 323 326 325 325 334 337 333 333 333 336 338 339 342 345 341 339 339 341 342 343 344 345 344 345 345 345 345 344 345 345 345 344 342
309 309 310 309 309 314 320 320 320 320 320 320 322 322 321 333 333 328 326 328 332 335 339 340 342 344 341 341 344 343 346 343 344 344 344 345 345 344 345 345 344 344 344 342
308 310 309 309 310 313 317 315 317 320 320 317 318 318 316 320 327 330 322 322 325 333 338 341 343 340 336 343 343 342 344 345 344 344 344 345 344 345 345 345 344 343 343 342
308 309 311 309 312 315 317 313 312 314 325 316 315 315 315 323 340 325 319 319 325 331 340 344 344 343 340 343 345 342 344 344 344 344 344 345 345 346 345 345 345 343 342 341
308 310 310 310 310 312 311 309 311 324 322 312 314 314 315 319 317 317 317 317 323 328 337 340 347 348 347 344 344 343 343 343 344 344 344 345 345 345 345 342 343 345 345 345
309 310 310 310 310 312 309 309 313 310 311 312 313 314 314 316 315 314 316 316 318 327 340 341 344 346 346 345 344 344 344 344 344 345 345 345 346 346 346 346 346 346 346 346
311 309 313 311 313 309 309 309 308 309 311 312 313 314 315 316 315 315 315 317 316 317 327 338 344 346 345 344 345 346 344 344 344 345 345 345 345 345 346 346 346 346 346 347
307 304 309 309 310 309 309 309 309 310 310 311 313 314 315 315 315 315 314 317 317 316 316 318 329 341 347 348 345 344 344 344 344 344 345 345 345 345 345 346 346 347 348 348
304 304 306 308 307 307 309 309 310 310 311 314 315 316 315 315 314 314 314 315 318 317 316 316 314 315 321 336 347 351 349 348 346 345 346 345 345 346 347 348 349 350 349 351
305 306 307 310 307 308 309 308 309 309 310 311 313 314 315 316 315 315 315 314 314 316 317 316 316 315 315 315 319 331 343 350 353 354 355 356 354 347 352 353 354 355 355 355

GFSCGP_850_thetae_072.txt.gz
Theta_e
319 322 322 323 323 324 324 325 326 332 342 346 348 352 354 351 351 352 351 350 348 348 348 348 347 345 343 344 344 342 342 342 339 340 342 345 346 347 350 350 345 345 345 343
321 321 323 322 323 323 323 325 326 331 337 343 346 348 349 354 351 351 352 351 348 348 348 348 348 347 344 344 344 343 339 335 330 340 343 345 347 348 349 350 346 346 343 343
324 324 322 322 322 322 323 324 326 328 334 339 344 347 345 348 351 349 351 351 349 347 348 348 348 348 346 344 345 344 327 326 326 340 341 346 349 350 350 349 348 346 343 344
324 325 323 322 322 322 323 323 323 326 331 340 341 348 347 345 352 351 350 350 350 348 348 348 348 348 347 346 346 346 341 326 326 327 342 346 346 345 345 347 348 348 344 345
324 325 325 324 324 323 323 323 323 323 327 333 342 347 344 347 351 352 351 350 349 349 348 348 349 349 348 348 346 347 345 331 328 327 337 345 344 342 345 346 349 349 349 344
326 324 325 325 325 323 322 322 322 323 323 328 334 340 344 349 350 352 350 350 350 350 349 349 348 349 350 349 347 346 347 333 329 328 328 332 341 343 347 347 346 347 348 349
325 326 326 325 325 324 323 322 327 324 323 323 328 334 339 340 346 347 350 350 350 350 350 350 349 348 349 350 349 348 347 340 331 333 329 329 331 342 351 350 348 346 346 346
323 324 326 325 326 327 325 326 325 329 325 323 324 329 334 337 337 341 341 344 347 349 350 351 350 350 349 349 350 349 348 339 334 339 335 331 334 345 348 347 347 348 346 345
322 322 323 323 325 325 328 327 327 327 330 330 326 326 331 334 336 338 338 341 344 347 348 349 350 351 350 350 349 349 348 344 339 337 340 339 336 340 347 347 348 349 349 348
317 317 320 323 323 324 326 328 329 330 331 332 330 328 328 333 337 338 338 337 339 341 346 348 349 350 351 351 351 350 350 347 344 344 341 342 341 339 340 343 342 347 349 347
314 313 316 317 323 325 326 327 329 330 331 333 332 330 330 332 334 336 337 336 337 337 340 345 348 350 351 351 351 352 351 352 351 348 346 344 342 340 340 341 341 341 343 344
314 313 315 314 322 321 322 327 327 331 333 332 333 331 331 331 332 335 335 335 335 336 340 342 347 351 351 352 352 352 352 351 351 351 346 345 343 342 344 341 343 342 342 344
314 314 315 315 314 316 322 324 326 328 330 333 334 333 332 332 333 332 332 333 333 335 337 342 344 348 351 352 352 352 352 351 350 350 351 349 346 345 343 340 340 342 342 343
311 312 313 315 315 316 319 322 323 326 330 330 332 333 332 331 332 334 336 338 336 335 335 340 344 346 351 352 352 352 352 351 350 349 350 349 340 340 339 340 341 342 343 343
313 315 314 313 312 312 312 314 316 321 325 329 329 330 332 333 333 335 338 338 338 340 340 339 344 345 348 352 353 353 352 352 351 350 350 348 341 342 343 344 344 344 344 343
312 313 312 313 312 311 311 313 314 315 319 324 325 328 329 329 330 332 338 338 339 340 342 343 343 340 344 348 353 355 353 352 352 351 350 349 343 343 344 345 346 346 346 344
312 312 312 312 311 311 312 313 314 316 318 320 325 326 328 331 333 337 336 337 338 340 341 343 344 346 343 344 349 352 353 352 352 352 350 349 345 344 344 345 345 346 346 344
311 312 312 312 311 312 314 322 322 321 318 319 324 326 328 328 335 333 331 331 333 335 338 342 344 344 346 345 345 351 352 354 353 353 351 347 346 345 345 346 346 345 346 345
310 310 312 311 311 311 312 318 318 320 321 323 324 325 324 324 328 332 328 327 329 330 332 339 343 345 347 348 345 347 351 354 354 352 348 346 345 345 347 346 346 345 345 345
311 310 313 312 310 312 317 313 312 313 323 319 320 322 321 323 335 335 324 324 325 327 330 339 344 348 352 352 347 347 351 352 353 351 345 344 345 344 345 345 345 345 345 344
313 313 313 312 312 311 315 313 312 320 320 314 316 317 319 321 324 321 321 321 320 321 327 337 345 350 355 349 346 346 351 351 352 355 354 352 349 346 345 345 344 344 344 345
311 311 312 311 312 312 312 314 316 312 310 313 314 315 317 317 318 320 320 319 320 320 323 327 341 347 354 350 345 350 351 353 354 354 354 354 348 348 352 346 346 346 346 345
312 312 312 312 312 312 311 311 311 310 310 310 312 313 315 316 317 318 319 318 317 320 319 322 333 344 349 353 351 353 353 354 354 355 355 355 354 352 352 347 348 348 347 355
308 302 310 311 312 312 308 311 311 310 311 311 313 314 316 317 317 317 317 317 317 317 318 320 322 329 337 347 352 354 355 355 355 356 357 357 356 354 352 355 355 357 357 357
306 305 308 310 310 307 309 310 309 310 311 311 312 313 315 317 317 317 317 316 315 316 317 318 317 320 323 328 338 347 355 354 354 355 356 356 356 353 357 357 357 357 357 357
303 306 307 309 306 306 307 308 308 308 310 311 311 313 314 315 317 317 316 315 315 316 319 317 319 317 319 323 326 332 346 355 357 356 354 354 354 355 355 356 356 355 357 356

GFSCGP_850_thetae_075.txt.gz
Theta_e
327 326 327 328 328 326 327 327 327 331 339 344 346 350 357 352 352 353 353 352 350 350 349 348 347 346 344 343 345 345 345 344 346 347 347 347 347 348 348 348 352 350 353 352
326 326 326 326 326 326 326 326 327 328 331 343 346 347 353 353 352 352 352 353 350 350 349 349 348 347 345 344 345 345 345 344 345 345 345 346 346 347 348 348 351 352 351 353
328 326 325 325 325 325 326 326 327 328 331 336 343 347 353 356 354 352 352 352 350 349 350 349 349 348 346 344 346 346 344 345 342 343 344 346 347 349 348 351 350 351 352 352
326 326 326 325 325 325 326 326 326 327 329 338 340 347 347 358 357 352 351 352 351 347 350 350 350 349 347 345 346 346 345 344 340 340 342 345 347 346 347 348 347 351 351 352
325 326 327 327 326 325 326 326 325 325 327 331 336 341 341 347 352 352 351 351 351 349 348 350 350 350 349 347 345 347 346 343 342 335 341 344 346 346 346 346 349 349 350 352
327 324 325 326 327 327 327 326 326 326 325 326 332 338 341 344 347 350 350 349 350 351 349 349 350 350 350 349 347 347 347 344 336 335 335 343 344 345 344 345 350 349 351 351
324 327 326 326 327 327 327 328 328 327 327 326 326 332 342 341 345 346 350 350 350 350 350 349 350 350 350 350 349 347 348 347 334 333 331 342 343 340 346 348 347 347 346 347
323 325 326 327 327 328 328 327 328 330 328 326 326 328 334 338 343 344 348 349 349 350 350 350 350 350 351 351 351 349 349 348 341 330 328 329 333 344 344 350 348 346 346 345
320 323 325 326 327 327 328 328 328 328 330 329 327 327 328 332 336 342 343 348 349 350 351 351 351 351 351 351 352 351 350 349 347 337 329 328 329 333 345 348 346 351 348 347
319 321 324 325 326 327 327 329 329 329 332 332 331 330 327 330 334 337 340 344 345 349 349 350 351 351 351 351 351 352 351 352 348 345 335 331 329 329 340 348 349 350 349 349
317 318 319 321 325 326 327 328 330 331 330 332 333 333 332 330 333 336 337 339 341 343 346 347 348 351 352 352 352 352 353 353 353 351 345 341 337 334 331 346 348 348 352 352
317 317 318 318 320 321 324 327 328 332 334 332 333 333 333 332 331 334 336 337 338 339 342 344 347 349 351 352 352 352 353 353 355 354 350 345 342 340 342 337 344 348 348 350
317 317 318 317 317 318 322 325 328 328 331 334 334 334 334 333 333 333 334 335 336 337 338 339 343 348 350 352 353 353 353 353 353 354 354 352 349 347 344 344 339 342 344 342
313 316 318 318 319 318 320 320 325 328 330 331 333 333 335 334 335 337 339 340 340 339 337 340 343 346 350 352 354 354 353 353 354 354 354 354 354 352 348 346 341 340 341 338
313 315 316 317 317 317 317 319 322 327 329 331 331 333 334 335 334 339 340 340 339 339 341 339 342 344 347 352 354 355 354 354 354 353 353 353 355 353 353 348 346 343 341 340
313 315 315 316 316 316 316 316 317 319 321 324 328 330 331 329 332 334 334 340 340 340 342 344 344 345 347 350 353 356 355 355 354 354 353 352 354 355 352 349 348 346 341 339
314 315 316 317 315 316 316 316 316 316 318 320 325 328 329 330 331 337 339 338 338 339 341 344 346 347 347 346 350 355 357 356 355 355 354 352 354 355 351 345 343 341 340 341
312 314 315 318 316 317 315 317 319 320 319 319 321 323 326 328 330 330 337 334 334 336 337 338 342 346 347 346 345 348 354 357 356 355 357 354 354 355 350 349 345 343 343 343
311 311 316 316 315 315 315 320 321 322 321 326 321 321 324 327 327 329 331 332 330 331 333 335 338 343 347 349 349 348 350 355 357 357 356 357 355 356 355 347 345 346 345 345
312 312 313 313 315 315 319 317 316 319 321 323 322 323 323 324 330 332 328 327 327 329 331 333 336 344 348 350 352 351 349 352 358 357 358 359 357 358 358 352 346 344 345 345
315 316 315 314 314 313 316 316 314 321 321 317 317 318 319 321 322 323 324 326 325 327 327 331 334 343 350 354 358 356 350 351 354 358 359 359 359 359 359 359 356 350 346 355
313 316 317 316 315 314 314 315 316 318 317 315 315 315 316 317 318 320 322 325 324 324 324 329 331 340 347 357 361 355 352 351 354 357 359 359 360 359 360 358 358 358 355 353
314 311 313 314 314 312 314 313 313 313 314 313 313 314 315 317 318 319 320 323 322 321 322 325 327 332 342 350 358 351 351 355 354 357 358 359 359 359 358 359 359 360 359 358
310 307 310 311 311 312 312 312 313 312 312 312 312 314 314 316 319 319 318 321 321 319 320 322 325 328 330 342 352 355 358 357 357 358 358 358 358 358 357 361 361 360 360 360
308 306 309 310 310 307 311 308 309 309 310 311 311 313 313 315 316 318 319 319 319 318 319 322 324 325 327 331 343 353 356 357 357 357 358 359 359 359 359 359 359 360 358 358
304 304 307 308 304 304 305 307 307 308 309 309 311 313 313 314 315 316 319 318 317 318 320 321 324 318 320 320 332 345 353 354 355 356 357 359 359 360 360 358 359 359 359 357

GFSCGP_850_thetae_078.txt.gz
Theta_e
331 331 330 330 328 329 328 327 327 328 332 335 337 350 348 342 341 345 351 350 350 350 349 349 348 347 344 342 343 346 346 346 344 349 345 350 348 350 348 349 352 351 351 345
331 330 330 326 328 329 329 327 327 328 329 333 342 353 345 343 340 342 347 351 350 350 349 349 348 347 345 343 344 345 345 346 343 349 346 348 349 349 348 349 351 345 352 352
327 328 328 328 327 328 328 327 327 328 329 330 338 356 347 343 345 348 352 351 350 351 350 349 348 347 346 344 344 344 346 347 344 347 346 347 347 346 347 350 351 347 348 348
329 328 328 326 327 327 327 327 327 327 328 329 331 335 358 353 355 353 352 349 350 349 351 350 348 348 347 345 345 345 345 346 344 345 345 346 347 349 344 347 351 345 350 350
326 328 327 327 327 327 327 327 327 326 327 328 329 336 339 357 355 346 345 349 349 346 351 350 350 349 348 347 346 346 345 347 343 341 345 345 347 346 350 347 347 350 347 351
326 326 326 327 327 328 327 327 327 327 326 327 328 331 338 357 348 340 344 350 351 347 348 350 350 349 349 348 346 348 346 344 340 337 344 344 346 347 347 346 350 352 351 346
321 323 327 325 326 327 328 327 328 328 327 326 326 328 335 343 353 346 344 351 351 349 348 349 349 351 350 349 347 348 348 346 339 330 339 343 341 347 347 345 351 350 351 352
321 323 323 327 326 326 328 328 329 330 328 327 327 329 329 333 335 350 352 351 351 351 349 350 351 351 351 351 348 347 348 347 345 334 327 341 342 343 347 350 345 349 348 348
320 319 322 325 327 327 328 330 329 329 329 329 328 328 328 331 334 343 345 346 349 346 351 350 351 351 352 351 351 348 348 348 347 340 327 330 333 335 345 347 349 346 348 347
318 319 320 324 326 327 327 328 329 330 332 334 330 333 331 331 332 342 346 343 342 348 348 352 351 352 352 352 352 351 349 349 348 346 334 326 326 326 333 342 347 351 348 347
318 317 319 320 324 327 328 329 328 329 330 331 332 331 334 333 333 334 346 345 343 346 348 351 352 351 352 353 352 354 352 351 350 349 347 335 327 327 327 339 343 348 350 348
317 317 318 319 321 322 326 327 328 331 333 332 333 333 336 335 331 332 334 342 341 340 346 341 350 352 352 353 353 354 354 354 353 351 350 347 336 328 327 329 341 346 348 348
316 318 320 319 319 320 320 321 324 326 330 335 333 333 333 334 333 331 332 334 341 343 346 347 350 352 353 353 353 354 355 355 356 355 354 352 348 340 332 329 330 346 339 345
312 315 317 320 320 319 320 319 322 324 329 330 332 334 335 336 339 342 342 342 342 342 340 341 344 349 352 354 353 353 354 355 355 357 357 355 353 350 341 336 332 333 344 336
314 314 314 316 317 318 318 319 320 321 325 329 330 333 332 333 337 335 341 341 341 341 345 345 347 347 347 353 354 354 354 354 355 355 356 356 355 353 353 350 345 339 338 339
314 316 316 316 315 317 318 319 319 319 322 327 329 330 332 330 329 336 340 342 342 343 344 345 347 348 349 353 354 354 355 355 354 354 355 355 357 356 354 354 354 352 344 343
313 317 316 316 315 316 317 318 318 318 320 322 324 325 327 330 332 331 336 338 337 338 339 340 340 343 347 349 355 357 356 355 356 355 355 356 355 356 357 356 355 355 352 347
312 312 316 315 314 320 318 317 319 318 319 319 319 320 322 326 329 331 331 334 334 333 335 336 337 338 341 346 349 349 360 357 356 357 357 356 356 355 357 357 356 356 356 354
312 312 316 316 313 315 317 321 322 323 321 325 326 327 324 326 327 328 328 329 330 330 332 333 335 337 339 344 347 348 348 357 357 356 358 358 356 355 356 358 356 355 357 357
315 316 315 313 315 315 319 317 317 316 322 322 320 321 321 324 325 326 323 326 328 328 330 330 334 337 342 348 353 353 353 348 361 357 357 359 359 356 356 355 354 354 356 355
316 316 318 317 315 313 317 316 316 317 321 319 318 318 319 321 321 321 322 324 326 326 326 327 332 334 337 345 350 356 359 360 353 362 358 359 360 359 357 358 358 356 356 357
313 316 317 317 316 316 314 315 315 318 316 316 316 316 316 317 318 319 320 322 324 325 324 325 328 331 334 340 345 353 357 357 358 354 360 359 360 361 360 360 360 359 358 358
314 311 310 312 316 312 312 313 312 314 314 315 315 314 314 315 316 319 321 321 322 324 323 323 325 328 331 338 343 346 355 358 359 353 359 360 361 361 362 361 361 361 360 360
311 308 309 309 309 309 308 310 311 310 311 312 312 312 313 314 314 316 319 320 321 322 322 322 324 327 327 333 338 343 351 355 355 359 359 359 361 362 362 361 362 361 361 361
310 308 309 308 309 305 308 306 307 308 308 309 310 311 312 313 314 315 318 319 320 320 320 322 324 326 323 319 329 337 347 355 357 363 360 362 362 362 362 361 363 362 362 362
307 308 308 309 305 304 304 304 304 306 307 307 308 309 310 313 314 314 317 318 320 319 320 321 323 325 321 317 317 327 339 348 356 360 361 361 361 361 360 361 360 364 361 362

GFSCGP_850_thetae_081.txt.gz
Theta_e
329 329 328 327 326 326 327 327 325 324 325 330 335 358 356 352 347 350 351 350 349 348 349 346 344 344 343 344 344 344 347 345 340 338 348 348 348 347 345 349 351 348 347 348
329 329 329 329 327 328 326 326 326 325 326 327 348 355 350 347 343 348 349 348 350 348 348 349 347 345 344 343 343 344 347 346 345 338 348 350 348 344 349 350 350 348 341 344
324 329 329 329 328 326 325 324 325 325 325 325 346 351 344 343 343 340 344 343 348 349 347 349 347 345 344 342 343 344 345 347 345 339 347 347 347 348 350 351 350 347 342 344
326 326 326 327 328 326 323 325 326 326 323 323 324 346 348 345 347 345 346 346 347 349 349 349 348 346 344 343 342 343 345 346 345 343 337 344 348 346 348 349 350 348 344 344
323 325 326 327 327 325 324 326 325 325 323 322 323 322 348 346 349 348 346 336 342 349 350 348 348 348 346 345 343 343 343 345 345 343 338 345 346 347 346 347 346 345 345 347
322 324 324 324 326 325 326 325 324 323 322 320 321 323 344 351 347 343 349 345 348 350 350 348 348 348 347 345 343 342 343 343 345 343 338 344 345 347 348 344 348 348 349 343
320 321 321 324 324 323 326 325 323 323 323 323 320 321 322 351 349 345 349 351 348 349 350 350 349 348 348 346 344 343 343 343 342 342 339 336 343 346 347 349 346 349 349 346
316 317 320 322 324 324 323 323 323 326 325 324 322 322 323 329 350 347 346 347 341 349 351 350 350 348 349 348 346 345 344 344 344 337 338 335 335 342 345 348 346 349 349 345
317 318 318 319 319 323 323 323 323 323 324 326 326 324 324 324 330 345 341 342 345 350 347 351 350 350 349 349 348 347 346 345 345 341 332 337 332 342 345 348 350 352 349 348
315 315 317 317 318 321 323 324 325 323 327 328 327 327 327 324 324 344 347 348 350 350 348 349 350 351 349 349 349 347 347 346 346 345 335 331 331 329 345 346 346 347 348 348
315 314 316 316 318 318 320 323 323 324 325 326 326 326 327 334 327 338 345 347 350 344 350 349 350 351 351 350 350 349 347 347 346 346 345 331 333 329 334 346 347 347 345 346
313 314 315 317 317 317 317 318 324 326 326 327 329 329 331 333 337 332 343 345 346 343 350 349 349 351 350 351 352 350 349 347 347 347 346 346 329 328 326 332 345 342 348 345
311 313 314 316 315 317 317 318 318 322 321 324 329 330 332 332 332 336 342 344 346 348 345 344 339 348 351 347 351 353 350 350 348 348 347 347 347 333 326 326 327 338 337 346
312 310 311 313 314 314 316 317 317 318 320 324 325 327 332 333 332 336 338 342 346 342 342 341 339 337 337 346 350 353 353 352 351 350 349 349 349 348 343 328 327 328 332 341
311 311 311 312 313 314 314 315 317 317 318 319 320 325 330 332 336 334 334 337 339 341 342 342 347 346 342 346 350 353 354 354 353 352 352 352 351 350 349 346 335 328 329 330
313 313 314 314 314 314 315 315 316 317 318 318 318 326 329 331 332 331 330 333 333 334 335 336 337 345 345 349 353 355 355 356 355 355 354 354 354 354 352 350 347 339 331 330
311 315 313 314 313 313 315 315 315 316 317 318 318 326 326 330 332 331 329 328 331 330 332 332 334 336 340 347 347 353 354 355 356 356 355 355 355 355 354 352 352 348 341 336
310 311 315 313 313 314 313 313 317 320 322 323 324 325 328 330 329 329 329 328 327 328 329 329 332 336 341 348 348 342 345 350 355 356 356 355 354 354 354 354 353 352 351 347
313 314 313 313 313 313 313 317 318 317 320 320 321 321 320 321 326 322 322 326 325 326 327 326 330 333 336 342 348 345 344 338 352 357 354 355 355 355 354 354 354 353 354 353
311 312 314 314 314 315 316 316 316 316 319 318 318 318 318 320 323 320 319 321 324 324 325 325 325 331 333 336 342 349 351 353 356 358 359 355 356 356 355 355 354 354 354 353
312 314 315 314 315 314 314 315 315 313 319 314 316 316 316 316 317 317 319 320 321 323 325 324 324 326 329 333 336 342 346 352 354 358 361 361 358 357 357 356 355 354 354 354
312 312 312 314 316 316 310 314 316 314 313 313 314 315 314 314 314 315 316 318 320 321 323 323 323 324 327 329 335 339 343 346 352 355 357 362 359 360 358 358 356 355 355 355
314 310 309 310 313 310 308 308 308 309 310 311 310 311 311 312 313 314 315 316 319 320 321 322 322 323 326 322 325 333 339 346 351 354 354 354 362 359 360 360 358 357 356 356
311 309 308 308 309 307 306 305 304 305 306 307 308 308 310 311 312 313 314 314 317 319 320 320 320 323 325 320 319 320 331 343 350 354 357 359 359 361 360 361 361 358 358 358
309 308 308 307 308 305 306 304 304 303 304 306 307 307 308 308 309 311 313 314 315 317 320 319 321 322 325 321 319 318 322 338 348 353 362 363 360 362 360 360 361 362 361 360
308 306 305 306 306 304 304 304 304 302 303 304 303 304 306 306 307 308 310 314 315 317 318 318 321 323 323 321 318 318 319 327 341 349 351 359 361 361 360 357 360 362 362 361

GFSCGP_850_thetae_084.txt.gz
Theta_e
326 325 327 328 325 324 325 325 325 325 325 324 348 356 352 346 352 350 350 350 349 347 347 343 342 341 342 346 346 346 345 343 342 346 345 347 346 348 346 348 348 344 345 348
327 327 326 326 326 326 325 325 324 323 324 323 352 357 354 349 352 344 345 349 349 348 347 343 342 342 341 343 346 345 344 340 337 339 345 348 346 348 346 348 349 346 344 348
327 327 328 329 327 327 324 323 323 323 323 342 351 355 356 352 351 350 344 350 350 348 348 345 343 343 342 342 344 344 344 341 343 337 346 348 349 349 348 349 349 347 344 345
324 325 324 328 327 326 324 323 324 324 322 321 335 336 347 348 345 345 351 350 350 348 348 348 344 343 343 343 343 343 343 341 341 338 346 349 346 346 349 350 346 348 346 343
320 324 324 325 325 325 325 324 323 324 322 319 321 323 338 343 345 343 345 347 345 348 348 348 346 344 343 343 343 343 342 341 341 344 343 347 346 346 347 348 348 349 345 341
318 321 322 322 324 324 324 323 320 318 318 320 318 319 331 347 345 343 341 345 346 349 348 347 348 346 345 344 343 343 342 342 342 342 341 342 344 346 346 347 350 349 344 342
316 317 317 319 321 321 323 319 321 322 320 320 317 319 319 342 343 343 342 343 345 348 348 348 348 346 346 344 343 343 342 342 342 341 342 336 341 343 346 345 347 346 347 345
315 316 315 316 316 320 321 319 321 325 323 321 319 322 321 324 341 342 344 344 341 340 347 348 348 347 346 346 344 343 343 343 342 342 339 337 338 344 346 349 345 347 347 347
313 316 316 317 316 317 320 321 318 320 320 321 321 323 324 334 333 340 342 345 344 344 345 348 349 348 347 347 346 345 345 344 343 343 341 337 334 342 346 348 348 346 347 347
313 314 314 316 315 315 314 315 322 317 324 325 324 324 324 334 337 339 342 345 348 348 349 350 349 348 347 348 347 347 346 346 344 343 343 340 333 334 344 346 349 346 347 346
311 311 313 314 313 315 314 315 314 318 318 322 324 324 332 334 338 337 339 342 347 343 348 350 349 349 348 348 347 347 345 345 345 345 344 344 335 330 336 344 348 350 351 349
309 308 312 314 314 315 314 313 312 316 322 320 320 325 329 334 335 337 341 342 343 347 348 350 350 350 349 348 348 348 348 346 345 347 346 345 342 330 329 340 345 347 350 349
309 307 310 310 311 310 312 313 312 312 312 319 325 325 332 333 335 335 337 343 343 344 344 344 348 343 350 349 349 349 348 348 348 346 347 346 345 338 329 328 342 346 346 347
311 304 307 309 310 309 312 314 314 313 312 314 316 317 332 334 334 333 333 334 335 336 339 341 342 345 347 349 349 349 349 348 349 348 347 347 347 345 339 326 326 342 345 346
307 308 311 312 312 312 312 313 314 313 313 315 315 316 332 331 331 331 332 331 332 331 331 337 340 344 343 341 344 347 350 350 350 349 348 348 348 347 347 344 327 325 334 344
309 310 311 310 312 311 311 311 313 314 317 320 319 324 327 331 329 329 329 330 330 329 328 331 336 339 342 346 345 343 345 350 351 351 350 349 348 348 348 347 347 338 325 326
308 309 308 311 310 309 308 311 316 317 322 323 328 324 319 329 326 325 326 327 328 326 326 326 332 333 336 338 347 349 351 351 353 353 352 351 350 350 350 350 349 349 346 332
306 308 308 309 308 310 306 310 317 320 319 318 319 318 318 320 321 319 320 322 323 326 325 325 325 331 333 335 341 345 349 350 351 354 356 356 354 352 352 352 352 351 349 348
309 307 309 309 309 309 311 315 316 315 318 316 315 316 316 316 321 319 318 320 321 323 324 324 324 325 330 334 338 343 345 347 350 345 349 353 356 354 353 354 354 353 352 348
306 308 310 308 311 313 313 312 314 314 316 314 315 315 314 315 317 315 315 316 319 321 323 323 323 323 326 327 331 338 345 343 341 344 340 346 354 354 353 354 354 354 353 352
305 307 307 308 310 313 309 311 313 315 314 312 313 312 311 311 312 313 313 314 315 320 321 322 322 322 323 325 323 330 338 343 345 342 338 340 343 356 356 355 354 354 354 354
308 306 303 305 312 313 307 309 312 311 309 310 310 309 309 310 311 311 312 313 314 316 319 320 320 320 321 323 324 320 328 336 342 345 348 340 348 355 357 356 355 355 355 355
310 306 304 305 306 308 307 307 305 304 304 305 306 306 307 307 309 310 311 312 313 314 316 319 319 319 320 323 323 319 320 325 337 344 349 350 350 351 355 357 356 357 356 356
309 308 303 305 305 306 306 305 304 304 303 303 304 305 306 307 307 308 308 308 309 313 314 317 319 319 319 319 321 321 319 320 326 341 348 353 354 356 357 360 360 358 358 357
306 306 304 303 304 305 305 303 303 303 303 302 302 303 303 303 304 305 306 307 307 311 313 315 318 318 318 319 321 320 318 319 320 331 344 349 356 357 356 360 359 360 359 359
307 302 301 302 305 304 304 304 305 304 303 303 303 302 302 302 302 304 305 305 307 308 312 314 317 318 318 319 321 319 319 318 319 323 336 346 351 359 359 362 361 361 361 360

GFSCGP_850_thetae_087.txt.gz
Theta_e
321 324 326 327 325 325 325 325 325 324 323 334 353 351 351 347 352 350 349 347 347 348 347 346 347 342 342 345 346 346 345 345 347 346 345 346 348 348 347 347 346 344 346 345
323 325 324 326 326 326 326 326 324 323 322 320 339 353 348 349 350 350 349 348 348 347 347 344 343 342 341 344 344 345 345 344 345 346 346 346 346 347 345 348 346 346 345 347
326 328 328 327 328 327 325 324 324 324 325 349 350 355 353 347 347 351 348 349 348 348 346 344 342 342 342 344 344 344 344 344 343 343 346 346 348 346 347 348 349 345 345 347
326 325 327 326 328 325 325 322 324 323 320 321 335 347 350 351 349 349 350 346 349 348 347 346 342 342 342 343 342 343 344 344 343 337 342 344 346 346 348 347 348 346 343 346
323 323 324 323 323 325 325 324 322 322 319 319 319 322 335 349 351 347 347 348 346 349 348 346 345 343 341 342 342 342 343 343 342 339 334 341 346 346 348 348 349 347 346 348
318 319 320 320 322 322 324 322 318 315 315 319 319 318 321 349 350 347 345 345 349 349 349 345 345 343 342 341 342 342 343 343 342 340 336 339 345 347 346 348 349 348 347 344
314 315 314 315 318 318 319 317 320 320 319 319 316 319 320 329 341 344 343 343 346 349 348 348 344 343 342 342 342 342 343 343 343 340 338 335 341 345 343 346 347 349 348 344
313 315 314 315 315 317 319 318 319 323 321 320 315 321 326 332 335 337 337 342 344 347 348 347 347 344 344 343 342 343 343 343 342 341 339 336 336 343 342 346 346 348 348 345
312 315 314 315 315 315 317 316 317 316 316 320 320 321 324 334 336 336 337 339 341 342 345 347 348 346 346 345 344 343 343 343 343 343 342 337 336 337 338 344 345 347 347 346
313 314 313 314 314 314 312 313 318 315 321 324 322 323 335 339 338 339 342 342 342 342 343 345 348 348 347 347 346 345 344 344 344 343 343 342 335 333 332 342 345 348 348 346
310 310 312 312 312 313 311 312 311 314 316 320 322 334 334 338 335 336 337 341 341 343 341 343 347 348 348 346 346 347 345 344 343 344 345 343 342 335 330 337 344 346 347 346
307 307 310 313 310 311 312 311 309 313 316 316 318 332 330 332 333 333 334 333 337 343 347 348 347 348 347 345 345 347 346 345 344 345 345 344 344 343 335 328 338 345 346 346
309 305 307 309 309 308 309 311 310 308 308 312 319 324 331 332 333 331 331 331 332 336 341 346 346 346 347 346 345 345 346 346 345 344 345 345 344 344 344 332 326 341 345 348
309 303 305 306 309 309 312 312 312 309 311 312 314 314 331 331 331 331 331 329 329 330 334 339 340 342 344 346 347 346 346 346 347 346 345 345 345 345 345 344 329 325 339 345
305 308 310 309 309 311 311 311 312 313 313 313 315 329 324 329 328 329 331 331 328 327 326 331 334 337 343 344 344 346 346 347 347 347 347 347 346 346 346 345 344 327 326 338
306 310 310 309 310 309 309 313 313 315 321 318 320 323 318 323 322 322 324 330 328 326 325 325 327 332 335 339 346 344 343 346 348 349 348 348 347 347 347 347 345 345 331 324
306 306 306 308 308 307 308 311 319 319 317 320 323 319 317 322 319 319 320 321 325 324 324 324 324 327 329 331 338 345 347 346 344 346 348 349 349 348 349 349 347 346 346 341
306 306 305 307 306 308 306 313 317 318 317 315 316 316 316 316 318 315 315 317 320 322 324 323 322 323 324 326 333 338 345 347 350 350 350 350 351 350 350 350 349 348 347 347
304 304 306 308 307 307 312 312 315 314 316 314 315 313 312 314 317 318 313 314 315 321 322 323 323 322 322 323 325 331 337 344 344 346 350 352 354 354 354 352 352 350 349 349
306 304 308 306 310 312 311 310 310 312 312 311 313 311 310 312 315 316 312 311 313 315 320 320 321 322 322 321 323 323 327 332 341 343 346 348 348 348 344 351 351 351 351 352
302 303 306 306 308 311 309 308 309 313 311 310 310 310 309 309 310 310 311 310 310 312 314 319 319 320 321 321 321 322 321 322 332 342 341 340 339 341 342 339 349 351 351 351
305 303 302 304 312 313 308 308 309 309 306 306 305 307 306 306 306 308 309 311 310 309 311 313 317 319 320 321 321 320 321 320 326 338 343 343 340 340 342 339 343 349 350 352
305 304 303 304 305 307 307 306 307 306 304 303 303 303 303 304 305 306 307 308 310 309 308 310 314 317 319 320 320 320 319 321 321 325 338 342 346 344 341 337 339 348 352 352
308 306 302 305 303 306 306 306 305 304 303 303 303 303 303 303 303 303 304 305 306 308 308 308 312 314 317 318 319 319 319 319 320 322 326 336 344 347 340 338 337 347 351 352
305 305 303 302 304 305 306 305 303 303 303 303 304 304 302 302 302 302 302 302 303 304 306 307 307 313 316 317 318 318 319 318 319 319 322 324 336 345 340 335 336 347 349 352
306 302 302 303 306 305 306 306 303 304 305 305 305 305 304 303 302 301 302 302 302 304 304 305 306 311 315 317 318 319 320 319 319 319 320 323 325 338 345 348 350 348 353 354

GFSCGP_850_thetae_090.txt.gz
Theta_e
319 320 322 324 325 324 324 324 325 324 338 349 350 348 349 350 351 350 350 349 348 347 347 347 346 346 341 343 341 341 342 343 344 345 345 345 344 347 347 346 347 344 344 343
322 323 324 325 325 324 325 325 325 323 325 326 328 342 348 348 350 350 349 348 348 347 347 347 347 345 343 343 344 343 343 343 343 343 344 343 343 345 345 347 346 344 344 345
324 326 325 326 327 326 324 324 324 325 325 346 347 345 350 346 348 350 349 348 347 347 347 347 346 345 343 341 345 344 345 344 343 343 346 345 345 346 346 347 347 346 344 345
326 325 327 326 327 325 327 323 324 324 320 320 332 325 345 348 347 347 350 348 348 347 347 347 345 344 345 342 342 344 345 344 343 344 345 344 342 343 344 346 348 347 344 346
325 323 325 325 324 324 326 322 322 322 319 318 321 319 321 345 349 347 346 349 348 348 347 346 348 345 345 344 341 342 344 345 343 343 344 344 343 343 345 346 347 346 345 342
317 317 319 321 321 322 322 318 315 313 314 318 319 318 316 343 340 344 345 345 348 349 349 348 346 346 346 343 341 342 344 344 343 343 341 340 341 339 344 346 347 348 346 345
312 314 312 314 318 317 317 316 318 319 318 319 313 317 331 330 333 335 335 338 346 347 348 349 347 344 345 344 342 342 343 344 344 343 341 337 334 335 341 345 344 347 346 347
311 314 312 314 314 315 317 316 318 321 318 319 316 318 330 335 336 337 340 341 339 344 348 347 348 346 345 345 343 342 342 343 343 343 342 340 337 334 338 343 343 345 346 347
312 314 312 314 312 313 316 313 314 315 314 319 318 325 324 335 335 335 335 336 338 341 344 347 347 347 345 345 344 343 341 342 343 343 343 341 339 333 334 340 340 344 345 347
312 313 312 312 313 312 311 312 317 314 320 324 320 333 338 336 336 335 334 335 338 341 342 347 347 348 346 345 344 344 342 342 342 343 343 342 340 336 332 337 339 343 342 344
309 309 313 310 310 310 310 310 310 312 313 319 325 335 333 335 334 333 332 334 336 342 343 344 346 347 347 344 343 344 344 343 342 342 343 343 342 340 334 332 332 339 342 343
308 305 308 310 309 309 310 311 308 317 317 313 322 330 330 331 332 332 330 331 335 339 342 344 344 346 346 344 343 343 344 344 345 343 343 343 343 343 341 333 330 331 339 344
308 304 305 312 309 308 310 310 308 306 307 312 326 328 329 329 330 331 331 328 329 333 338 341 344 345 345 344 343 343 344 344 345 344 343 343 343 343 343 343 336 329 332 340
308 302 303 308 310 308 311 311 310 308 311 311 313 323 326 325 327 326 329 329 327 326 329 333 335 339 342 345 344 343 343 344 344 344 345 344 343 344 344 343 343 341 329 331
304 307 308 308 309 310 310 309 309 312 310 314 313 328 323 325 321 320 321 326 325 326 325 326 328 329 334 340 344 345 345 345 345 345 345 345 345 344 344 344 343 343 343 330
304 311 308 308 309 308 312 314 314 318 320 317 321 320 322 320 318 316 316 318 322 324 323 323 323 324 326 333 338 342 345 344 346 346 346 346 347 346 346 345 344 344 344 344
304 305 303 307 307 307 307 311 319 317 316 318 321 317 318 319 316 315 314 314 315 318 322 322 322 322 323 323 330 338 343 344 345 344 347 347 347 347 347 347 347 346 346 345
305 304 302 306 305 307 303 312 316 317 316 315 315 314 314 313 315 315 312 312 313 315 318 320 320 322 321 321 321 327 337 343 345 347 346 345 346 346 348 348 348 348 347 347
302 303 305 308 306 306 309 312 314 314 316 313 313 312 312 312 315 315 313 312 311 311 313 315 317 319 321 321 321 321 325 335 342 344 346 348 349 348 347 348 349 349 349 349
304 303 307 304 310 311 308 309 309 311 314 311 312 310 310 310 313 314 313 312 312 313 310 310 313 317 319 320 321 321 320 322 333 338 341 342 342 345 349 351 351 351 352 350
301 302 306 305 307 309 309 308 309 313 309 309 308 308 308 307 308 307 305 306 307 309 312 312 309 311 315 319 321 321 321 320 321 327 334 339 341 340 341 343 344 340 341 348
304 303 303 305 311 312 308 307 311 308 307 305 304 303 303 303 303 303 304 304 304 305 307 311 311 308 309 315 319 320 321 321 321 320 322 329 336 338 340 340 341 340 340 341
304 303 304 304 306 306 307 306 306 306 304 303 303 303 303 303 303 302 303 303 304 303 304 305 308 311 309 309 315 318 320 320 319 319 320 321 330 332 343 343 340 338 337 337
305 304 301 303 303 306 308 307 306 305 303 303 303 304 304 304 304 303 303 302 302 302 303 303 304 306 310 309 309 315 317 319 320 320 319 320 323 326 333 342 343 341 339 337
304 304 301 302 303 304 306 307 306 305 303 304 304 304 305 305 305 304 303 302 302 302 301 302 302 305 307 309 308 311 316 320 319 319 320 318 320 321 327 335 343 342 339 337
305 302 303 304 306 305 305 306 306 305 303 304 304 305 305 305 305 304 303 303 302 302 302 302 302 303 305 306 307 309 315 320 320 319 318 318 318 320 322 328 338 343 340 336

GFSCGP_850_thetae_093.txt.gz
Theta_e
318 323 328 332 332 331 329 330 330 328 342 352 347 347 350 352 352 352 350 349 348 347 346 346 346 346 341 334 336 335 340 342 345 346 347 345 345 346 347 347 347 344 343 343
321 325 327 329 329 328 330 331 330 327 332 343 332 336 348 350 352 353 352 350 349 348 346 346 346 347 344 339 337 340 342 343 344 343 345 344 343 345 347 346 346 344 344 343
323 327 327 329 330 331 330 332 329 328 325 343 347 348 352 350 352 352 352 351 349 349 348 346 347 346 346 342 341 340 341 343 343 343 344 344 344 344 345 346 345 344 343 345
327 328 329 329 331 331 334 328 328 328 327 327 341 333 349 350 351 352 352 351 350 349 349 347 346 346 346 344 341 343 342 343 343 344 344 343 344 342 344 345 348 347 342 344
328 328 330 331 331 329 331 327 328 327 327 325 336 329 335 351 350 344 349 351 350 348 348 348 346 346 347 345 343 341 344 344 344 344 345 344 346 344 344 345 347 348 345 343
318 317 321 326 324 327 325 324 322 322 325 327 325 325 340 340 340 342 341 342 349 349 347 347 347 346 347 347 346 344 341 344 344 345 344 344 344 345 344 345 346 347 344 344
317 317 316 316 321 322 325 325 327 327 327 327 321 333 344 341 340 339 341 341 342 344 349 348 347 346 346 347 346 346 344 341 343 344 344 344 342 344 344 342 344 346 347 346
320 319 317 316 317 321 325 326 327 329 327 326 322 338 343 337 337 338 339 339 340 341 343 349 348 347 346 347 347 347 344 341 342 343 344 343 342 338 340 337 343 345 344 346
318 318 315 315 316 316 321 324 320 324 321 326 325 332 335 335 336 337 336 337 339 344 342 346 349 347 346 347 346 346 346 343 341 342 343 343 342 340 337 335 339 344 345 346
316 318 315 315 315 316 319 316 324 324 328 328 334 338 340 338 338 335 334 336 338 341 344 344 348 348 346 346 347 346 346 346 344 341 342 343 343 342 339 336 339 338 340 344
314 317 317 316 315 315 318 320 320 323 323 328 332 340 334 336 335 333 330 331 335 337 342 343 347 348 346 346 348 346 345 345 345 342 342 343 343 343 341 338 336 340 337 341
312 315 316 315 313 312 314 315 316 327 327 324 331 337 333 332 331 333 329 328 330 333 336 340 343 345 345 344 344 345 346 345 344 343 342 342 343 343 342 341 335 334 338 337
311 312 317 316 315 314 315 313 314 315 318 327 329 334 329 328 326 326 329 328 327 328 332 336 340 343 344 343 342 343 346 346 346 344 343 342 342 343 343 342 342 336 335 333
311 311 312 317 316 314 315 312 313 316 322 322 324 333 331 325 323 322 325 327 327 327 325 325 328 333 339 343 343 342 342 343 346 346 344 344 344 343 343 343 343 342 340 334
312 312 312 312 311 311 311 311 312 316 316 321 329 331 327 323 321 319 320 322 324 325 325 324 324 324 325 335 341 344 343 343 343 343 345 344 344 345 344 343 343 343 343 342
311 313 312 312 311 312 315 316 314 317 321 325 329 327 321 319 319 320 319 320 320 320 323 324 323 321 323 323 328 338 343 344 345 344 344 344 344 345 345 345 344 344 343 343
312 313 312 312 311 312 312 316 319 320 321 324 329 322 320 318 316 316 316 316 316 317 317 318 322 322 321 323 322 325 336 341 344 345 345 346 346 346 346 346 346 346 346 345
312 312 312 313 311 312 312 316 318 320 319 320 319 318 317 316 316 315 314 314 314 313 313 313 314 317 320 321 322 321 321 329 340 343 345 344 345 347 348 347 347 347 347 347
309 313 314 314 313 311 314 317 319 319 319 317 318 316 315 314 316 315 313 311 310 311 312 312 312 310 312 318 321 321 322 321 321 332 340 343 345 345 346 348 347 347 348 348
310 312 315 313 315 314 313 313 314 315 317 315 316 314 312 311 316 318 310 309 307 307 309 310 311 312 309 309 316 321 321 321 320 320 321 328 340 343 346 347 348 349 349 348
314 315 316 316 315 314 313 311 312 316 317 313 311 310 309 310 309 307 305 306 305 305 305 306 308 309 311 310 308 313 319 321 321 319 320 320 325 334 340 344 347 347 348 348
314 315 316 315 316 314 311 310 316 314 312 310 307 306 306 306 306 305 305 305 304 304 304 305 305 307 308 309 310 309 310 317 321 320 319 320 320 321 328 338 342 342 343 341
315 313 317 314 313 310 310 309 308 308 308 306 306 305 305 306 306 305 305 305 305 305 304 304 304 305 306 306 307 310 309 309 316 320 320 319 318 320 321 325 331 341 340 341
311 307 313 310 310 309 309 308 307 306 306 305 305 305 305 306 306 306 305 305 305 305 304 304 304 304 305 305 306 307 308 308 310 316 320 320 319 318 319 322 321 324 338 342
311 309 312 311 309 307 307 308 309 307 306 303 304 304 305 305 306 305 305 305 305 304 304 304 304 304 304 305 305 306 306 307 307 312 316 319 319 318 318 319 323 321 325 340
308 312 314 315 311 311 309 307 307 306 306 304 304 305 305 305 306 306 306 305 304 304 304 304 304 304 305 305 305 305 306 307 307 312 315 318 319 319 317 318 319 320 321 329

GFSCGP_850_thetae_096.txt.gz
Theta_e
320 325 327 330 333 337 340 338 337 340 348 350 349 347 353 353 352 352 351 351 350 348 344 344 348 348 344 341 343 344 347 345 343 347 349 350 351 350 346 345 345 344 343 341
321 325 327 331 334 336 337 336 335 332 342 345 334 336 341 351 350 353 352 351 350 349 345 345 348 348 346 343 344 345 347 342 345 351 352 351 350 350 351 349 348 348 343 342
323 324 328 333 335 335 338 337 334 334 333 336 340 347 351 348 350 352 353 352 351 349 347 343 346 349 348 345 344 344 343 344 345 351 351 349 351 347 351 346 344 348 349 349
324 327 330 334 335 334 335 336 333 331 331 341 342 343 347 351 353 353 353 352 352 350 348 346 347 348 348 347 346 345 344 345 345 344 351 351 349 349 350 352 350 348 346 351
327 330 332 333 334 334 335 333 334 331 332 331 337 339 348 349 349 348 353 353 352 353 351 349 347 348 347 348 347 347 345 341 347 344 348 346 348 347 348 352 346 346 343 346
329 329 332 333 333 332 331 332 332 331 331 332 337 337 346 347 347 347 346 347 352 351 351 350 348 348 348 347 348 348 349 343 343 343 344 344 352 350 350 350 350 352 351 349
326 327 323 323 331 331 330 330 332 333 331 331 331 332 348 343 343 343 345 345 346 348 351 350 350 348 348 348 349 350 350 344 342 344 344 344 344 352 352 348 348 351 350 350
324 326 324 321 325 330 329 330 331 333 331 330 329 338 346 340 340 341 340 341 343 346 346 349 349 349 348 349 350 351 351 348 344 341 343 344 344 351 350 350 347 350 349 350
325 322 319 319 321 323 330 330 328 329 330 330 333 343 340 339 340 340 337 338 341 346 346 346 351 351 349 349 350 351 352 348 346 344 341 343 344 344 349 348 349 349 351 350
322 323 320 319 320 321 325 327 328 328 331 332 331 341 346 341 339 338 335 335 337 340 347 346 349 351 351 350 350 351 351 347 346 345 344 342 343 343 343 347 349 349 350 351
321 323 321 320 322 324 324 327 327 328 329 331 334 340 338 338 336 335 332 332 334 336 339 343 348 350 351 350 350 351 352 353 351 350 351 343 342 344 344 343 344 347 351 347
319 322 322 321 317 317 321 325 327 329 331 330 332 345 334 333 332 332 331 330 330 332 332 334 337 344 347 348 349 350 351 351 352 352 352 352 343 343 346 345 346 343 347 345
318 320 322 320 319 319 321 320 323 325 328 330 330 344 331 329 330 330 330 330 328 328 328 329 331 336 341 344 345 349 349 350 350 351 351 352 349 343 343 344 344 344 340 340
315 319 321 322 322 321 320 318 319 324 328 329 330 338 331 330 329 328 329 329 329 329 328 327 326 327 333 339 343 343 344 348 349 349 351 350 350 349 344 343 343 345 343 341
318 320 318 318 316 316 317 317 316 321 325 328 335 336 332 328 327 326 328 328 327 327 328 328 327 326 326 329 336 340 344 343 344 349 350 351 351 348 346 347 344 343 348 344
316 320 318 317 314 315 316 317 317 318 322 328 333 330 326 324 324 324 324 325 325 324 324 323 324 325 325 325 328 331 340 343 345 344 345 348 350 349 353 350 352 350 350 346
316 317 317 318 314 315 315 317 318 320 323 328 334 330 324 324 324 323 322 321 320 320 320 319 319 320 322 325 326 328 328 333 341 343 344 345 346 348 348 351 352 351 351 351
315 316 316 317 315 314 319 318 319 320 322 326 328 326 325 324 323 321 320 319 318 317 317 317 317 317 317 319 323 326 327 326 327 333 341 344 344 344 347 349 349 349 350 352
315 316 315 316 315 316 316 318 319 320 322 322 324 324 323 321 320 320 318 316 316 315 314 315 315 315 315 316 316 319 325 327 326 324 324 332 340 342 343 344 346 350 350 349
314 315 317 316 316 316 318 317 318 318 320 320 321 321 320 318 322 324 316 313 312 312 312 312 312 312 314 315 315 315 319 324 327 325 320 321 323 337 342 343 344 344 346 347
317 317 317 317 317 316 317 317 316 317 322 318 319 318 316 317 315 312 310 310 309 309 309 309 310 310 311 312 312 313 315 318 322 324 322 320 320 321 325 338 340 342 346 349
320 320 321 319 319 318 315 315 317 319 317 316 315 313 312 311 310 310 310 310 309 309 309 309 309 309 310 310 310 312 314 315 315 314 322 323 319 319 321 322 326 332 341 343
319 317 320 317 318 315 314 315 315 315 314 312 311 310 310 309 310 310 310 310 309 309 309 308 308 309 309 310 310 310 310 310 310 311 313 322 324 321 319 319 321 324 323 339
315 313 314 315 314 313 313 312 312 310 311 310 309 309 309 310 310 310 309 309 308 308 308 308 307 308 309 309 309 310 310 309 309 310 312 318 322 324 322 319 319 320 323 322
316 314 315 315 313 312 313 312 312 311 309 309 308 309 309 309 309 308 308 308 308 308 307 307 307 307 308 309 309 309 309 310 310 312 314 317 319 321 324 323 320 320 319 322
314 316 317 316 312 313 312 312 312 311 310 309 308 308 308 308 308 308 308 308 308 308 307 306 306 306 307 306 307 308 310 310 310 311 313 315 317 319 320 322 323 321 319 319

GFSCGP_850_thetae_099.txt.gz
Theta_e
322 325 327 330 331 335 340 341 341 345 346 350 352 353 354 355 353 353 349 345 345 346 346 343 343 342 341 343 345 347 348 350 351 349 347 349 351 352 352 351 352 352 351 350
324 325 326 329 332 335 340 340 340 345 348 351 350 348 351 352 352 352 353 350 349 348 347 344 346 344 341 342 344 347 350 351 351 348 348 349 351 352 351 352 351 353 351 344
326 325 327 330 332 336 341 339 338 340 347 341 339 349 350 349 350 353 352 352 351 349 347 345 347 345 344 343 345 347 351 352 351 350 352 351 352 351 353 352 351 352 351 350
326 326 328 331 335 336 337 337 337 338 340 345 342 352 355 350 355 354 353 352 352 350 349 346 347 346 345 344 345 348 350 353 352 351 351 350 349 349 351 349 349 351 351 350
326 326 328 333 335 333 335 337 337 335 337 345 345 348 351 348 352 355 353 353 352 351 350 346 346 347 345 345 344 348 350 354 354 351 353 350 351 350 353 351 349 352 352 352
327 326 331 333 334 333 335 335 337 336 335 339 347 345 350 353 349 353 352 353 352 352 350 349 347 348 346 345 345 346 351 353 354 354 347 353 349 352 349 352 353 351 350 351
330 330 332 330 334 334 335 336 337 337 335 336 341 345 352 346 346 346 347 347 351 352 353 351 349 349 348 345 345 347 351 353 353 353 354 354 353 350 355 353 352 350 350 349
329 332 329 331 333 334 334 334 334 335 333 332 334 347 348 344 342 341 341 342 345 349 352 352 351 350 349 347 346 347 351 354 355 353 351 353 354 352 348 351 348 348 349 350
328 327 326 326 329 328 333 333 331 332 333 332 340 347 343 343 344 341 339 339 342 348 351 352 351 351 350 349 348 349 352 353 357 356 352 350 352 346 348 349 348 352 349 353
327 327 325 325 325 326 328 331 332 331 335 333 342 347 347 344 342 339 336 336 339 345 349 349 347 349 351 350 349 351 353 355 357 357 357 356 355 353 347 351 351 347 349 350
325 327 325 324 326 328 328 330 331 331 332 334 339 348 343 343 338 339 334 333 335 338 341 346 347 350 351 351 351 351 353 356 357 357 357 356 356 356 356 354 352 351 350 352
324 325 326 325 324 324 326 328 330 331 333 332 333 346 338 338 336 335 333 331 331 332 336 339 340 348 349 350 350 352 352 355 354 355 354 356 357 356 356 356 354 353 351 352
322 323 327 325 323 323 325 327 328 329 330 333 333 348 337 335 335 333 332 331 330 329 330 333 334 342 346 347 349 349 351 351 352 355 356 356 357 357 355 355 355 354 352 351
318 322 324 325 325 324 324 325 326 328 330 331 334 342 338 336 336 332 332 332 332 331 329 329 330 332 337 342 344 344 347 349 350 351 352 354 355 356 355 355 355 355 354 352
321 322 322 323 321 322 323 323 322 324 327 329 340 340 338 337 335 333 332 331 331 331 330 330 329 330 331 333 334 339 343 344 347 350 351 351 351 354 356 355 355 354 354 354
321 322 322 322 320 319 320 320 321 321 323 327 339 337 333 332 333 333 331 330 329 328 327 326 326 328 329 331 332 333 337 342 344 343 349 350 351 352 352 351 354 354 354 354
321 321 323 322 321 320 320 321 321 321 322 325 338 334 331 331 331 330 329 328 327 325 325 324 323 323 323 326 328 331 331 331 339 343 344 344 345 350 351 352 352 354 354 353
319 320 321 321 322 320 321 321 320 320 322 326 334 332 331 329 327 326 326 325 323 322 321 321 321 321 321 321 321 324 330 331 329 328 332 340 343 344 346 349 350 351 352 352
317 319 319 319 321 320 320 321 321 322 324 326 331 330 328 327 326 325 323 322 321 320 320 319 318 317 318 320 319 320 322 327 331 331 330 326 330 340 342 343 345 348 349 350
317 318 320 320 318 319 321 320 319 320 321 323 327 328 327 326 329 327 321 318 317 316 315 315 315 316 317 317 317 318 319 320 324 327 329 330 328 322 328 339 341 342 343 345
318 318 317 318 320 320 321 320 319 320 323 321 323 323 323 324 322 319 316 315 314 313 313 313 313 314 315 315 315 317 318 320 321 320 317 325 330 327 325 322 328 338 341 342
321 321 322 320 320 319 318 318 318 323 322 320 321 320 319 317 315 314 314 314 313 313 312 312 312 313 313 313 314 315 316 318 318 314 313 312 316 327 329 325 320 321 326 336
321 320 322 320 322 320 318 318 320 320 319 318 317 315 315 314 314 313 313 313 313 312 312 312 312 311 312 312 313 314 315 315 315 314 313 313 313 315 322 327 322 321 322 325
318 317 319 318 318 318 317 316 318 317 317 315 314 313 312 313 313 313 312 312 312 311 311 311 311 311 311 312 312 313 313 313 314 314 315 316 317 320 322 323 326 328 326 323
318 318 318 317 316 316 315 315 315 314 313 313 312 312 312 312 312 312 311 311 311 311 311 311 310 310 310 310 311 311 312 312 313 314 314 315 316 318 321 322 323 327 328 325
317 319 319 319 315 315 315 315 314 314 313 311 311 311 311 311 311 310 311 311 310 311 310 310 310 310 309 308 308 309 310 311 312 313 314 314 314 316 318 321 322 322 324 324

GFSCGP_850_thetae_102.txt.gz
Theta_e
325 324 325 327 330 336 339 342 345 345 353 353 352 353 349 348 354 347 345 344 344 345 344 342 341 342 344 347 347 347 348 349 351 348 348 348 351 352 349 350 351 351 349 344
325 324 326 327 330 331 334 340 344 351 351 351 352 351 349 349 350 351 346 345 346 346 344 342 341 342 343 346 347 347 350 347 351 345 349 350 348 353 350 351 349 350 342 346
327 325 326 327 329 331 333 338 340 356 347 344 348 351 346 346 343 348 348 346 347 347 346 343 344 342 342 345 346 348 351 344 347 346 349 343 352 352 350 351 350 349 345 346
326 327 326 327 329 332 335 340 340 350 347 353 349 359 351 351 352 351 351 351 349 348 347 345 346 344 342 344 345 348 351 342 347 351 348 351 349 351 352 351 350 349 348 349
325 327 326 328 330 332 336 337 339 338 341 348 349 351 353 350 352 353 352 353 352 349 348 346 347 346 345 344 346 347 350 343 350 352 349 346 347 341 350 349 347 350 351 349
327 326 328 329 332 334 335 336 338 337 336 345 347 348 356 353 353 353 353 353 352 351 348 348 347 346 346 345 345 347 348 347 347 348 350 349 351 349 351 349 347 350 346 351
327 327 328 329 332 334 333 337 340 339 338 337 345 347 355 350 346 347 350 349 350 352 350 348 348 347 347 346 344 346 345 346 346 345 346 343 348 351 345 349 352 351 351 351
327 331 329 331 333 334 334 337 339 339 337 335 345 355 353 348 344 344 345 346 349 352 349 351 349 347 348 347 345 345 345 342 343 343 343 342 340 347 351 349 352 350 350 350
329 330 331 331 332 334 334 336 335 335 334 334 350 352 348 345 344 341 341 342 345 349 353 352 351 349 345 349 348 347 347 345 342 342 343 344 342 341 345 347 346 349 351 350
328 331 330 328 329 329 331 332 334 335 337 337 352 352 354 348 344 340 338 338 340 343 346 352 352 352 352 350 349 355 348 348 348 348 346 345 343 343 346 347 351 347 352 351
326 329 328 327 327 328 330 330 332 332 334 335 352 353 345 346 342 339 336 334 336 339 342 343 344 349 351 350 347 349 355 352 351 354 357 355 349 345 344 345 341 344 345 352
326 326 329 327 326 326 327 329 331 334 336 335 347 350 341 341 339 337 334 332 333 336 338 340 341 343 345 346 338 347 347 349 356 353 354 355 356 356 352 346 348 344 334 348
324 326 327 327 326 326 327 328 329 330 332 336 341 349 339 338 337 336 335 332 331 334 336 337 338 339 340 345 346 344 338 337 351 353 355 354 356 355 356 355 351 352 347 336
321 322 325 327 327 326 326 327 328 329 331 331 345 344 339 337 336 334 335 333 332 331 332 334 335 337 336 339 343 340 335 339 347 347 351 353 354 353 353 354 354 353 352 350
321 322 322 324 325 323 325 325 326 327 328 333 343 343 339 336 336 334 334 333 332 331 331 332 332 333 334 334 336 338 342 343 345 348 349 352 352 352 352 353 353 354 354 352
322 323 322 324 323 322 322 324 323 323 324 339 340 341 337 335 334 333 332 331 331 330 328 327 327 330 330 332 333 334 335 341 343 343 347 349 350 351 351 351 352 352 353 355
322 323 323 323 322 322 322 322 322 322 323 328 340 338 335 335 333 332 331 330 329 328 327 326 325 325 324 325 329 333 333 332 334 340 342 344 345 348 349 350 351 352 353 351
322 323 323 323 323 322 322 323 322 321 322 327 335 336 334 334 332 331 329 328 326 326 325 324 323 322 323 323 323 325 329 332 332 332 332 335 341 343 344 348 352 353 353 353
318 320 320 321 321 321 322 323 321 320 321 332 335 334 332 332 329 328 327 326 325 324 322 321 320 320 321 320 320 321 322 325 330 330 329 331 329 327 340 342 344 349 350 350
318 318 321 321 320 320 323 321 320 320 322 324 331 331 329 328 330 328 324 323 320 319 318 317 317 318 319 318 319 319 321 323 324 323 320 323 328 328 323 324 329 338 341 343
318 319 318 319 321 322 322 320 319 320 324 323 329 330 329 328 325 324 321 318 317 316 315 315 315 316 316 316 316 318 319 321 321 319 318 316 314 316 330 331 324 323 325 334
322 320 321 319 319 320 321 320 321 326 323 322 324 325 322 321 320 318 317 317 316 315 315 314 315 315 315 315 315 316 317 316 313 313 313 313 315 315 315 319 321 323 323 322
320 321 323 323 324 322 320 321 322 322 323 322 322 321 320 318 317 317 316 316 315 314 314 314 314 313 314 314 314 315 315 315 315 312 310 310 310 311 314 317 320 322 327 329
319 318 321 321 322 321 320 319 320 320 319 319 318 317 317 316 315 315 315 314 314 313 313 313 313 313 313 313 313 313 313 312 310 310 312 315 314 312 312 315 319 323 326 329
319 319 319 319 319 318 317 317 317 317 317 316 316 315 314 314 314 314 314 313 313 313 313 313 312 312 312 312 311 311 310 308 307 309 311 311 314 315 315 315 317 319 321 324
318 319 323 321 318 317 317 317 316 316 315 315 314 313 313 313 313 313 312 312 313 313 313 312 312 312 311 310 309 310 308 309 310 310 312 314 314 314 315 315 316 318 321 322

GFSCGP_850_thetae_105.txt.gz
Theta_e
325 321 320 321 323 326 331 338 346 349 352 352 352 352 347 348 350 350 347 343 342 342 344 344 344 344 346 345 344 348 347 344 346 349 350 348 350 349 348 345 347 346 344 344
323 322 322 323 324 327 328 333 353 355 353 350 353 352 349 349 350 349 349 343 343 343 343 342 343 343 345 346 345 348 348 348 342 348 350 347 349 350 348 348 349 348 344 345
323 323 324 323 324 325 327 328 350 354 347 351 349 351 349 347 348 348 348 348 343 344 343 342 342 343 346 345 343 346 348 347 341 348 350 348 348 350 350 348 348 349 345 351
321 324 324 323 324 324 325 335 348 347 348 354 347 352 348 347 347 344 344 350 347 345 343 342 342 344 344 345 344 346 347 347 345 350 347 343 349 347 350 347 348 345 344 347
322 322 324 323 325 325 327 345 347 344 345 349 348 351 351 347 348 347 345 347 347 345 344 344 342 342 342 343 343 341 343 341 348 350 349 349 347 350 351 348 350 348 347 347
322 324 324 324 325 326 331 332 342 345 347 356 351 349 354 352 349 346 343 341 345 348 346 345 344 342 341 341 343 344 336 338 346 350 351 344 343 342 350 347 347 347 349 348
325 323 324 325 327 328 331 331 334 340 352 349 345 347 351 348 341 340 339 341 350 349 347 347 346 346 342 342 344 345 337 339 345 345 350 346 349 348 349 347 345 346 347 349
324 324 325 327 327 328 332 328 335 346 338 333 338 353 354 345 345 344 344 347 349 351 350 348 348 347 344 344 344 343 340 334 343 339 346 345 347 348 344 348 348 349 348 351
328 325 326 328 329 331 332 331 329 334 331 332 352 353 349 345 344 343 345 346 345 347 348 348 350 348 347 345 345 344 342 335 336 340 341 342 341 347 348 346 351 348 348 349
328 326 329 330 330 330 329 327 328 328 334 336 352 354 354 346 344 340 340 340 342 344 347 347 348 349 349 348 347 347 346 344 341 339 340 340 341 339 341 347 350 347 349 349
325 325 328 327 328 329 328 326 328 327 330 331 352 350 347 343 339 338 336 336 339 342 344 344 346 341 347 349 349 350 348 349 348 347 344 342 342 342 344 343 348 351 348 348
323 323 329 327 325 326 326 325 327 328 329 336 347 349 341 339 336 334 333 335 338 341 341 342 345 347 348 349 348 349 348 347 348 348 347 347 344 343 342 342 344 347 349 347
320 322 324 327 324 325 325 325 325 323 324 330 335 348 340 338 336 334 332 333 336 337 337 339 342 344 345 344 344 342 343 341 335 335 344 348 349 348 345 343 343 344 345 340
321 319 325 324 325 325 324 324 325 325 325 341 346 344 339 337 335 334 332 332 333 334 335 336 337 339 341 343 342 342 341 337 334 337 346 348 348 350 348 349 350 348 348 346
318 321 320 321 324 325 321 322 324 325 329 337 341 341 339 336 334 334 333 332 331 333 333 334 335 334 334 339 341 339 338 335 339 337 339 346 348 348 349 350 351 353 354 353
320 321 321 321 322 322 321 321 323 323 338 340 340 339 334 335 334 333 332 331 329 327 328 330 330 332 333 333 333 335 338 341 342 343 346 344 341 341 349 349 350 353 353 352
322 323 323 321 323 322 320 322 321 321 321 339 341 337 334 333 333 333 331 329 328 327 325 325 325 324 329 327 332 333 333 332 334 337 340 342 345 347 347 348 348 348 351 352
321 321 322 323 322 323 321 322 321 320 321 335 337 335 334 334 333 331 330 329 326 324 322 322 323 322 321 324 326 329 332 331 332 332 333 331 330 340 342 344 348 348 348 349
317 317 320 319 321 322 322 322 321 321 335 336 336 334 334 333 330 330 327 326 324 322 320 320 321 321 319 320 322 322 323 325 326 325 328 329 327 326 328 336 340 344 348 350
317 316 318 320 322 321 322 320 320 321 334 334 334 333 332 329 329 327 325 324 321 320 319 317 318 319 318 318 318 320 322 322 321 319 317 316 318 324 327 326 325 325 333 339
317 317 318 317 321 324 322 320 319 322 326 326 332 329 329 327 327 325 322 319 318 316 316 315 316 315 315 314 314 316 316 317 317 315 315 316 316 315 317 322 323 320 322 322
323 320 319 318 319 324 322 322 326 325 326 328 327 326 320 320 322 319 317 317 316 315 315 315 315 314 314 314 312 312 312 312 310 309 309 309 311 312 314 315 316 316 317 319
318 322 323 321 324 322 322 322 322 322 324 325 325 321 320 318 318 317 317 316 315 315 314 314 313 313 313 313 313 313 313 310 309 308 308 307 308 308 309 310 312 315 317 321
318 319 319 321 323 321 320 320 320 321 320 320 321 321 320 320 319 317 316 315 314 314 313 313 313 313 312 312 311 309 308 306 304 304 304 305 306 308 311 312 313 314 318 322
320 319 319 319 319 318 318 319 319 318 318 317 317 317 316 316 316 315 315 314 313 313 313 313 312 313 312 312 309 306 305 305 305 305 305 306 307 310 312 312 313 315 316 319
318 317 321 319 319 318 318 318 317 317 316 317 315 315 314 314 314 314 314 313 313 313 313 312 313 312 311 307 305 305 305 305 305 306 306 307 309 310 311 312 313 311 312 316

GFSCGP_850_thetae_108.txt.gz
Theta_e
324 319 320 320 319 321 323 332 352 353 349 352 350 349 350 350 347 344 346 348 344 345 344 347 346 346 345 344 345 345 344 342 345 346 346 346 346 345 344 346 344 343 342 342
319 320 320 320 321 321 322 328 348 352 347 349 350 350 348 349 348 345 346 347 343 345 344 343 343 345 345 344 346 347 346 345 347 348 346 349 348 347 347 346 346 344 340 343
320 322 323 322 321 321 320 324 348 354 350 348 349 352 349 348 346 346 345 347 345 345 345 344 344 343 344 345 346 347 347 344 347 348 349 348 345 348 349 348 346 344 341 345
320 323 323 322 322 320 319 323 345 348 349 349 347 353 348 348 349 348 348 347 347 343 344 344 344 343 343 345 344 346 347 347 344 347 351 348 347 347 348 345 346 341 346 346
320 321 320 322 322 321 322 344 346 344 346 346 348 350 342 347 351 348 347 346 346 344 342 343 343 342 342 344 344 341 343 346 341 346 347 347 348 346 349 348 346 345 349 344
321 323 320 320 322 322 340 343 342 343 343 349 348 348 352 348 347 348 346 346 347 345 344 342 342 342 342 344 343 342 340 344 344 346 347 348 346 348 349 347 348 348 347 345
323 325 321 321 322 323 329 336 336 345 345 344 342 350 347 345 344 345 345 346 346 344 344 346 343 343 342 343 342 342 340 341 345 348 350 348 343 345 349 345 345 348 349 348
323 324 322 323 322 323 328 327 333 342 341 342 339 350 355 341 341 340 340 339 343 342 341 348 343 344 342 342 341 342 341 340 344 346 349 349 346 346 349 346 343 345 346 346
324 326 324 326 325 324 326 331 327 333 330 341 352 352 347 344 342 345 344 345 345 346 347 348 347 344 345 344 342 343 341 340 344 344 345 347 347 347 348 347 346 346 346 348
324 324 323 326 327 327 327 326 328 326 333 337 350 353 353 348 347 343 341 342 342 339 347 348 348 345 346 345 344 344 344 341 342 347 344 345 339 343 346 349 351 349 348 347
321 320 322 326 325 326 326 325 324 323 324 328 347 350 346 345 341 338 338 341 343 344 343 347 348 348 347 346 346 346 345 343 344 346 346 343 343 342 340 346 348 348 347 349
320 318 323 324 323 322 324 325 322 325 327 334 340 351 338 337 336 336 337 339 341 341 344 345 347 347 346 347 347 347 346 344 343 340 342 342 341 342 342 344 349 348 348 348
317 316 323 323 319 322 320 323 321 318 320 337 341 349 337 334 333 334 335 337 340 339 342 342 345 345 343 341 348 348 346 346 345 344 344 343 344 341 342 343 346 343 344 344
320 315 321 323 322 320 322 320 321 319 328 340 342 346 340 336 333 332 334 336 337 337 337 339 342 344 343 346 344 344 345 345 342 335 337 336 342 344 344 347 343 343 344 346
317 320 321 321 320 320 321 320 319 323 327 329 341 341 339 335 332 332 333 334 335 335 334 332 338 340 341 341 339 340 342 341 337 337 338 339 346 345 345 345 345 346 344 344
314 320 321 321 321 320 320 319 322 337 338 338 338 339 334 334 333 332 331 333 332 333 334 334 331 331 335 339 340 341 341 339 339 339 337 342 343 343 344 345 346 346 347 346
317 318 319 322 320 319 318 319 318 325 337 337 339 335 334 334 333 332 330 328 329 329 328 330 329 331 332 332 333 335 336 337 338 341 341 343 343 343 336 339 343 345 346 347
316 317 318 321 320 320 319 317 318 326 337 334 334 334 333 333 332 331 328 326 325 325 324 323 324 324 327 327 333 332 333 335 338 337 338 340 341 342 338 339 339 340 344 346
312 312 315 317 321 318 320 320 319 334 336 333 334 333 332 332 330 328 326 325 322 322 321 321 321 322 323 324 326 329 329 329 330 330 330 329 329 335 337 339 339 339 343 345
310 309 313 316 319 320 320 319 320 325 330 332 334 333 331 329 328 324 321 321 320 320 320 321 320 320 320 321 322 323 323 322 320 318 317 319 324 327 328 328 326 325 324 324
311 310 312 314 317 321 320 322 322 322 322 333 333 332 330 327 326 322 322 321 322 319 317 317 317 317 314 314 314 316 316 316 315 314 314 315 316 316 316 319 321 317 318 322
318 311 312 312 316 321 322 321 324 322 325 327 332 330 327 325 322 320 319 319 319 317 315 315 314 314 313 312 312 311 311 310 310 309 309 309 309 310 311 313 315 316 317 318
314 316 317 317 318 319 322 323 324 327 326 325 327 326 327 322 318 317 317 316 315 315 314 314 314 313 313 312 311 310 309 309 308 306 305 305 306 307 308 309 310 311 314 318
315 316 316 317 318 319 319 321 321 323 324 322 322 322 321 317 317 316 315 315 315 314 314 313 313 312 312 311 310 307 305 303 303 303 304 304 304 305 307 310 311 312 313 314
317 316 313 314 316 318 318 318 319 319 320 321 321 320 319 317 316 315 315 315 314 314 313 313 313 312 311 310 309 304 303 304 304 304 304 304 305 306 306 307 308 310 312 314
316 314 313 315 317 316 316 318 318 318 317 317 316 315 318 318 318 317 315 314 313 313 313 313 312 311 311 309 304 304 303 303 303 304 304 304 305 306 307 307 306 309 310 310

GFSCGP_850_thetae_111.txt.gz
Theta_e
323 318 319 320 319 320 322 323 340 352 349 351 350 349 350 349 346 346 346 345 346 346 346 345 345 347 346 344 340 340 344 344 345 342 339 343 344 344 345 344 343 344 342 343
319 320 319 320 319 321 321 323 349 350 348 350 350 351 348 348 347 347 345 346 345 346 345 345 347 347 346 344 342 341 344 340 345 345 344 344 343 345 345 345 344 342 341 343
321 322 321 321 321 322 320 321 333 352 350 348 350 352 350 347 346 345 343 346 344 344 346 346 347 346 345 344 344 343 345 339 345 348 346 348 347 346 346 346 345 343 340 342
320 321 323 322 322 320 320 319 326 351 348 351 346 352 350 348 347 345 344 346 346 344 345 346 347 346 344 344 344 343 346 342 344 348 347 345 344 345 347 346 344 344 342 342
319 320 320 321 321 319 320 327 325 346 343 343 348 348 340 347 349 347 343 341 346 344 343 345 343 343 343 343 343 344 345 346 344 346 349 348 348 347 346 345 345 343 344 343
320 322 321 319 320 319 339 341 339 338 340 345 345 347 347 350 348 345 344 344 345 344 343 344 345 344 343 343 344 344 344 346 345 345 347 348 348 346 346 347 344 343 347 344
321 323 322 321 320 324 339 334 339 345 343 343 342 348 346 344 344 346 346 344 345 345 343 343 344 345 344 343 343 343 342 345 344 341 345 346 345 347 347 347 347 345 345 343
321 323 321 320 320 319 337 329 334 341 343 340 343 348 348 342 342 345 346 345 345 346 345 345 344 345 345 343 342 343 342 342 345 342 344 347 346 345 345 347 346 346 348 347
320 323 323 322 322 322 326 328 325 330 329 339 346 350 346 343 343 343 344 344 345 345 345 343 345 345 343 345 343 343 343 341 343 345 346 348 346 342 345 348 345 345 346 347
321 323 322 323 325 325 323 323 327 323 332 336 346 350 353 345 344 342 341 343 341 341 341 340 344 343 344 345 345 345 344 343 340 343 347 348 347 348 345 347 347 345 346 346
319 319 322 323 323 325 325 324 320 320 323 333 344 346 343 344 340 340 340 342 341 341 341 347 345 344 345 345 345 345 344 345 342 341 347 344 346 341 345 346 347 347 346 347
317 316 322 324 321 319 323 324 321 324 327 336 337 347 339 340 338 338 340 342 342 341 341 341 343 344 346 346 345 344 344 343 345 343 344 345 343 341 340 343 348 346 347 345
315 315 322 323 321 318 319 318 318 316 324 335 339 346 337 336 336 337 338 341 340 342 342 343 343 346 345 346 344 344 344 345 344 345 344 343 343 343 341 342 342 345 347 347
317 313 320 322 319 317 319 321 319 318 330 337 341 346 340 335 334 335 338 339 338 339 340 341 342 344 345 345 339 340 344 346 342 332 335 341 342 340 342 341 343 343 346 347
314 317 318 322 319 319 319 319 319 319 324 330 340 342 339 335 334 335 336 337 336 334 337 339 340 342 344 344 343 345 345 343 331 335 337 336 339 340 341 343 342 345 342 343
311 317 320 322 325 319 318 318 319 336 338 338 339 339 334 333 333 334 335 335 335 334 333 334 336 338 340 341 342 339 341 341 339 337 339 339 342 343 343 344 345 346 345 345
316 315 317 320 322 320 320 318 316 333 335 337 339 336 333 332 332 332 333 333 333 332 332 331 331 333 336 337 336 337 338 339 340 341 341 341 343 343 339 340 341 342 343 345
314 314 313 318 320 324 320 317 321 335 335 332 333 334 333 332 331 331 331 331 330 331 330 332 333 332 333 332 333 333 333 335 336 336 337 338 339 339 339 336 334 336 340 342
310 311 313 316 319 320 321 319 318 324 335 333 334 333 332 331 330 328 327 327 325 326 325 325 328 329 333 332 330 330 331 331 331 330 330 329 330 333 335 338 337 338 339 339
308 307 311 314 318 321 320 319 321 323 328 331 333 332 330 329 328 323 325 325 323 322 321 322 323 323 325 325 325 325 324 322 322 319 321 322 326 327 329 328 328 328 330 330
309 309 310 312 315 319 320 320 321 323 320 332 332 331 328 327 325 321 323 323 323 322 320 320 319 319 319 320 319 319 318 318 317 315 315 316 316 316 317 319 321 318 320 327
313 310 310 309 314 319 319 321 321 320 324 332 332 330 328 327 323 319 321 320 320 320 319 318 317 315 313 312 311 310 310 310 310 309 309 309 309 311 312 313 315 316 317 318
314 313 316 313 314 317 319 323 326 326 325 328 331 329 328 325 319 318 319 319 319 318 317 315 314 313 312 311 310 308 307 307 306 305 305 305 306 307 308 309 310 311 313 316
315 313 315 316 317 317 319 323 326 328 328 330 331 329 327 324 319 317 318 317 317 315 315 314 314 313 312 311 309 307 304 303 303 303 303 303 304 305 307 309 309 310 311 312
315 315 311 312 315 316 317 321 323 324 325 327 327 327 325 323 320 322 321 317 315 314 314 314 313 312 311 309 307 304 303 303 303 303 304 304 304 305 305 307 307 309 311 311
314 313 313 314 316 314 315 317 321 320 322 322 323 323 322 322 319 317 316 315 314 314 314 313 313 312 310 308 305 303 303 303 303 303 303 303 304 305 305 305 306 308 309 310

GFSCGP_850_thetae_114.txt.gz
Theta_e
321 318 320 319 319 319 321 322 327 352 348 350 349 349 347 347 345 344 345 345 345 346 346 345 345 345 346 346 343 343 342 343 342 341 343 344 343 344 343 342 343 340 342 342
317 318 317 318 319 320 321 322 345 350 348 348 350 351 347 347 345 344 345 344 344 345 346 345 345 345 346 344 343 343 344 344 345 343 338 340 344 343 344 342 343 342 340 342
320 322 318 320 320 320 320 319 343 350 349 348 351 352 350 347 346 344 345 345 345 346 346 346 345 345 346 345 342 342 341 342 345 344 340 343 343 344 345 344 344 342 341 342
321 321 321 321 322 319 320 318 329 349 344 348 344 351 349 349 348 346 345 345 344 345 346 346 345 345 347 344 342 341 344 340 345 346 345 346 344 344 345 344 346 343 342 341
320 319 321 321 321 318 320 328 328 347 341 341 343 342 341 347 350 347 345 344 344 345 344 345 344 345 346 344 343 343 345 339 343 347 345 345 345 345 345 345 345 343 342 341
319 320 319 319 319 319 338 338 336 334 337 341 340 340 343 350 348 347 345 343 342 345 343 345 345 346 346 345 344 344 345 344 340 345 347 346 346 347 346 344 344 345 341 343
321 321 321 320 320 325 334 335 339 342 343 343 336 345 341 342 343 345 344 343 342 344 343 343 344 345 345 345 344 344 345 345 345 342 344 347 344 347 345 345 344 340 344 343
320 322 321 319 320 321 333 331 335 340 341 339 342 346 344 342 342 344 344 341 342 345 344 344 343 345 345 345 344 344 345 345 346 345 342 345 345 345 347 347 347 343 343 343
319 322 321 320 319 324 332 334 326 329 327 340 342 347 345 342 344 344 344 342 343 343 344 344 344 343 344 345 344 344 345 344 345 345 341 343 345 344 344 344 347 346 346 347
319 322 321 321 323 323 325 324 327 323 332 334 345 347 345 347 346 345 345 345 344 342 345 345 344 345 344 344 345 345 344 345 345 346 343 343 346 345 343 345 345 344 344 345
316 318 321 321 322 323 323 323 319 320 323 332 340 342 343 343 342 341 341 343 345 344 342 342 343 343 344 344 343 343 345 345 345 345 344 343 345 346 347 345 345 346 345 345
316 315 321 323 320 317 319 322 319 323 327 331 333 338 338 341 339 339 339 341 340 342 343 344 343 341 342 344 343 344 345 344 344 343 344 344 345 344 342 343 344 344 345 345
315 315 320 321 320 317 317 318 316 315 325 335 332 335 337 338 338 339 340 340 341 340 339 339 344 344 344 342 342 343 343 343 342 344 345 345 346 344 341 339 341 346 343 346
316 314 319 321 320 316 319 317 318 317 325 332 332 341 340 337 335 336 340 338 338 337 340 340 342 340 343 344 344 344 344 344 343 343 346 345 343 343 342 342 340 341 341 345
312 318 319 319 318 318 318 317 318 318 321 328 332 338 339 335 333 337 338 336 338 338 339 340 342 342 343 341 343 339 343 343 343 337 336 331 336 337 339 341 341 341 341 342
310 317 318 321 322 320 318 317 320 335 336 336 336 338 333 332 334 336 337 336 335 335 334 337 339 343 340 341 341 340 343 338 334 342 338 333 338 340 341 340 340 343 342 346
314 316 316 320 318 320 322 317 318 324 335 336 337 333 332 331 334 336 336 335 334 333 332 333 333 337 340 340 339 340 341 341 332 332 334 334 340 342 341 342 343 344 344 344
314 314 314 317 321 325 319 317 330 334 334 332 332 333 332 331 334 335 335 334 333 331 331 332 332 333 335 337 337 339 338 339 339 339 339 339 339 340 339 337 337 337 335 336
310 311 313 316 319 318 320 318 319 324 330 331 332 332 331 331 331 330 333 333 332 332 332 333 333 332 332 332 332 333 332 332 332 331 332 332 334 334 334 334 335 336 337 335
307 307 313 313 318 317 317 318 321 324 322 332 332 331 331 331 332 326 329 332 330 329 331 330 332 330 329 326 326 326 323 323 323 322 324 327 327 329 329 329 330 331 332 334
307 308 309 313 314 316 316 319 321 320 318 332 332 331 330 329 328 326 328 327 324 324 324 324 325 325 323 321 321 320 319 318 316 315 315 315 315 316 316 318 320 319 322 326
310 309 310 308 313 319 317 319 320 318 324 331 332 330 329 326 326 326 326 324 321 321 320 320 320 318 315 313 312 311 310 310 310 309 309 309 309 310 312 313 314 316 317 319
314 311 314 310 311 314 318 321 326 326 325 330 332 329 327 325 323 323 324 321 320 319 319 317 317 314 312 311 310 308 307 306 306 305 305 306 306 306 307 309 309 310 311 314
314 312 314 315 316 316 319 324 324 327 326 326 331 329 326 324 323 323 322 319 318 318 316 315 313 312 311 310 308 306 304 303 303 303 303 303 304 304 305 305 306 308 309 310
313 313 311 312 314 315 317 322 323 324 327 329 328 328 327 326 321 321 319 319 319 316 315 314 313 312 311 309 307 304 303 303 303 303 303 303 304 304 304 305 305 306 306 307
312 311 313 315 315 314 316 320 321 321 320 322 325 326 325 324 323 323 321 319 320 315 315 314 313 312 310 308 306 303 303 302 302 302 303 303 303 304 304 304 305 305 306 307

GFSCGP_850_thetae_117.txt.gz
Theta_e
322 331 335 331 325 326 328 327 337 351 350 352 352 351 350 348 347 346 345 345 348 347 347 348 346 345 346 345 344 344 343 341 340 343 342 340 340 341 341 341 342 342 341 341
326 334 328 324 323 324 325 326 352 352 350 351 352 352 350 348 348 347 347 344 346 346 347 348 346 346 345 345 343 343 343 341 340 342 342 341 342 343 343 341 343 341 341 343
331 329 321 323 323 325 325 326 348 350 352 350 352 355 352 348 347 346 346 345 344 346 347 348 348 345 345 345 342 342 342 343 344 343 341 342 342 343 344 344 342 342 340 341
329 322 322 323 324 324 327 323 335 351 349 349 349 353 353 350 350 346 345 344 343 346 347 347 348 347 344 345 343 341 343 343 345 344 340 342 342 344 344 344 343 343 341 340
325 323 324 325 325 324 326 325 330 340 347 346 351 349 348 349 353 350 346 345 344 344 345 347 348 348 347 346 344 341 342 344 344 345 345 345 344 343 343 345 344 342 342 341
323 320 322 324 323 323 337 335 340 343 345 341 342 345 349 353 353 350 347 346 345 344 342 345 347 348 348 345 345 342 342 344 344 346 345 346 344 345 344 344 345 342 343 341
324 324 323 322 324 326 341 338 346 348 347 342 342 347 344 346 346 349 348 346 346 344 343 345 346 347 346 346 345 344 344 345 342 345 346 346 344 346 345 343 342 342 342 342
323 321 323 323 325 325 336 334 333 338 343 340 346 349 346 344 343 344 347 346 345 344 344 345 345 346 346 345 345 344 344 345 344 343 345 345 346 345 345 346 346 344 341 342
325 326 323 323 322 326 332 334 331 337 337 342 347 346 347 344 346 345 347 346 345 345 345 343 345 345 346 345 345 344 344 345 345 345 344 343 345 344 345 347 347 346 343 342
324 326 324 325 324 324 331 330 329 334 342 340 349 350 348 348 348 347 346 345 344 345 345 344 344 343 343 343 344 345 344 344 345 344 345 341 343 345 343 344 344 346 344 346
322 325 327 325 327 328 327 330 329 331 333 336 343 348 347 347 345 348 345 344 344 345 344 345 344 344 343 343 343 344 345 344 344 345 343 343 342 345 346 345 345 345 343 344
320 325 327 327 323 321 323 326 329 333 335 337 340 341 341 343 343 343 344 345 345 344 345 345 345 344 343 344 344 344 344 344 344 343 343 344 343 343 345 346 344 345 344 345
321 323 324 326 324 322 323 322 322 325 335 340 335 338 340 342 341 340 341 343 345 345 345 343 342 342 343 342 342 344 344 344 344 343 343 343 343 344 343 342 341 345 346 344
320 322 326 323 326 322 323 322 322 324 333 336 336 343 343 343 343 339 341 342 340 341 340 340 341 341 342 342 341 343 343 343 343 343 342 342 344 345 344 343 340 339 342 343
321 326 323 322 321 321 321 323 332 326 326 334 337 342 343 342 341 339 341 340 338 339 340 339 338 340 340 343 344 341 341 341 342 343 342 342 343 342 342 341 341 341 341 340
318 324 323 325 323 324 322 322 328 332 333 335 336 340 338 340 339 339 339 337 338 336 337 339 339 340 342 343 343 340 342 342 339 341 340 337 335 337 337 339 340 340 341 340
322 323 324 325 323 325 325 323 324 333 337 338 339 338 338 339 338 338 337 337 337 335 334 337 340 340 341 339 338 340 340 333 332 338 340 334 334 336 338 341 340 342 343 342
322 323 323 322 325 327 324 324 328 332 336 337 337 336 338 337 337 337 338 337 332 332 333 335 337 338 340 340 340 338 338 330 330 333 336 336 337 337 341 341 341 342 341 341
318 321 322 323 322 323 323 322 323 324 324 331 336 336 336 336 336 337 335 334 334 334 334 333 333 335 336 338 339 338 336 334 335 336 335 336 337 335 337 338 337 337 336 335
316 319 321 321 321 320 322 321 321 324 325 332 335 335 336 335 337 328 331 334 332 333 333 333 331 331 332 332 332 333 333 334 334 333 331 331 333 335 334 333 332 333 335 335
318 319 318 320 320 319 320 322 321 325 326 331 335 334 335 337 336 328 331 331 332 332 332 331 330 327 326 325 326 327 326 327 327 327 324 322 324 324 325 324 322 324 328 330
319 320 320 317 319 318 320 323 323 325 325 329 334 334 334 327 329 328 330 329 330 329 330 328 325 322 320 318 318 318 316 316 314 313 312 313 313 314 315 315 316 317 319 321
322 319 321 319 319 319 319 322 324 325 326 330 332 330 328 326 326 324 323 324 324 324 323 321 320 317 312 311 310 309 309 308 308 307 307 307 308 308 309 310 311 312 314 317
318 315 324 322 322 321 320 321 323 325 324 325 330 329 328 327 327 325 323 321 320 320 319 317 314 312 310 309 308 306 305 304 304 304 304 304 305 306 306 307 308 309 310 310
319 317 321 321 319 318 319 320 321 324 327 328 326 326 327 328 323 326 323 318 318 318 316 314 312 312 311 309 306 304 303 303 303 303 303 304 304 304 305 305 305 306 306 306
317 321 324 325 319 319 319 319 320 321 323 326 327 325 325 325 325 324 323 319 318 317 315 313 312 311 310 308 305 303 303 302 302 302 303 303 303 304 304 304 304 304 304 305

GFSCGP_850_thetae_120.txt.gz
Theta_e
322 330 336 337 335 335 344 343 346 351 352 353 353 352 350 348 346 345 346 346 347 347 348 348 348 349 349 349 349 348 349 343 342 347 346 346 346 347 347 346 344 339 343 342
327 331 333 337 331 332 338 338 347 351 352 353 351 353 353 350 345 342 345 344 347 347 348 349 349 349 350 350 350 350 350 345 342 347 348 347 347 347 347 348 348 348 345 340
324 328 333 330 330 333 333 335 347 347 351 351 353 356 355 352 349 344 344 344 345 348 348 350 350 349 350 351 350 350 350 348 341 346 347 342 347 345 343 348 348 348 348 344
326 328 331 332 333 333 337 330 342 349 349 352 351 359 356 354 353 347 346 343 343 345 348 348 350 350 350 351 351 350 349 344 342 342 348 347 346 347 348 347 348 348 348 348
330 329 329 330 330 330 334 328 332 338 338 341 348 347 352 353 355 352 349 345 345 344 346 348 348 350 351 351 350 348 350 343 345 345 347 346 349 347 347 348 348 349 348 349
327 327 327 328 329 328 330 330 334 337 337 339 339 344 354 354 353 352 349 348 346 345 345 347 348 349 350 351 351 349 349 344 344 344 344 345 346 349 349 349 349 349 348 348
326 326 326 325 326 326 331 334 339 339 340 338 340 343 343 348 348 348 351 349 347 346 343 346 348 349 350 350 351 349 350 348 347 348 345 344 344 349 349 347 349 348 348 348
327 327 325 325 326 327 332 335 337 340 340 339 344 343 344 345 346 348 349 349 348 348 345 344 348 350 351 350 351 350 351 345 349 348 348 344 344 344 345 349 349 348 347 350
325 324 324 324 325 327 328 332 333 334 336 339 345 342 350 347 347 347 348 349 349 349 346 344 344 349 349 350 351 351 351 351 351 350 347 345 343 345 345 348 346 350 349 346
326 327 326 324 326 326 328 330 330 332 339 339 342 343 343 352 349 349 349 350 349 348 345 346 346 348 349 349 349 351 351 352 351 350 350 350 350 343 344 344 345 349 350 349
327 327 328 328 327 327 327 329 330 329 331 336 338 341 348 349 348 350 349 349 349 349 348 347 348 349 350 350 349 350 351 352 351 349 350 350 350 348 345 345 343 343 343 344
327 327 329 328 327 327 329 327 329 331 334 335 336 344 346 348 346 348 348 349 349 348 348 348 348 349 351 351 349 350 352 351 351 351 350 350 349 349 345 344 344 345 344 342
327 327 329 328 327 327 328 328 328 330 331 333 333 333 346 346 346 347 348 348 348 347 348 348 348 349 349 350 350 351 352 352 352 352 351 350 347 349 349 346 345 345 345 344
322 326 327 327 329 328 328 327 327 328 330 330 333 335 347 348 347 346 346 346 347 348 348 348 348 349 349 349 343 343 345 347 347 351 351 351 349 346 346 347 343 343 344 345
324 327 327 325 325 324 326 327 328 330 328 330 330 333 334 346 347 345 344 344 345 346 345 346 347 347 342 342 343 344 343 344 343 344 345 345 342 341 342 344 343 341 343 347
322 325 326 326 325 325 325 325 328 330 331 332 332 335 341 344 345 343 344 343 344 343 343 344 344 341 340 341 342 344 343 343 343 341 343 343 343 343 343 343 343 341 345 350
324 324 326 326 326 326 327 326 327 331 335 335 336 342 342 345 343 342 342 342 342 342 342 343 343 341 342 343 343 342 341 340 340 340 340 340 338 337 337 337 339 340 342 343
324 325 324 325 327 328 327 327 327 329 333 337 337 338 339 342 341 340 340 340 339 339 337 339 339 340 342 341 341 340 338 335 334 336 338 337 335 334 335 337 342 343 344 344
324 326 325 324 324 324 325 326 327 328 328 328 329 336 340 339 338 339 340 340 339 337 335 337 338 339 340 340 340 339 337 331 331 334 334 335 337 336 337 339 340 341 342 342
323 325 325 325 324 324 327 324 324 326 328 329 333 337 337 338 341 338 337 337 336 331 334 334 334 335 336 336 338 338 335 330 332 332 334 335 336 336 337 337 337 337 336 336
322 323 323 324 324 323 324 323 323 327 330 329 335 337 337 337 338 334 332 332 331 329 331 331 330 330 330 330 333 334 330 331 330 331 332 332 331 332 332 331 332 330 332 333
321 321 321 321 321 322 324 325 325 330 328 328 334 337 338 335 334 330 327 329 332 331 329 328 327 325 323 323 326 328 328 325 322 320 324 325 319 319 319 320 321 323 325 327
324 321 323 320 324 325 325 326 327 328 330 331 334 336 334 334 332 327 329 330 330 328 324 324 323 320 317 317 314 316 317 316 313 311 312 312 313 313 314 315 316 318 320 324
323 321 322 324 324 324 324 325 325 329 331 330 334 333 332 333 331 329 327 324 328 328 322 320 318 313 311 310 309 308 308 308 307 307 307 307 308 308 309 310 311 312 313 315
323 323 324 324 325 323 323 324 324 327 330 330 331 331 331 330 329 327 324 322 320 319 317 315 312 310 310 308 306 304 304 304 304 304 304 305 305 305 305 305 306 307 307 309
321 323 323 322 325 324 325 323 323 324 327 328 328 329 329 329 326 323 320 322 320 316 316 316 314 312 309 307 305 304 303 303 306 306 307 308 306 306 305 305 305 305 305 305